<?xml version="1.0"?>
<gpx xmlns="http://www.topografix.com/GPX/1/1" xmlns:xsi="http://www.w3.org/2001/XMLSchema-instance" version="1.1" creator="GPX RubyGem 1.0.0 -- http://dougfales.github.io/gpx/" xsi:schemaLocation="http://www.topografix.com/GPX/1/1 http://www.topografix.com/GPX/1/1/gpx.xsd">
  <metadata>
    <name/>
    <time>2026-05-08T07:38:58+00:00</time>
    <bound minlat="90.0" minlon="180.0" maxlat="-90.0" maxlon="-180.0"/>
  </metadata>
  <trk>
    <name/>
    <trkseg>
      <trkpt lat="45.26826" lon="6.01471">
        <time>2023-01-28T05:56:05+00:00</time>
        <ele>1583.0</ele>
      </trkpt>
      <trkpt lat="45.2683" lon="6.01475">
        <time>2023-01-28T05:56:07+00:00</time>
        <ele>1583.0</ele>
      </trkpt>
      <trkpt lat="45.26828" lon="6.01478">
        <time>2023-01-28T05:56:12+00:00</time>
        <ele>1584.0</ele>
      </trkpt>
      <trkpt lat="45.26826" lon="6.0148">
        <time>2023-01-28T05:56:14+00:00</time>
        <ele>1585.0</ele>
      </trkpt>
      <trkpt lat="45.26825" lon="6.01481">
        <time>2023-01-28T05:56:15+00:00</time>
        <ele>1585.0</ele>
      </trkpt>
      <trkpt lat="45.26824" lon="6.01483">
        <time>2023-01-28T05:56:16+00:00</time>
        <ele>1585.0</ele>
      </trkpt>
      <trkpt lat="45.26822" lon="6.01489">
        <time>2023-01-28T05:56:20+00:00</time>
        <ele>1587.0</ele>
      </trkpt>
      <trkpt lat="45.2682" lon="6.0149">
        <time>2023-01-28T05:56:22+00:00</time>
        <ele>1587.0</ele>
      </trkpt>
      <trkpt lat="45.26817" lon="6.01491">
        <time>2023-01-28T05:56:27+00:00</time>
        <ele>1588.0</ele>
      </trkpt>
      <trkpt lat="45.26815" lon="6.01491">
        <time>2023-01-28T05:56:29+00:00</time>
        <ele>1588.0</ele>
      </trkpt>
      <trkpt lat="45.26813" lon="6.01492">
        <time>2023-01-28T05:56:31+00:00</time>
        <ele>1588.0</ele>
      </trkpt>
      <trkpt lat="45.26812" lon="6.01493">
        <time>2023-01-28T05:56:32+00:00</time>
        <ele>1588.0</ele>
      </trkpt>
      <trkpt lat="45.26811" lon="6.01494">
        <time>2023-01-28T05:56:34+00:00</time>
        <ele>1589.0</ele>
      </trkpt>
      <trkpt lat="45.26809" lon="6.01498">
        <time>2023-01-28T05:56:38+00:00</time>
        <ele>1590.0</ele>
      </trkpt>
      <trkpt lat="45.26808" lon="6.01498">
        <time>2023-01-28T05:56:39+00:00</time>
        <ele>1590.0</ele>
      </trkpt>
      <trkpt lat="45.26804" lon="6.015">
        <time>2023-01-28T05:56:45+00:00</time>
        <ele>1591.0</ele>
      </trkpt>
      <trkpt lat="45.26802" lon="6.01501">
        <time>2023-01-28T05:56:48+00:00</time>
        <ele>1591.0</ele>
      </trkpt>
      <trkpt lat="45.26801" lon="6.01502">
        <time>2023-01-28T05:56:50+00:00</time>
        <ele>1591.0</ele>
      </trkpt>
      <trkpt lat="45.26799" lon="6.01503">
        <time>2023-01-28T05:56:52+00:00</time>
        <ele>1591.0</ele>
      </trkpt>
      <trkpt lat="45.26798" lon="6.01503">
        <time>2023-01-28T05:56:54+00:00</time>
        <ele>1591.0</ele>
      </trkpt>
      <trkpt lat="45.26797" lon="6.01504">
        <time>2023-01-28T05:56:55+00:00</time>
        <ele>1592.0</ele>
      </trkpt>
      <trkpt lat="45.26796" lon="6.01504">
        <time>2023-01-28T05:56:57+00:00</time>
        <ele>1592.0</ele>
      </trkpt>
      <trkpt lat="45.26795" lon="6.01505">
        <time>2023-01-28T05:56:58+00:00</time>
        <ele>1592.0</ele>
      </trkpt>
      <trkpt lat="45.26792" lon="6.01506">
        <time>2023-01-28T05:57:00+00:00</time>
        <ele>1592.0</ele>
      </trkpt>
      <trkpt lat="45.26791" lon="6.01506">
        <time>2023-01-28T05:57:02+00:00</time>
        <ele>1592.0</ele>
      </trkpt>
      <trkpt lat="45.26789" lon="6.01506">
        <time>2023-01-28T05:57:04+00:00</time>
        <ele>1592.0</ele>
      </trkpt>
      <trkpt lat="45.26787" lon="6.01507">
        <time>2023-01-28T05:57:06+00:00</time>
        <ele>1592.0</ele>
      </trkpt>
      <trkpt lat="45.26786" lon="6.01508">
        <time>2023-01-28T05:57:07+00:00</time>
        <ele>1593.0</ele>
      </trkpt>
      <trkpt lat="45.26782" lon="6.01509">
        <time>2023-01-28T05:57:12+00:00</time>
        <ele>1593.0</ele>
      </trkpt>
      <trkpt lat="45.26781" lon="6.0151">
        <time>2023-01-28T05:57:14+00:00</time>
        <ele>1593.0</ele>
      </trkpt>
      <trkpt lat="45.26776" lon="6.01511">
        <time>2023-01-28T05:57:21+00:00</time>
        <ele>1593.0</ele>
      </trkpt>
      <trkpt lat="45.26775" lon="6.01512">
        <time>2023-01-28T05:57:22+00:00</time>
        <ele>1593.0</ele>
      </trkpt>
      <trkpt lat="45.26771" lon="6.01514">
        <time>2023-01-28T05:57:28+00:00</time>
        <ele>1593.0</ele>
      </trkpt>
      <trkpt lat="45.26764" lon="6.01519">
        <time>2023-01-28T05:57:36+00:00</time>
        <ele>1594.0</ele>
      </trkpt>
      <trkpt lat="45.2676" lon="6.01523">
        <time>2023-01-28T05:57:42+00:00</time>
        <ele>1595.0</ele>
      </trkpt>
      <trkpt lat="45.26757" lon="6.01526">
        <time>2023-01-28T05:57:46+00:00</time>
        <ele>1595.0</ele>
      </trkpt>
      <trkpt lat="45.26754" lon="6.01528">
        <time>2023-01-28T05:57:49+00:00</time>
        <ele>1595.0</ele>
      </trkpt>
      <trkpt lat="45.26752" lon="6.01532">
        <time>2023-01-28T05:57:53+00:00</time>
        <ele>1596.0</ele>
      </trkpt>
      <trkpt lat="45.2675" lon="6.01533">
        <time>2023-01-28T05:57:55+00:00</time>
        <ele>1597.0</ele>
      </trkpt>
      <trkpt lat="45.26749" lon="6.01533">
        <time>2023-01-28T05:57:56+00:00</time>
        <ele>1596.0</ele>
      </trkpt>
      <trkpt lat="45.26744" lon="6.0154">
        <time>2023-01-28T05:58:04+00:00</time>
        <ele>1597.0</ele>
      </trkpt>
      <trkpt lat="45.26744" lon="6.01541">
        <time>2023-01-28T05:58:05+00:00</time>
        <ele>1598.0</ele>
      </trkpt>
      <trkpt lat="45.2674" lon="6.01547">
        <time>2023-01-28T05:58:12+00:00</time>
        <ele>1598.0</ele>
      </trkpt>
      <trkpt lat="45.26739" lon="6.01548">
        <time>2023-01-28T05:58:13+00:00</time>
        <ele>1598.0</ele>
      </trkpt>
      <trkpt lat="45.26736" lon="6.01554">
        <time>2023-01-28T05:58:20+00:00</time>
        <ele>1599.0</ele>
      </trkpt>
      <trkpt lat="45.26736" lon="6.01555">
        <time>2023-01-28T05:58:22+00:00</time>
        <ele>1599.0</ele>
      </trkpt>
      <trkpt lat="45.26734" lon="6.01559">
        <time>2023-01-28T05:58:27+00:00</time>
        <ele>1599.0</ele>
      </trkpt>
      <trkpt lat="45.26734" lon="6.01562">
        <time>2023-01-28T05:58:30+00:00</time>
        <ele>1600.0</ele>
      </trkpt>
      <trkpt lat="45.26735" lon="6.01565">
        <time>2023-01-28T05:58:34+00:00</time>
        <ele>1601.0</ele>
      </trkpt>
      <trkpt lat="45.26736" lon="6.01568">
        <time>2023-01-28T05:58:37+00:00</time>
        <ele>1602.0</ele>
      </trkpt>
      <trkpt lat="45.26736" lon="6.01569">
        <time>2023-01-28T05:58:39+00:00</time>
        <ele>1602.0</ele>
      </trkpt>
      <trkpt lat="45.26737" lon="6.0157">
        <time>2023-01-28T05:58:41+00:00</time>
        <ele>1602.0</ele>
      </trkpt>
      <trkpt lat="45.2674" lon="6.01573">
        <time>2023-01-28T05:58:45+00:00</time>
        <ele>1604.0</ele>
      </trkpt>
      <trkpt lat="45.26743" lon="6.01574">
        <time>2023-01-28T05:58:49+00:00</time>
        <ele>1605.0</ele>
      </trkpt>
      <trkpt lat="45.26744" lon="6.01576">
        <time>2023-01-28T05:58:52+00:00</time>
        <ele>1605.0</ele>
      </trkpt>
      <trkpt lat="45.26747" lon="6.01577">
        <time>2023-01-28T05:58:55+00:00</time>
        <ele>1606.0</ele>
      </trkpt>
      <trkpt lat="45.26748" lon="6.01578">
        <time>2023-01-28T05:58:57+00:00</time>
        <ele>1607.0</ele>
      </trkpt>
      <trkpt lat="45.2675" lon="6.01579">
        <time>2023-01-28T05:59:00+00:00</time>
        <ele>1607.0</ele>
      </trkpt>
      <trkpt lat="45.26752" lon="6.01581">
        <time>2023-01-28T05:59:04+00:00</time>
        <ele>1608.0</ele>
      </trkpt>
      <trkpt lat="45.26754" lon="6.01583">
        <time>2023-01-28T05:59:07+00:00</time>
        <ele>1609.0</ele>
      </trkpt>
      <trkpt lat="45.26755" lon="6.01587">
        <time>2023-01-28T05:59:11+00:00</time>
        <ele>1610.0</ele>
      </trkpt>
      <trkpt lat="45.26755" lon="6.01589">
        <time>2023-01-28T05:59:13+00:00</time>
        <ele>1610.0</ele>
      </trkpt>
      <trkpt lat="45.26757" lon="6.01594">
        <time>2023-01-28T05:59:18+00:00</time>
        <ele>1611.0</ele>
      </trkpt>
      <trkpt lat="45.26757" lon="6.01595">
        <time>2023-01-28T05:59:19+00:00</time>
        <ele>1611.0</ele>
      </trkpt>
      <trkpt lat="45.26758" lon="6.01597">
        <time>2023-01-28T05:59:23+00:00</time>
        <ele>1612.0</ele>
      </trkpt>
      <trkpt lat="45.26761" lon="6.01599">
        <time>2023-01-28T05:59:26+00:00</time>
        <ele>1613.0</ele>
      </trkpt>
      <trkpt lat="45.26764" lon="6.01604">
        <time>2023-01-28T05:59:30+00:00</time>
        <ele>1615.0</ele>
      </trkpt>
      <trkpt lat="45.26766" lon="6.01606">
        <time>2023-01-28T05:59:33+00:00</time>
        <ele>1615.0</ele>
      </trkpt>
      <trkpt lat="45.26766" lon="6.01607">
        <time>2023-01-28T05:59:35+00:00</time>
        <ele>1616.0</ele>
      </trkpt>
      <trkpt lat="45.26767" lon="6.01608">
        <time>2023-01-28T05:59:37+00:00</time>
        <ele>1616.0</ele>
      </trkpt>
      <trkpt lat="45.26768" lon="6.0161">
        <time>2023-01-28T05:59:39+00:00</time>
        <ele>1617.0</ele>
      </trkpt>
      <trkpt lat="45.26771" lon="6.01612">
        <time>2023-01-28T05:59:43+00:00</time>
        <ele>1617.0</ele>
      </trkpt>
      <trkpt lat="45.26773" lon="6.01616">
        <time>2023-01-28T05:59:47+00:00</time>
        <ele>1618.0</ele>
      </trkpt>
      <trkpt lat="45.26773" lon="6.01617">
        <time>2023-01-28T05:59:48+00:00</time>
        <ele>1619.0</ele>
      </trkpt>
      <trkpt lat="45.26775" lon="6.01619">
        <time>2023-01-28T05:59:52+00:00</time>
        <ele>1619.0</ele>
      </trkpt>
      <trkpt lat="45.26776" lon="6.01621">
        <time>2023-01-28T05:59:54+00:00</time>
        <ele>1620.0</ele>
      </trkpt>
      <trkpt lat="45.26777" lon="6.01624">
        <time>2023-01-28T05:59:58+00:00</time>
        <ele>1621.0</ele>
      </trkpt>
      <trkpt lat="45.26777" lon="6.01627">
        <time>2023-01-28T06:00:01+00:00</time>
        <ele>1621.0</ele>
      </trkpt>
      <trkpt lat="45.26777" lon="6.01628">
        <time>2023-01-28T06:00:02+00:00</time>
        <ele>1622.0</ele>
      </trkpt>
      <trkpt lat="45.26778" lon="6.0163">
        <time>2023-01-28T06:00:04+00:00</time>
        <ele>1622.0</ele>
      </trkpt>
      <trkpt lat="45.26781" lon="6.01636">
        <time>2023-01-28T06:00:10+00:00</time>
        <ele>1624.0</ele>
      </trkpt>
      <trkpt lat="45.26782" lon="6.01638">
        <time>2023-01-28T06:00:13+00:00</time>
        <ele>1624.0</ele>
      </trkpt>
      <trkpt lat="45.26783" lon="6.0164">
        <time>2023-01-28T06:00:16+00:00</time>
        <ele>1625.0</ele>
      </trkpt>
      <trkpt lat="45.26785" lon="6.01642">
        <time>2023-01-28T06:00:21+00:00</time>
        <ele>1625.0</ele>
      </trkpt>
      <trkpt lat="45.26785" lon="6.01644">
        <time>2023-01-28T06:00:23+00:00</time>
        <ele>1626.0</ele>
      </trkpt>
      <trkpt lat="45.26786" lon="6.01645">
        <time>2023-01-28T06:00:25+00:00</time>
        <ele>1626.0</ele>
      </trkpt>
      <trkpt lat="45.26787" lon="6.01647">
        <time>2023-01-28T06:00:27+00:00</time>
        <ele>1627.0</ele>
      </trkpt>
      <trkpt lat="45.2679" lon="6.01649">
        <time>2023-01-28T06:00:31+00:00</time>
        <ele>1627.0</ele>
      </trkpt>
      <trkpt lat="45.2679" lon="6.0165">
        <time>2023-01-28T06:00:32+00:00</time>
        <ele>1628.0</ele>
      </trkpt>
      <trkpt lat="45.26791" lon="6.01651">
        <time>2023-01-28T06:00:34+00:00</time>
        <ele>1628.0</ele>
      </trkpt>
      <trkpt lat="45.26792" lon="6.01653">
        <time>2023-01-28T06:00:37+00:00</time>
        <ele>1629.0</ele>
      </trkpt>
      <trkpt lat="45.26796" lon="6.01657">
        <time>2023-01-28T06:00:43+00:00</time>
        <ele>1630.0</ele>
      </trkpt>
      <trkpt lat="45.26796" lon="6.01658">
        <time>2023-01-28T06:00:44+00:00</time>
        <ele>1630.0</ele>
      </trkpt>
      <trkpt lat="45.26799" lon="6.0166">
        <time>2023-01-28T06:00:48+00:00</time>
        <ele>1631.0</ele>
      </trkpt>
      <trkpt lat="45.268" lon="6.01661">
        <time>2023-01-28T06:00:50+00:00</time>
        <ele>1631.0</ele>
      </trkpt>
      <trkpt lat="45.26803" lon="6.01663">
        <time>2023-01-28T06:00:53+00:00</time>
        <ele>1632.0</ele>
      </trkpt>
      <trkpt lat="45.26805" lon="6.01665">
        <time>2023-01-28T06:00:56+00:00</time>
        <ele>1633.0</ele>
      </trkpt>
      <trkpt lat="45.26807" lon="6.01667">
        <time>2023-01-28T06:01:00+00:00</time>
        <ele>1634.0</ele>
      </trkpt>
      <trkpt lat="45.26808" lon="6.01668">
        <time>2023-01-28T06:01:02+00:00</time>
        <ele>1634.0</ele>
      </trkpt>
      <trkpt lat="45.26809" lon="6.0167">
        <time>2023-01-28T06:01:06+00:00</time>
        <ele>1635.0</ele>
      </trkpt>
      <trkpt lat="45.26811" lon="6.01671">
        <time>2023-01-28T06:01:09+00:00</time>
        <ele>1635.0</ele>
      </trkpt>
      <trkpt lat="45.26813" lon="6.01672">
        <time>2023-01-28T06:01:12+00:00</time>
        <ele>1635.0</ele>
      </trkpt>
      <trkpt lat="45.26815" lon="6.01673">
        <time>2023-01-28T06:01:14+00:00</time>
        <ele>1636.0</ele>
      </trkpt>
      <trkpt lat="45.26816" lon="6.01674">
        <time>2023-01-28T06:01:16+00:00</time>
        <ele>1636.0</ele>
      </trkpt>
      <trkpt lat="45.2682" lon="6.01676">
        <time>2023-01-28T06:01:22+00:00</time>
        <ele>1637.0</ele>
      </trkpt>
      <trkpt lat="45.26821" lon="6.01679">
        <time>2023-01-28T06:01:25+00:00</time>
        <ele>1638.0</ele>
      </trkpt>
      <trkpt lat="45.26822" lon="6.01683">
        <time>2023-01-28T06:01:29+00:00</time>
        <ele>1639.0</ele>
      </trkpt>
      <trkpt lat="45.26822" lon="6.01684">
        <time>2023-01-28T06:01:30+00:00</time>
        <ele>1640.0</ele>
      </trkpt>
      <trkpt lat="45.26824" lon="6.01688">
        <time>2023-01-28T06:01:34+00:00</time>
        <ele>1641.0</ele>
      </trkpt>
      <trkpt lat="45.26824" lon="6.0169">
        <time>2023-01-28T06:01:36+00:00</time>
        <ele>1642.0</ele>
      </trkpt>
      <trkpt lat="45.26824" lon="6.01692">
        <time>2023-01-28T06:01:39+00:00</time>
        <ele>1643.0</ele>
      </trkpt>
      <trkpt lat="45.26825" lon="6.01696">
        <time>2023-01-28T06:01:44+00:00</time>
        <ele>1644.0</ele>
      </trkpt>
      <trkpt lat="45.26825" lon="6.01696">
        <time>2023-01-28T06:01:45+00:00</time>
        <ele>1644.0</ele>
      </trkpt>
      <trkpt lat="45.26827" lon="6.01697">
        <time>2023-01-28T06:01:47+00:00</time>
        <ele>1644.0</ele>
      </trkpt>
      <trkpt lat="45.26829" lon="6.017">
        <time>2023-01-28T06:01:50+00:00</time>
        <ele>1645.0</ele>
      </trkpt>
      <trkpt lat="45.2683" lon="6.01702">
        <time>2023-01-28T06:01:52+00:00</time>
        <ele>1646.0</ele>
      </trkpt>
      <trkpt lat="45.26831" lon="6.01706">
        <time>2023-01-28T06:01:57+00:00</time>
        <ele>1647.0</ele>
      </trkpt>
      <trkpt lat="45.26834" lon="6.0171">
        <time>2023-01-28T06:02:02+00:00</time>
        <ele>1648.0</ele>
      </trkpt>
      <trkpt lat="45.26834" lon="6.0171">
        <time>2023-01-28T06:02:03+00:00</time>
        <ele>1648.0</ele>
      </trkpt>
      <trkpt lat="45.2684" lon="6.01713">
        <time>2023-01-28T06:02:11+00:00</time>
        <ele>1648.0</ele>
      </trkpt>
      <trkpt lat="45.26841" lon="6.01713">
        <time>2023-01-28T06:02:13+00:00</time>
        <ele>1648.0</ele>
      </trkpt>
      <trkpt lat="45.26842" lon="6.01713">
        <time>2023-01-28T06:02:16+00:00</time>
        <ele>1648.0</ele>
      </trkpt>
      <trkpt lat="45.26845" lon="6.01715">
        <time>2023-01-28T06:02:21+00:00</time>
        <ele>1649.0</ele>
      </trkpt>
      <trkpt lat="45.26846" lon="6.01716">
        <time>2023-01-28T06:02:23+00:00</time>
        <ele>1649.0</ele>
      </trkpt>
      <trkpt lat="45.26848" lon="6.01717">
        <time>2023-01-28T06:02:26+00:00</time>
        <ele>1648.0</ele>
      </trkpt>
      <trkpt lat="45.26851" lon="6.01719">
        <time>2023-01-28T06:02:31+00:00</time>
        <ele>1648.0</ele>
      </trkpt>
      <trkpt lat="45.26855" lon="6.01722">
        <time>2023-01-28T06:02:37+00:00</time>
        <ele>1648.0</ele>
      </trkpt>
      <trkpt lat="45.26855" lon="6.01723">
        <time>2023-01-28T06:02:39+00:00</time>
        <ele>1649.0</ele>
      </trkpt>
      <trkpt lat="45.26858" lon="6.01724">
        <time>2023-01-28T06:02:43+00:00</time>
        <ele>1648.0</ele>
      </trkpt>
      <trkpt lat="45.2686" lon="6.01724">
        <time>2023-01-28T06:02:46+00:00</time>
        <ele>1648.0</ele>
      </trkpt>
      <trkpt lat="45.26863" lon="6.01728">
        <time>2023-01-28T06:02:52+00:00</time>
        <ele>1648.0</ele>
      </trkpt>
      <trkpt lat="45.26866" lon="6.01732">
        <time>2023-01-28T06:02:58+00:00</time>
        <ele>1648.0</ele>
      </trkpt>
      <trkpt lat="45.26868" lon="6.01736">
        <time>2023-01-28T06:03:03+00:00</time>
        <ele>1649.0</ele>
      </trkpt>
      <trkpt lat="45.26868" lon="6.01736">
        <time>2023-01-28T06:03:04+00:00</time>
        <ele>1649.0</ele>
      </trkpt>
      <trkpt lat="45.26871" lon="6.01739">
        <time>2023-01-28T06:03:07+00:00</time>
        <ele>1649.0</ele>
      </trkpt>
      <trkpt lat="45.26872" lon="6.01743">
        <time>2023-01-28T06:03:10+00:00</time>
        <ele>1649.0</ele>
      </trkpt>
      <trkpt lat="45.26874" lon="6.01747">
        <time>2023-01-28T06:03:14+00:00</time>
        <ele>1649.0</ele>
      </trkpt>
      <trkpt lat="45.26877" lon="6.01749">
        <time>2023-01-28T06:03:18+00:00</time>
        <ele>1649.0</ele>
      </trkpt>
      <trkpt lat="45.26878" lon="6.01752">
        <time>2023-01-28T06:03:20+00:00</time>
        <ele>1649.0</ele>
      </trkpt>
      <trkpt lat="45.26878" lon="6.01754">
        <time>2023-01-28T06:03:22+00:00</time>
        <ele>1649.0</ele>
      </trkpt>
      <trkpt lat="45.26878" lon="6.01756">
        <time>2023-01-28T06:03:24+00:00</time>
        <ele>1649.0</ele>
      </trkpt>
      <trkpt lat="45.26878" lon="6.01756">
        <time>2023-01-28T06:03:25+00:00</time>
        <ele>1649.0</ele>
      </trkpt>
      <trkpt lat="45.26878" lon="6.01758">
        <time>2023-01-28T06:03:27+00:00</time>
        <ele>1650.0</ele>
      </trkpt>
      <trkpt lat="45.26876" lon="6.01762">
        <time>2023-01-28T06:03:32+00:00</time>
        <ele>1651.0</ele>
      </trkpt>
      <trkpt lat="45.26872" lon="6.01767">
        <time>2023-01-28T06:03:39+00:00</time>
        <ele>1653.0</ele>
      </trkpt>
      <trkpt lat="45.26871" lon="6.01771">
        <time>2023-01-28T06:03:44+00:00</time>
        <ele>1654.0</ele>
      </trkpt>
      <trkpt lat="45.26869" lon="6.01775">
        <time>2023-01-28T06:03:48+00:00</time>
        <ele>1655.0</ele>
      </trkpt>
      <trkpt lat="45.26868" lon="6.01775">
        <time>2023-01-28T06:03:49+00:00</time>
        <ele>1655.0</ele>
      </trkpt>
      <trkpt lat="45.26864" lon="6.0178">
        <time>2023-01-28T06:03:57+00:00</time>
        <ele>1657.0</ele>
      </trkpt>
      <trkpt lat="45.26861" lon="6.01785">
        <time>2023-01-28T06:04:05+00:00</time>
        <ele>1659.0</ele>
      </trkpt>
      <trkpt lat="45.26855" lon="6.01789">
        <time>2023-01-28T06:04:12+00:00</time>
        <ele>1662.0</ele>
      </trkpt>
      <trkpt lat="45.26855" lon="6.01789">
        <time>2023-01-28T06:04:13+00:00</time>
        <ele>1662.0</ele>
      </trkpt>
      <trkpt lat="45.26852" lon="6.01788">
        <time>2023-01-28T06:04:17+00:00</time>
        <ele>1663.0</ele>
      </trkpt>
      <trkpt lat="45.2685" lon="6.01791">
        <time>2023-01-28T06:04:20+00:00</time>
        <ele>1664.0</ele>
      </trkpt>
      <trkpt lat="45.26845" lon="6.01797">
        <time>2023-01-28T06:04:27+00:00</time>
        <ele>1668.0</ele>
      </trkpt>
      <trkpt lat="45.26845" lon="6.01798">
        <time>2023-01-28T06:04:28+00:00</time>
        <ele>1668.0</ele>
      </trkpt>
      <trkpt lat="45.26844" lon="6.01799">
        <time>2023-01-28T06:04:29+00:00</time>
        <ele>1668.0</ele>
      </trkpt>
      <trkpt lat="45.26837" lon="6.01802">
        <time>2023-01-28T06:04:35+00:00</time>
        <ele>1671.0</ele>
      </trkpt>
      <trkpt lat="45.26836" lon="6.01802">
        <time>2023-01-28T06:04:37+00:00</time>
        <ele>1671.0</ele>
      </trkpt>
      <trkpt lat="45.26835" lon="6.01803">
        <time>2023-01-28T06:04:38+00:00</time>
        <ele>1672.0</ele>
      </trkpt>
      <trkpt lat="45.26833" lon="6.01803">
        <time>2023-01-28T06:04:40+00:00</time>
        <ele>1672.0</ele>
      </trkpt>
      <trkpt lat="45.26832" lon="6.01804">
        <time>2023-01-28T06:04:43+00:00</time>
        <ele>1673.0</ele>
      </trkpt>
      <trkpt lat="45.2683" lon="6.01805">
        <time>2023-01-28T06:04:46+00:00</time>
        <ele>1674.0</ele>
      </trkpt>
      <trkpt lat="45.26829" lon="6.01805">
        <time>2023-01-28T06:04:47+00:00</time>
        <ele>1674.0</ele>
      </trkpt>
      <trkpt lat="45.26827" lon="6.01806">
        <time>2023-01-28T06:04:49+00:00</time>
        <ele>1675.0</ele>
      </trkpt>
      <trkpt lat="45.26826" lon="6.01806">
        <time>2023-01-28T06:04:50+00:00</time>
        <ele>1675.0</ele>
      </trkpt>
      <trkpt lat="45.26824" lon="6.01806">
        <time>2023-01-28T06:04:53+00:00</time>
        <ele>1676.0</ele>
      </trkpt>
      <trkpt lat="45.26822" lon="6.01805">
        <time>2023-01-28T06:04:56+00:00</time>
        <ele>1676.0</ele>
      </trkpt>
      <trkpt lat="45.2682" lon="6.01806">
        <time>2023-01-28T06:04:58+00:00</time>
        <ele>1676.0</ele>
      </trkpt>
      <trkpt lat="45.26817" lon="6.01806">
        <time>2023-01-28T06:05:01+00:00</time>
        <ele>1677.0</ele>
      </trkpt>
      <trkpt lat="45.26813" lon="6.01806">
        <time>2023-01-28T06:05:06+00:00</time>
        <ele>1678.0</ele>
      </trkpt>
      <trkpt lat="45.26812" lon="6.01806">
        <time>2023-01-28T06:05:07+00:00</time>
        <ele>1678.0</ele>
      </trkpt>
      <trkpt lat="45.26808" lon="6.01809">
        <time>2023-01-28T06:05:12+00:00</time>
        <ele>1680.0</ele>
      </trkpt>
      <trkpt lat="45.26806" lon="6.01809">
        <time>2023-01-28T06:05:13+00:00</time>
        <ele>1680.0</ele>
      </trkpt>
      <trkpt lat="45.26803" lon="6.0181">
        <time>2023-01-28T06:05:16+00:00</time>
        <ele>1680.0</ele>
      </trkpt>
      <trkpt lat="45.26799" lon="6.01811">
        <time>2023-01-28T06:05:21+00:00</time>
        <ele>1681.0</ele>
      </trkpt>
      <trkpt lat="45.26795" lon="6.01812">
        <time>2023-01-28T06:05:27+00:00</time>
        <ele>1682.0</ele>
      </trkpt>
      <trkpt lat="45.26792" lon="6.01813">
        <time>2023-01-28T06:05:31+00:00</time>
        <ele>1682.0</ele>
      </trkpt>
      <trkpt lat="45.26786" lon="6.01818">
        <time>2023-01-28T06:05:39+00:00</time>
        <ele>1684.0</ele>
      </trkpt>
      <trkpt lat="45.26785" lon="6.01817">
        <time>2023-01-28T06:05:46+00:00</time>
        <ele>1684.0</ele>
      </trkpt>
      <trkpt lat="45.26783" lon="6.01817">
        <time>2023-01-28T06:05:56+00:00</time>
        <ele>1684.0</ele>
      </trkpt>
      <trkpt lat="45.26782" lon="6.01817">
        <time>2023-01-28T06:05:57+00:00</time>
        <ele>1684.0</ele>
      </trkpt>
      <trkpt lat="45.26783" lon="6.01817">
        <time>2023-01-28T06:06:06+00:00</time>
        <ele>1684.0</ele>
      </trkpt>
      <trkpt lat="45.26783" lon="6.01817">
        <time>2023-01-28T06:06:14+00:00</time>
        <ele>1684.0</ele>
      </trkpt>
      <trkpt lat="45.26784" lon="6.01817">
        <time>2023-01-28T06:06:18+00:00</time>
        <ele>1684.0</ele>
      </trkpt>
      <trkpt lat="45.26784" lon="6.01817">
        <time>2023-01-28T06:06:19+00:00</time>
        <ele>1684.0</ele>
      </trkpt>
      <trkpt lat="45.26784" lon="6.01817">
        <time>2023-01-28T06:06:35+00:00</time>
        <ele>1684.0</ele>
      </trkpt>
      <trkpt lat="45.26785" lon="6.01816">
        <time>2023-01-28T06:06:48+00:00</time>
        <ele>1684.0</ele>
      </trkpt>
      <trkpt lat="45.26785" lon="6.01816">
        <time>2023-01-28T06:06:50+00:00</time>
        <ele>1684.0</ele>
      </trkpt>
      <trkpt lat="45.26785" lon="6.01817">
        <time>2023-01-28T06:06:52+00:00</time>
        <ele>1684.0</ele>
      </trkpt>
      <trkpt lat="45.26785" lon="6.01817">
        <time>2023-01-28T06:06:54+00:00</time>
        <ele>1684.0</ele>
      </trkpt>
      <trkpt lat="45.26785" lon="6.01817">
        <time>2023-01-28T06:06:57+00:00</time>
        <ele>1684.0</ele>
      </trkpt>
      <trkpt lat="45.26785" lon="6.01817">
        <time>2023-01-28T06:06:58+00:00</time>
        <ele>1684.0</ele>
      </trkpt>
      <trkpt lat="45.26785" lon="6.01817">
        <time>2023-01-28T06:07:01+00:00</time>
        <ele>1684.0</ele>
      </trkpt>
      <trkpt lat="45.26785" lon="6.01816">
        <time>2023-01-28T06:07:12+00:00</time>
        <ele>1684.0</ele>
      </trkpt>
      <trkpt lat="45.26785" lon="6.01816">
        <time>2023-01-28T06:07:15+00:00</time>
        <ele>1684.0</ele>
      </trkpt>
      <trkpt lat="45.26785" lon="6.01816">
        <time>2023-01-28T06:07:20+00:00</time>
        <ele>1684.0</ele>
      </trkpt>
      <trkpt lat="45.26784" lon="6.01816">
        <time>2023-01-28T06:07:21+00:00</time>
        <ele>1683.0</ele>
      </trkpt>
      <trkpt lat="45.26784" lon="6.01816">
        <time>2023-01-28T06:07:23+00:00</time>
        <ele>1683.0</ele>
      </trkpt>
      <trkpt lat="45.26784" lon="6.01815">
        <time>2023-01-28T06:07:26+00:00</time>
        <ele>1683.0</ele>
      </trkpt>
      <trkpt lat="45.26784" lon="6.01815">
        <time>2023-01-28T06:07:29+00:00</time>
        <ele>1683.0</ele>
      </trkpt>
      <trkpt lat="45.26784" lon="6.01816">
        <time>2023-01-28T06:07:32+00:00</time>
        <ele>1683.0</ele>
      </trkpt>
      <trkpt lat="45.26784" lon="6.01816">
        <time>2023-01-28T06:07:33+00:00</time>
        <ele>1683.0</ele>
      </trkpt>
      <trkpt lat="45.26784" lon="6.01816">
        <time>2023-01-28T06:07:36+00:00</time>
        <ele>1683.0</ele>
      </trkpt>
      <trkpt lat="45.26784" lon="6.01816">
        <time>2023-01-28T06:07:39+00:00</time>
        <ele>1683.0</ele>
      </trkpt>
      <trkpt lat="45.26784" lon="6.01815">
        <time>2023-01-28T06:07:41+00:00</time>
        <ele>1683.0</ele>
      </trkpt>
      <trkpt lat="45.26784" lon="6.01815">
        <time>2023-01-28T06:07:42+00:00</time>
        <ele>1683.0</ele>
      </trkpt>
      <trkpt lat="45.26784" lon="6.01815">
        <time>2023-01-28T06:07:44+00:00</time>
        <ele>1683.0</ele>
      </trkpt>
      <trkpt lat="45.26784" lon="6.01815">
        <time>2023-01-28T06:07:49+00:00</time>
        <ele>1683.0</ele>
      </trkpt>
      <trkpt lat="45.26783" lon="6.01814">
        <time>2023-01-28T06:07:59+00:00</time>
        <ele>1683.0</ele>
      </trkpt>
      <trkpt lat="45.26782" lon="6.01814">
        <time>2023-01-28T06:08:04+00:00</time>
        <ele>1683.0</ele>
      </trkpt>
      <trkpt lat="45.26782" lon="6.01814">
        <time>2023-01-28T06:08:06+00:00</time>
        <ele>1683.0</ele>
      </trkpt>
      <trkpt lat="45.26782" lon="6.01815">
        <time>2023-01-28T06:08:15+00:00</time>
        <ele>1683.0</ele>
      </trkpt>
      <trkpt lat="45.26782" lon="6.01815">
        <time>2023-01-28T06:08:18+00:00</time>
        <ele>1683.0</ele>
      </trkpt>
      <trkpt lat="45.26782" lon="6.01815">
        <time>2023-01-28T06:08:23+00:00</time>
        <ele>1683.0</ele>
      </trkpt>
      <trkpt lat="45.26784" lon="6.01815">
        <time>2023-01-28T06:08:38+00:00</time>
        <ele>1683.0</ele>
      </trkpt>
      <trkpt lat="45.26784" lon="6.01815">
        <time>2023-01-28T06:08:43+00:00</time>
        <ele>1683.0</ele>
      </trkpt>
      <trkpt lat="45.26785" lon="6.01815">
        <time>2023-01-28T06:08:49+00:00</time>
        <ele>1683.0</ele>
      </trkpt>
      <trkpt lat="45.26786" lon="6.01816">
        <time>2023-01-28T06:08:58+00:00</time>
        <ele>1684.0</ele>
      </trkpt>
      <trkpt lat="45.26787" lon="6.01817">
        <time>2023-01-28T06:09:08+00:00</time>
        <ele>1684.0</ele>
      </trkpt>
      <trkpt lat="45.26787" lon="6.01817">
        <time>2023-01-28T06:09:12+00:00</time>
        <ele>1684.0</ele>
      </trkpt>
      <trkpt lat="45.26787" lon="6.01817">
        <time>2023-01-28T06:09:14+00:00</time>
        <ele>1684.0</ele>
      </trkpt>
      <trkpt lat="45.26787" lon="6.01817">
        <time>2023-01-28T06:09:16+00:00</time>
        <ele>1684.0</ele>
      </trkpt>
      <trkpt lat="45.26787" lon="6.01817">
        <time>2023-01-28T06:09:17+00:00</time>
        <ele>1684.0</ele>
      </trkpt>
      <trkpt lat="45.26787" lon="6.01817">
        <time>2023-01-28T06:09:19+00:00</time>
        <ele>1684.0</ele>
      </trkpt>
      <trkpt lat="45.26787" lon="6.01817">
        <time>2023-01-28T06:09:21+00:00</time>
        <ele>1684.0</ele>
      </trkpt>
      <trkpt lat="45.26787" lon="6.01817">
        <time>2023-01-28T06:09:24+00:00</time>
        <ele>1684.0</ele>
      </trkpt>
      <trkpt lat="45.26787" lon="6.01817">
        <time>2023-01-28T06:09:26+00:00</time>
        <ele>1684.0</ele>
      </trkpt>
      <trkpt lat="45.26787" lon="6.01817">
        <time>2023-01-28T06:09:42+00:00</time>
        <ele>1684.0</ele>
      </trkpt>
      <trkpt lat="45.26787" lon="6.01817">
        <time>2023-01-28T06:09:53+00:00</time>
        <ele>1684.0</ele>
      </trkpt>
      <trkpt lat="45.26787" lon="6.01817">
        <time>2023-01-28T06:10:02+00:00</time>
        <ele>1684.0</ele>
      </trkpt>
      <trkpt lat="45.26787" lon="6.01817">
        <time>2023-01-28T06:10:06+00:00</time>
        <ele>1684.0</ele>
      </trkpt>
      <trkpt lat="45.26787" lon="6.01818">
        <time>2023-01-28T06:10:09+00:00</time>
        <ele>1684.0</ele>
      </trkpt>
      <trkpt lat="45.26788" lon="6.01821">
        <time>2023-01-28T06:10:12+00:00</time>
        <ele>1685.0</ele>
      </trkpt>
      <trkpt lat="45.2679" lon="6.01823">
        <time>2023-01-28T06:10:14+00:00</time>
        <ele>1685.0</ele>
      </trkpt>
      <trkpt lat="45.26793" lon="6.01829">
        <time>2023-01-28T06:10:18+00:00</time>
        <ele>1686.0</ele>
      </trkpt>
      <trkpt lat="45.26795" lon="6.01832">
        <time>2023-01-28T06:10:20+00:00</time>
        <ele>1687.0</ele>
      </trkpt>
      <trkpt lat="45.26799" lon="6.01837">
        <time>2023-01-28T06:10:27+00:00</time>
        <ele>1687.0</ele>
      </trkpt>
      <trkpt lat="45.26799" lon="6.01838">
        <time>2023-01-28T06:10:28+00:00</time>
        <ele>1688.0</ele>
      </trkpt>
      <trkpt lat="45.268" lon="6.0184">
        <time>2023-01-28T06:10:30+00:00</time>
        <ele>1688.0</ele>
      </trkpt>
      <trkpt lat="45.26801" lon="6.0184">
        <time>2023-01-28T06:10:31+00:00</time>
        <ele>1688.0</ele>
      </trkpt>
      <trkpt lat="45.26803" lon="6.01841">
        <time>2023-01-28T06:10:33+00:00</time>
        <ele>1688.0</ele>
      </trkpt>
      <trkpt lat="45.26805" lon="6.01843">
        <time>2023-01-28T06:10:36+00:00</time>
        <ele>1688.0</ele>
      </trkpt>
      <trkpt lat="45.26806" lon="6.01843">
        <time>2023-01-28T06:10:38+00:00</time>
        <ele>1687.0</ele>
      </trkpt>
      <trkpt lat="45.26806" lon="6.01844">
        <time>2023-01-28T06:10:40+00:00</time>
        <ele>1688.0</ele>
      </trkpt>
      <trkpt lat="45.26807" lon="6.01849">
        <time>2023-01-28T06:10:44+00:00</time>
        <ele>1688.0</ele>
      </trkpt>
      <trkpt lat="45.26808" lon="6.01851">
        <time>2023-01-28T06:10:46+00:00</time>
        <ele>1689.0</ele>
      </trkpt>
      <trkpt lat="45.26808" lon="6.01852">
        <time>2023-01-28T06:10:47+00:00</time>
        <ele>1689.0</ele>
      </trkpt>
      <trkpt lat="45.26809" lon="6.0186">
        <time>2023-01-28T06:10:52+00:00</time>
        <ele>1690.0</ele>
      </trkpt>
      <trkpt lat="45.2681" lon="6.01862">
        <time>2023-01-28T06:10:54+00:00</time>
        <ele>1690.0</ele>
      </trkpt>
      <trkpt lat="45.2681" lon="6.01865">
        <time>2023-01-28T06:10:57+00:00</time>
        <ele>1691.0</ele>
      </trkpt>
      <trkpt lat="45.26809" lon="6.01868">
        <time>2023-01-28T06:11:01+00:00</time>
        <ele>1692.0</ele>
      </trkpt>
      <trkpt lat="45.26808" lon="6.0187">
        <time>2023-01-28T06:11:03+00:00</time>
        <ele>1692.0</ele>
      </trkpt>
      <trkpt lat="45.26808" lon="6.01871">
        <time>2023-01-28T06:11:06+00:00</time>
        <ele>1692.0</ele>
      </trkpt>
      <trkpt lat="45.26807" lon="6.01872">
        <time>2023-01-28T06:11:08+00:00</time>
        <ele>1693.0</ele>
      </trkpt>
      <trkpt lat="45.26807" lon="6.01873">
        <time>2023-01-28T06:11:09+00:00</time>
        <ele>1693.0</ele>
      </trkpt>
      <trkpt lat="45.26805" lon="6.01875">
        <time>2023-01-28T06:11:11+00:00</time>
        <ele>1694.0</ele>
      </trkpt>
      <trkpt lat="45.26803" lon="6.01876">
        <time>2023-01-28T06:11:13+00:00</time>
        <ele>1694.0</ele>
      </trkpt>
      <trkpt lat="45.26802" lon="6.01876">
        <time>2023-01-28T06:11:14+00:00</time>
        <ele>1695.0</ele>
      </trkpt>
      <trkpt lat="45.26802" lon="6.01875">
        <time>2023-01-28T06:11:15+00:00</time>
        <ele>1694.0</ele>
      </trkpt>
      <trkpt lat="45.26802" lon="6.01877">
        <time>2023-01-28T06:11:20+00:00</time>
        <ele>1695.0</ele>
      </trkpt>
      <trkpt lat="45.26801" lon="6.01877">
        <time>2023-01-28T06:11:21+00:00</time>
        <ele>1695.0</ele>
      </trkpt>
      <trkpt lat="45.268" lon="6.01879">
        <time>2023-01-28T06:11:24+00:00</time>
        <ele>1696.0</ele>
      </trkpt>
      <trkpt lat="45.26799" lon="6.01879">
        <time>2023-01-28T06:11:25+00:00</time>
        <ele>1696.0</ele>
      </trkpt>
      <trkpt lat="45.26797" lon="6.01882">
        <time>2023-01-28T06:11:29+00:00</time>
        <ele>1697.0</ele>
      </trkpt>
      <trkpt lat="45.26797" lon="6.01882">
        <time>2023-01-28T06:11:30+00:00</time>
        <ele>1697.0</ele>
      </trkpt>
      <trkpt lat="45.26795" lon="6.01886">
        <time>2023-01-28T06:11:34+00:00</time>
        <ele>1698.0</ele>
      </trkpt>
      <trkpt lat="45.26794" lon="6.01888">
        <time>2023-01-28T06:11:37+00:00</time>
        <ele>1699.0</ele>
      </trkpt>
      <trkpt lat="45.26793" lon="6.01889">
        <time>2023-01-28T06:11:38+00:00</time>
        <ele>1700.0</ele>
      </trkpt>
      <trkpt lat="45.26791" lon="6.01892">
        <time>2023-01-28T06:11:42+00:00</time>
        <ele>1701.0</ele>
      </trkpt>
      <trkpt lat="45.26788" lon="6.01894">
        <time>2023-01-28T06:11:45+00:00</time>
        <ele>1702.0</ele>
      </trkpt>
      <trkpt lat="45.26787" lon="6.01896">
        <time>2023-01-28T06:11:47+00:00</time>
        <ele>1703.0</ele>
      </trkpt>
      <trkpt lat="45.26787" lon="6.01899">
        <time>2023-01-28T06:11:50+00:00</time>
        <ele>1704.0</ele>
      </trkpt>
      <trkpt lat="45.26787" lon="6.019">
        <time>2023-01-28T06:11:51+00:00</time>
        <ele>1704.0</ele>
      </trkpt>
      <trkpt lat="45.26788" lon="6.01901">
        <time>2023-01-28T06:11:52+00:00</time>
        <ele>1704.0</ele>
      </trkpt>
      <trkpt lat="45.26788" lon="6.01903">
        <time>2023-01-28T06:11:53+00:00</time>
        <ele>1705.0</ele>
      </trkpt>
      <trkpt lat="45.26788" lon="6.01907">
        <time>2023-01-28T06:11:57+00:00</time>
        <ele>1706.0</ele>
      </trkpt>
      <trkpt lat="45.26785" lon="6.01911">
        <time>2023-01-28T06:12:02+00:00</time>
        <ele>1708.0</ele>
      </trkpt>
      <trkpt lat="45.26785" lon="6.01912">
        <time>2023-01-28T06:12:03+00:00</time>
        <ele>1708.0</ele>
      </trkpt>
      <trkpt lat="45.26782" lon="6.01914">
        <time>2023-01-28T06:12:07+00:00</time>
        <ele>1709.0</ele>
      </trkpt>
      <trkpt lat="45.26782" lon="6.01915">
        <time>2023-01-28T06:12:08+00:00</time>
        <ele>1709.0</ele>
      </trkpt>
      <trkpt lat="45.26781" lon="6.01916">
        <time>2023-01-28T06:12:09+00:00</time>
        <ele>1710.0</ele>
      </trkpt>
      <trkpt lat="45.26779" lon="6.01918">
        <time>2023-01-28T06:12:13+00:00</time>
        <ele>1710.0</ele>
      </trkpt>
      <trkpt lat="45.26778" lon="6.0192">
        <time>2023-01-28T06:12:17+00:00</time>
        <ele>1711.0</ele>
      </trkpt>
      <trkpt lat="45.26777" lon="6.01921">
        <time>2023-01-28T06:12:19+00:00</time>
        <ele>1712.0</ele>
      </trkpt>
      <trkpt lat="45.26776" lon="6.01924">
        <time>2023-01-28T06:12:22+00:00</time>
        <ele>1713.0</ele>
      </trkpt>
      <trkpt lat="45.26776" lon="6.01925">
        <time>2023-01-28T06:12:24+00:00</time>
        <ele>1713.0</ele>
      </trkpt>
      <trkpt lat="45.26775" lon="6.01927">
        <time>2023-01-28T06:12:27+00:00</time>
        <ele>1714.0</ele>
      </trkpt>
      <trkpt lat="45.26775" lon="6.01929">
        <time>2023-01-28T06:12:30+00:00</time>
        <ele>1715.0</ele>
      </trkpt>
      <trkpt lat="45.26775" lon="6.01931">
        <time>2023-01-28T06:12:32+00:00</time>
        <ele>1716.0</ele>
      </trkpt>
      <trkpt lat="45.26774" lon="6.01932">
        <time>2023-01-28T06:12:33+00:00</time>
        <ele>1716.0</ele>
      </trkpt>
      <trkpt lat="45.26773" lon="6.01936">
        <time>2023-01-28T06:12:37+00:00</time>
        <ele>1717.0</ele>
      </trkpt>
      <trkpt lat="45.26773" lon="6.01937">
        <time>2023-01-28T06:12:38+00:00</time>
        <ele>1718.0</ele>
      </trkpt>
      <trkpt lat="45.26772" lon="6.0194">
        <time>2023-01-28T06:12:43+00:00</time>
        <ele>1719.0</ele>
      </trkpt>
      <trkpt lat="45.26771" lon="6.01942">
        <time>2023-01-28T06:12:45+00:00</time>
        <ele>1720.0</ele>
      </trkpt>
      <trkpt lat="45.2677" lon="6.01945">
        <time>2023-01-28T06:12:48+00:00</time>
        <ele>1721.0</ele>
      </trkpt>
      <trkpt lat="45.26768" lon="6.01947">
        <time>2023-01-28T06:12:51+00:00</time>
        <ele>1722.0</ele>
      </trkpt>
      <trkpt lat="45.26768" lon="6.01949">
        <time>2023-01-28T06:12:53+00:00</time>
        <ele>1722.0</ele>
      </trkpt>
      <trkpt lat="45.26767" lon="6.01954">
        <time>2023-01-28T06:12:58+00:00</time>
        <ele>1724.0</ele>
      </trkpt>
      <trkpt lat="45.26768" lon="6.01957">
        <time>2023-01-28T06:13:02+00:00</time>
        <ele>1725.0</ele>
      </trkpt>
      <trkpt lat="45.26768" lon="6.01958">
        <time>2023-01-28T06:13:03+00:00</time>
        <ele>1725.0</ele>
      </trkpt>
      <trkpt lat="45.26768" lon="6.01963">
        <time>2023-01-28T06:13:07+00:00</time>
        <ele>1726.0</ele>
      </trkpt>
      <trkpt lat="45.2677" lon="6.01967">
        <time>2023-01-28T06:13:12+00:00</time>
        <ele>1728.0</ele>
      </trkpt>
      <trkpt lat="45.26771" lon="6.0197">
        <time>2023-01-28T06:13:14+00:00</time>
        <ele>1729.0</ele>
      </trkpt>
      <trkpt lat="45.26772" lon="6.0197">
        <time>2023-01-28T06:13:15+00:00</time>
        <ele>1729.0</ele>
      </trkpt>
      <trkpt lat="45.26773" lon="6.01972">
        <time>2023-01-28T06:13:17+00:00</time>
        <ele>1729.0</ele>
      </trkpt>
      <trkpt lat="45.26775" lon="6.01977">
        <time>2023-01-28T06:13:23+00:00</time>
        <ele>1730.0</ele>
      </trkpt>
      <trkpt lat="45.26775" lon="6.01979">
        <time>2023-01-28T06:13:25+00:00</time>
        <ele>1731.0</ele>
      </trkpt>
      <trkpt lat="45.26775" lon="6.01982">
        <time>2023-01-28T06:13:28+00:00</time>
        <ele>1732.0</ele>
      </trkpt>
      <trkpt lat="45.26777" lon="6.01986">
        <time>2023-01-28T06:13:32+00:00</time>
        <ele>1733.0</ele>
      </trkpt>
      <trkpt lat="45.26777" lon="6.01987">
        <time>2023-01-28T06:13:34+00:00</time>
        <ele>1733.0</ele>
      </trkpt>
      <trkpt lat="45.26777" lon="6.01988">
        <time>2023-01-28T06:13:35+00:00</time>
        <ele>1733.0</ele>
      </trkpt>
      <trkpt lat="45.26777" lon="6.01991">
        <time>2023-01-28T06:13:37+00:00</time>
        <ele>1734.0</ele>
      </trkpt>
      <trkpt lat="45.26778" lon="6.01992">
        <time>2023-01-28T06:13:39+00:00</time>
        <ele>1734.0</ele>
      </trkpt>
      <trkpt lat="45.2678" lon="6.01999">
        <time>2023-01-28T06:13:45+00:00</time>
        <ele>1736.0</ele>
      </trkpt>
      <trkpt lat="45.2678" lon="6.02">
        <time>2023-01-28T06:13:46+00:00</time>
        <ele>1736.0</ele>
      </trkpt>
      <trkpt lat="45.2678" lon="6.02007">
        <time>2023-01-28T06:13:52+00:00</time>
        <ele>1738.0</ele>
      </trkpt>
      <trkpt lat="45.2678" lon="6.0201">
        <time>2023-01-28T06:13:55+00:00</time>
        <ele>1738.0</ele>
      </trkpt>
      <trkpt lat="45.26781" lon="6.02013">
        <time>2023-01-28T06:13:58+00:00</time>
        <ele>1739.0</ele>
      </trkpt>
      <trkpt lat="45.26784" lon="6.0202">
        <time>2023-01-28T06:14:04+00:00</time>
        <ele>1740.0</ele>
      </trkpt>
      <trkpt lat="45.26784" lon="6.02021">
        <time>2023-01-28T06:14:05+00:00</time>
        <ele>1740.0</ele>
      </trkpt>
      <trkpt lat="45.26786" lon="6.02026">
        <time>2023-01-28T06:14:10+00:00</time>
        <ele>1741.0</ele>
      </trkpt>
      <trkpt lat="45.26786" lon="6.02031">
        <time>2023-01-28T06:14:14+00:00</time>
        <ele>1742.0</ele>
      </trkpt>
      <trkpt lat="45.26786" lon="6.02034">
        <time>2023-01-28T06:14:16+00:00</time>
        <ele>1743.0</ele>
      </trkpt>
      <trkpt lat="45.26786" lon="6.02039">
        <time>2023-01-28T06:14:21+00:00</time>
        <ele>1743.0</ele>
      </trkpt>
      <trkpt lat="45.26786" lon="6.02045">
        <time>2023-01-28T06:14:26+00:00</time>
        <ele>1744.0</ele>
      </trkpt>
      <trkpt lat="45.26786" lon="6.02046">
        <time>2023-01-28T06:14:27+00:00</time>
        <ele>1744.0</ele>
      </trkpt>
      <trkpt lat="45.26787" lon="6.02055">
        <time>2023-01-28T06:14:34+00:00</time>
        <ele>1746.0</ele>
      </trkpt>
      <trkpt lat="45.26787" lon="6.02058">
        <time>2023-01-28T06:14:37+00:00</time>
        <ele>1746.0</ele>
      </trkpt>
      <trkpt lat="45.26787" lon="6.0206">
        <time>2023-01-28T06:14:39+00:00</time>
        <ele>1746.0</ele>
      </trkpt>
      <trkpt lat="45.26784" lon="6.02065">
        <time>2023-01-28T06:14:44+00:00</time>
        <ele>1747.0</ele>
      </trkpt>
      <trkpt lat="45.26782" lon="6.0207">
        <time>2023-01-28T06:14:48+00:00</time>
        <ele>1747.0</ele>
      </trkpt>
      <trkpt lat="45.26782" lon="6.02071">
        <time>2023-01-28T06:14:49+00:00</time>
        <ele>1748.0</ele>
      </trkpt>
      <trkpt lat="45.26781" lon="6.02077">
        <time>2023-01-28T06:14:54+00:00</time>
        <ele>1748.0</ele>
      </trkpt>
      <trkpt lat="45.26779" lon="6.02084">
        <time>2023-01-28T06:15:00+00:00</time>
        <ele>1749.0</ele>
      </trkpt>
      <trkpt lat="45.26778" lon="6.02085">
        <time>2023-01-28T06:15:01+00:00</time>
        <ele>1749.0</ele>
      </trkpt>
      <trkpt lat="45.26774" lon="6.02089">
        <time>2023-01-28T06:15:06+00:00</time>
        <ele>1750.0</ele>
      </trkpt>
      <trkpt lat="45.2677" lon="6.02092">
        <time>2023-01-28T06:15:10+00:00</time>
        <ele>1750.0</ele>
      </trkpt>
      <trkpt lat="45.2677" lon="6.02093">
        <time>2023-01-28T06:15:11+00:00</time>
        <ele>1750.0</ele>
      </trkpt>
      <trkpt lat="45.26766" lon="6.02096">
        <time>2023-01-28T06:15:15+00:00</time>
        <ele>1751.0</ele>
      </trkpt>
      <trkpt lat="45.26766" lon="6.02097">
        <time>2023-01-28T06:15:16+00:00</time>
        <ele>1751.0</ele>
      </trkpt>
      <trkpt lat="45.26762" lon="6.021">
        <time>2023-01-28T06:15:21+00:00</time>
        <ele>1751.0</ele>
      </trkpt>
      <trkpt lat="45.26761" lon="6.02102">
        <time>2023-01-28T06:15:23+00:00</time>
        <ele>1751.0</ele>
      </trkpt>
      <trkpt lat="45.26759" lon="6.02105">
        <time>2023-01-28T06:15:26+00:00</time>
        <ele>1752.0</ele>
      </trkpt>
      <trkpt lat="45.26755" lon="6.02112">
        <time>2023-01-28T06:15:33+00:00</time>
        <ele>1752.0</ele>
      </trkpt>
      <trkpt lat="45.26754" lon="6.02113">
        <time>2023-01-28T06:15:35+00:00</time>
        <ele>1752.0</ele>
      </trkpt>
      <trkpt lat="45.26753" lon="6.02116">
        <time>2023-01-28T06:15:38+00:00</time>
        <ele>1752.0</ele>
      </trkpt>
      <trkpt lat="45.26751" lon="6.02121">
        <time>2023-01-28T06:15:42+00:00</time>
        <ele>1753.0</ele>
      </trkpt>
      <trkpt lat="45.26749" lon="6.02124">
        <time>2023-01-28T06:15:45+00:00</time>
        <ele>1753.0</ele>
      </trkpt>
      <trkpt lat="45.26749" lon="6.02125">
        <time>2023-01-28T06:15:47+00:00</time>
        <ele>1753.0</ele>
      </trkpt>
      <trkpt lat="45.26749" lon="6.02125">
        <time>2023-01-28T06:15:48+00:00</time>
        <ele>1753.0</ele>
      </trkpt>
      <trkpt lat="45.26748" lon="6.02129">
        <time>2023-01-28T06:15:53+00:00</time>
        <ele>1753.0</ele>
      </trkpt>
      <trkpt lat="45.26748" lon="6.02131">
        <time>2023-01-28T06:15:54+00:00</time>
        <ele>1753.0</ele>
      </trkpt>
      <trkpt lat="45.26747" lon="6.02132">
        <time>2023-01-28T06:15:55+00:00</time>
        <ele>1752.0</ele>
      </trkpt>
      <trkpt lat="45.26745" lon="6.02142">
        <time>2023-01-28T06:16:01+00:00</time>
        <ele>1752.0</ele>
      </trkpt>
      <trkpt lat="45.26745" lon="6.02146">
        <time>2023-01-28T06:16:03+00:00</time>
        <ele>1752.0</ele>
      </trkpt>
      <trkpt lat="45.26743" lon="6.02149">
        <time>2023-01-28T06:16:05+00:00</time>
        <ele>1751.0</ele>
      </trkpt>
      <trkpt lat="45.26743" lon="6.02153">
        <time>2023-01-28T06:16:07+00:00</time>
        <ele>1751.0</ele>
      </trkpt>
      <trkpt lat="45.26742" lon="6.0216">
        <time>2023-01-28T06:16:11+00:00</time>
        <ele>1751.0</ele>
      </trkpt>
      <trkpt lat="45.26742" lon="6.02165">
        <time>2023-01-28T06:16:13+00:00</time>
        <ele>1750.0</ele>
      </trkpt>
      <trkpt lat="45.26741" lon="6.02169">
        <time>2023-01-28T06:16:15+00:00</time>
        <ele>1750.0</ele>
      </trkpt>
      <trkpt lat="45.26739" lon="6.02187">
        <time>2023-01-28T06:16:21+00:00</time>
        <ele>1750.0</ele>
      </trkpt>
      <trkpt lat="45.26739" lon="6.0219">
        <time>2023-01-28T06:16:22+00:00</time>
        <ele>1750.0</ele>
      </trkpt>
      <trkpt lat="45.26736" lon="6.02208">
        <time>2023-01-28T06:16:30+00:00</time>
        <ele>1749.0</ele>
      </trkpt>
      <trkpt lat="45.26735" lon="6.02214">
        <time>2023-01-28T06:16:33+00:00</time>
        <ele>1749.0</ele>
      </trkpt>
      <trkpt lat="45.26735" lon="6.02224">
        <time>2023-01-28T06:16:38+00:00</time>
        <ele>1748.0</ele>
      </trkpt>
      <trkpt lat="45.26735" lon="6.02236">
        <time>2023-01-28T06:16:44+00:00</time>
        <ele>1748.0</ele>
      </trkpt>
      <trkpt lat="45.26734" lon="6.0224">
        <time>2023-01-28T06:16:46+00:00</time>
        <ele>1748.0</ele>
      </trkpt>
      <trkpt lat="45.26734" lon="6.02242">
        <time>2023-01-28T06:16:47+00:00</time>
        <ele>1748.0</ele>
      </trkpt>
      <trkpt lat="45.26733" lon="6.02261">
        <time>2023-01-28T06:16:55+00:00</time>
        <ele>1748.0</ele>
      </trkpt>
      <trkpt lat="45.26733" lon="6.02277">
        <time>2023-01-28T06:17:04+00:00</time>
        <ele>1748.0</ele>
      </trkpt>
      <trkpt lat="45.26733" lon="6.02278">
        <time>2023-01-28T06:17:10+00:00</time>
        <ele>1748.0</ele>
      </trkpt>
      <trkpt lat="45.26732" lon="6.02278">
        <time>2023-01-28T06:17:30+00:00</time>
        <ele>1748.0</ele>
      </trkpt>
      <trkpt lat="45.26732" lon="6.02278">
        <time>2023-01-28T06:17:34+00:00</time>
        <ele>1748.0</ele>
      </trkpt>
      <trkpt lat="45.26732" lon="6.02279">
        <time>2023-01-28T06:17:40+00:00</time>
        <ele>1748.0</ele>
      </trkpt>
      <trkpt lat="45.26732" lon="6.0228">
        <time>2023-01-28T06:17:41+00:00</time>
        <ele>1748.0</ele>
      </trkpt>
      <trkpt lat="45.26733" lon="6.02285">
        <time>2023-01-28T06:17:43+00:00</time>
        <ele>1748.0</ele>
      </trkpt>
      <trkpt lat="45.26732" lon="6.0229">
        <time>2023-01-28T06:17:45+00:00</time>
        <ele>1748.0</ele>
      </trkpt>
      <trkpt lat="45.26731" lon="6.02298">
        <time>2023-01-28T06:17:48+00:00</time>
        <ele>1748.0</ele>
      </trkpt>
      <trkpt lat="45.26731" lon="6.02304">
        <time>2023-01-28T06:17:51+00:00</time>
        <ele>1748.0</ele>
      </trkpt>
      <trkpt lat="45.2673" lon="6.02312">
        <time>2023-01-28T06:17:56+00:00</time>
        <ele>1748.0</ele>
      </trkpt>
      <trkpt lat="45.26729" lon="6.02327">
        <time>2023-01-28T06:18:04+00:00</time>
        <ele>1749.0</ele>
      </trkpt>
      <trkpt lat="45.26729" lon="6.02328">
        <time>2023-01-28T06:18:05+00:00</time>
        <ele>1749.0</ele>
      </trkpt>
      <trkpt lat="45.2673" lon="6.02337">
        <time>2023-01-28T06:18:11+00:00</time>
        <ele>1750.0</ele>
      </trkpt>
      <trkpt lat="45.26729" lon="6.02347">
        <time>2023-01-28T06:18:18+00:00</time>
        <ele>1750.0</ele>
      </trkpt>
      <trkpt lat="45.26729" lon="6.0235">
        <time>2023-01-28T06:18:20+00:00</time>
        <ele>1750.0</ele>
      </trkpt>
      <trkpt lat="45.2673" lon="6.0237">
        <time>2023-01-28T06:18:31+00:00</time>
        <ele>1753.0</ele>
      </trkpt>
      <trkpt lat="45.2673" lon="6.02375">
        <time>2023-01-28T06:18:34+00:00</time>
        <ele>1753.0</ele>
      </trkpt>
      <trkpt lat="45.2673" lon="6.02384">
        <time>2023-01-28T06:18:40+00:00</time>
        <ele>1754.0</ele>
      </trkpt>
      <trkpt lat="45.26731" lon="6.02393">
        <time>2023-01-28T06:18:46+00:00</time>
        <ele>1756.0</ele>
      </trkpt>
      <trkpt lat="45.26732" lon="6.024">
        <time>2023-01-28T06:18:51+00:00</time>
        <ele>1757.0</ele>
      </trkpt>
      <trkpt lat="45.26732" lon="6.02401">
        <time>2023-01-28T06:18:52+00:00</time>
        <ele>1757.0</ele>
      </trkpt>
      <trkpt lat="45.26733" lon="6.02407">
        <time>2023-01-28T06:18:57+00:00</time>
        <ele>1757.0</ele>
      </trkpt>
      <trkpt lat="45.26734" lon="6.02415">
        <time>2023-01-28T06:19:02+00:00</time>
        <ele>1757.0</ele>
      </trkpt>
      <trkpt lat="45.26734" lon="6.02419">
        <time>2023-01-28T06:19:05+00:00</time>
        <ele>1758.0</ele>
      </trkpt>
      <trkpt lat="45.26734" lon="6.02428">
        <time>2023-01-28T06:19:11+00:00</time>
        <ele>1758.0</ele>
      </trkpt>
      <trkpt lat="45.26733" lon="6.02437">
        <time>2023-01-28T06:19:17+00:00</time>
        <ele>1758.0</ele>
      </trkpt>
      <trkpt lat="45.26732" lon="6.02442">
        <time>2023-01-28T06:19:21+00:00</time>
        <ele>1759.0</ele>
      </trkpt>
      <trkpt lat="45.26728" lon="6.02452">
        <time>2023-01-28T06:19:29+00:00</time>
        <ele>1759.0</ele>
      </trkpt>
      <trkpt lat="45.26724" lon="6.02462">
        <time>2023-01-28T06:19:35+00:00</time>
        <ele>1760.0</ele>
      </trkpt>
      <trkpt lat="45.2672" lon="6.02468">
        <time>2023-01-28T06:19:39+00:00</time>
        <ele>1760.0</ele>
      </trkpt>
      <trkpt lat="45.26714" lon="6.02482">
        <time>2023-01-28T06:19:48+00:00</time>
        <ele>1761.0</ele>
      </trkpt>
      <trkpt lat="45.26714" lon="6.02484">
        <time>2023-01-28T06:19:49+00:00</time>
        <ele>1761.0</ele>
      </trkpt>
      <trkpt lat="45.26712" lon="6.02488">
        <time>2023-01-28T06:19:53+00:00</time>
        <ele>1761.0</ele>
      </trkpt>
      <trkpt lat="45.26709" lon="6.02497">
        <time>2023-01-28T06:20:00+00:00</time>
        <ele>1761.0</ele>
      </trkpt>
      <trkpt lat="45.26707" lon="6.02506">
        <time>2023-01-28T06:20:06+00:00</time>
        <ele>1762.0</ele>
      </trkpt>
      <trkpt lat="45.26706" lon="6.02516">
        <time>2023-01-28T06:20:12+00:00</time>
        <ele>1762.0</ele>
      </trkpt>
      <trkpt lat="45.26705" lon="6.02528">
        <time>2023-01-28T06:20:20+00:00</time>
        <ele>1763.0</ele>
      </trkpt>
      <trkpt lat="45.26704" lon="6.02534">
        <time>2023-01-28T06:20:24+00:00</time>
        <ele>1763.0</ele>
      </trkpt>
      <trkpt lat="45.26701" lon="6.02547">
        <time>2023-01-28T06:20:31+00:00</time>
        <ele>1764.0</ele>
      </trkpt>
      <trkpt lat="45.26701" lon="6.02551">
        <time>2023-01-28T06:20:34+00:00</time>
        <ele>1764.0</ele>
      </trkpt>
      <trkpt lat="45.26698" lon="6.02559">
        <time>2023-01-28T06:20:40+00:00</time>
        <ele>1765.0</ele>
      </trkpt>
      <trkpt lat="45.26698" lon="6.0256">
        <time>2023-01-28T06:20:41+00:00</time>
        <ele>1765.0</ele>
      </trkpt>
      <trkpt lat="45.26697" lon="6.02565">
        <time>2023-01-28T06:20:45+00:00</time>
        <ele>1766.0</ele>
      </trkpt>
      <trkpt lat="45.26696" lon="6.0257">
        <time>2023-01-28T06:20:49+00:00</time>
        <ele>1766.0</ele>
      </trkpt>
      <trkpt lat="45.26693" lon="6.0258">
        <time>2023-01-28T06:20:58+00:00</time>
        <ele>1767.0</ele>
      </trkpt>
      <trkpt lat="45.26692" lon="6.02583">
        <time>2023-01-28T06:21:01+00:00</time>
        <ele>1768.0</ele>
      </trkpt>
      <trkpt lat="45.26692" lon="6.02584">
        <time>2023-01-28T06:21:03+00:00</time>
        <ele>1768.0</ele>
      </trkpt>
      <trkpt lat="45.26692" lon="6.02584">
        <time>2023-01-28T06:21:05+00:00</time>
        <ele>1768.0</ele>
      </trkpt>
      <trkpt lat="45.26692" lon="6.02584">
        <time>2023-01-28T06:21:06+00:00</time>
        <ele>1768.0</ele>
      </trkpt>
      <trkpt lat="45.26692" lon="6.02584">
        <time>2023-01-28T06:21:17+00:00</time>
        <ele>1768.0</ele>
      </trkpt>
      <trkpt lat="45.26692" lon="6.02584">
        <time>2023-01-28T06:21:19+00:00</time>
        <ele>1768.0</ele>
      </trkpt>
      <trkpt lat="45.26692" lon="6.02584">
        <time>2023-01-28T06:21:20+00:00</time>
        <ele>1768.0</ele>
      </trkpt>
      <trkpt lat="45.26692" lon="6.02584">
        <time>2023-01-28T06:21:29+00:00</time>
        <ele>1768.0</ele>
      </trkpt>
      <trkpt lat="45.26692" lon="6.02584">
        <time>2023-01-28T06:21:32+00:00</time>
        <ele>1768.0</ele>
      </trkpt>
      <trkpt lat="45.26692" lon="6.02584">
        <time>2023-01-28T06:21:34+00:00</time>
        <ele>1768.0</ele>
      </trkpt>
      <trkpt lat="45.26692" lon="6.02584">
        <time>2023-01-28T06:21:37+00:00</time>
        <ele>1768.0</ele>
      </trkpt>
      <trkpt lat="45.26693" lon="6.02584">
        <time>2023-01-28T06:21:48+00:00</time>
        <ele>1768.0</ele>
      </trkpt>
      <trkpt lat="45.26693" lon="6.02583">
        <time>2023-01-28T06:22:01+00:00</time>
        <ele>1768.0</ele>
      </trkpt>
      <trkpt lat="45.26694" lon="6.02583">
        <time>2023-01-28T06:22:04+00:00</time>
        <ele>1767.0</ele>
      </trkpt>
      <trkpt lat="45.26694" lon="6.02583">
        <time>2023-01-28T06:22:06+00:00</time>
        <ele>1767.0</ele>
      </trkpt>
      <trkpt lat="45.26694" lon="6.02583">
        <time>2023-01-28T06:22:08+00:00</time>
        <ele>1767.0</ele>
      </trkpt>
      <trkpt lat="45.26694" lon="6.02583">
        <time>2023-01-28T06:22:09+00:00</time>
        <ele>1767.0</ele>
      </trkpt>
      <trkpt lat="45.26693" lon="6.02584">
        <time>2023-01-28T06:22:11+00:00</time>
        <ele>1768.0</ele>
      </trkpt>
      <trkpt lat="45.2669" lon="6.02591">
        <time>2023-01-28T06:22:15+00:00</time>
        <ele>1769.0</ele>
      </trkpt>
      <trkpt lat="45.26685" lon="6.02606">
        <time>2023-01-28T06:22:24+00:00</time>
        <ele>1771.0</ele>
      </trkpt>
      <trkpt lat="45.26684" lon="6.0261">
        <time>2023-01-28T06:22:29+00:00</time>
        <ele>1771.0</ele>
      </trkpt>
      <trkpt lat="45.26683" lon="6.02613">
        <time>2023-01-28T06:22:32+00:00</time>
        <ele>1772.0</ele>
      </trkpt>
      <trkpt lat="45.26682" lon="6.02614">
        <time>2023-01-28T06:22:34+00:00</time>
        <ele>1772.0</ele>
      </trkpt>
      <trkpt lat="45.26681" lon="6.02616">
        <time>2023-01-28T06:22:36+00:00</time>
        <ele>1772.0</ele>
      </trkpt>
      <trkpt lat="45.26678" lon="6.02618">
        <time>2023-01-28T06:22:41+00:00</time>
        <ele>1773.0</ele>
      </trkpt>
      <trkpt lat="45.26675" lon="6.02621">
        <time>2023-01-28T06:22:46+00:00</time>
        <ele>1773.0</ele>
      </trkpt>
      <trkpt lat="45.26674" lon="6.02624">
        <time>2023-01-28T06:22:51+00:00</time>
        <ele>1774.0</ele>
      </trkpt>
      <trkpt lat="45.26669" lon="6.02629">
        <time>2023-01-28T06:23:00+00:00</time>
        <ele>1775.0</ele>
      </trkpt>
      <trkpt lat="45.26668" lon="6.02632">
        <time>2023-01-28T06:23:03+00:00</time>
        <ele>1775.0</ele>
      </trkpt>
      <trkpt lat="45.26668" lon="6.02634">
        <time>2023-01-28T06:23:04+00:00</time>
        <ele>1776.0</ele>
      </trkpt>
      <trkpt lat="45.26669" lon="6.0264">
        <time>2023-01-28T06:23:08+00:00</time>
        <ele>1776.0</ele>
      </trkpt>
      <trkpt lat="45.2667" lon="6.02645">
        <time>2023-01-28T06:23:12+00:00</time>
        <ele>1777.0</ele>
      </trkpt>
      <trkpt lat="45.2667" lon="6.0265">
        <time>2023-01-28T06:23:15+00:00</time>
        <ele>1778.0</ele>
      </trkpt>
      <trkpt lat="45.26669" lon="6.02656">
        <time>2023-01-28T06:23:19+00:00</time>
        <ele>1779.0</ele>
      </trkpt>
      <trkpt lat="45.26669" lon="6.0266">
        <time>2023-01-28T06:23:22+00:00</time>
        <ele>1780.0</ele>
      </trkpt>
      <trkpt lat="45.26669" lon="6.02667">
        <time>2023-01-28T06:23:27+00:00</time>
        <ele>1781.0</ele>
      </trkpt>
      <trkpt lat="45.26669" lon="6.02673">
        <time>2023-01-28T06:23:31+00:00</time>
        <ele>1782.0</ele>
      </trkpt>
      <trkpt lat="45.26667" lon="6.02685">
        <time>2023-01-28T06:23:40+00:00</time>
        <ele>1785.0</ele>
      </trkpt>
      <trkpt lat="45.26667" lon="6.02688">
        <time>2023-01-28T06:23:42+00:00</time>
        <ele>1786.0</ele>
      </trkpt>
      <trkpt lat="45.26667" lon="6.02694">
        <time>2023-01-28T06:23:46+00:00</time>
        <ele>1787.0</ele>
      </trkpt>
      <trkpt lat="45.26668" lon="6.02699">
        <time>2023-01-28T06:23:49+00:00</time>
        <ele>1788.0</ele>
      </trkpt>
      <trkpt lat="45.26669" lon="6.02702">
        <time>2023-01-28T06:23:51+00:00</time>
        <ele>1788.0</ele>
      </trkpt>
      <trkpt lat="45.26671" lon="6.02713">
        <time>2023-01-28T06:23:58+00:00</time>
        <ele>1790.0</ele>
      </trkpt>
      <trkpt lat="45.26671" lon="6.02715">
        <time>2023-01-28T06:23:59+00:00</time>
        <ele>1790.0</ele>
      </trkpt>
      <trkpt lat="45.26676" lon="6.0273">
        <time>2023-01-28T06:24:09+00:00</time>
        <ele>1792.0</ele>
      </trkpt>
      <trkpt lat="45.26676" lon="6.02732">
        <time>2023-01-28T06:24:10+00:00</time>
        <ele>1792.0</ele>
      </trkpt>
      <trkpt lat="45.26679" lon="6.0274">
        <time>2023-01-28T06:24:16+00:00</time>
        <ele>1792.0</ele>
      </trkpt>
      <trkpt lat="45.26679" lon="6.02742">
        <time>2023-01-28T06:24:17+00:00</time>
        <ele>1792.0</ele>
      </trkpt>
      <trkpt lat="45.26679" lon="6.02743">
        <time>2023-01-28T06:24:18+00:00</time>
        <ele>1792.0</ele>
      </trkpt>
      <trkpt lat="45.26681" lon="6.02753">
        <time>2023-01-28T06:24:24+00:00</time>
        <ele>1793.0</ele>
      </trkpt>
      <trkpt lat="45.26681" lon="6.02756">
        <time>2023-01-28T06:24:26+00:00</time>
        <ele>1793.0</ele>
      </trkpt>
      <trkpt lat="45.26683" lon="6.02765">
        <time>2023-01-28T06:24:32+00:00</time>
        <ele>1794.0</ele>
      </trkpt>
      <trkpt lat="45.26685" lon="6.02775">
        <time>2023-01-28T06:24:39+00:00</time>
        <ele>1795.0</ele>
      </trkpt>
      <trkpt lat="45.26686" lon="6.02777">
        <time>2023-01-28T06:24:40+00:00</time>
        <ele>1794.0</ele>
      </trkpt>
      <trkpt lat="45.26687" lon="6.02786">
        <time>2023-01-28T06:24:46+00:00</time>
        <ele>1796.0</ele>
      </trkpt>
      <trkpt lat="45.26688" lon="6.02793">
        <time>2023-01-28T06:24:50+00:00</time>
        <ele>1796.0</ele>
      </trkpt>
      <trkpt lat="45.26689" lon="6.02799">
        <time>2023-01-28T06:24:54+00:00</time>
        <ele>1797.0</ele>
      </trkpt>
      <trkpt lat="45.26692" lon="6.02809">
        <time>2023-01-28T06:25:01+00:00</time>
        <ele>1797.0</ele>
      </trkpt>
      <trkpt lat="45.26692" lon="6.02811">
        <time>2023-01-28T06:25:02+00:00</time>
        <ele>1797.0</ele>
      </trkpt>
      <trkpt lat="45.26695" lon="6.02822">
        <time>2023-01-28T06:25:09+00:00</time>
        <ele>1798.0</ele>
      </trkpt>
      <trkpt lat="45.26696" lon="6.02825">
        <time>2023-01-28T06:25:11+00:00</time>
        <ele>1798.0</ele>
      </trkpt>
      <trkpt lat="45.26697" lon="6.0283">
        <time>2023-01-28T06:25:14+00:00</time>
        <ele>1799.0</ele>
      </trkpt>
      <trkpt lat="45.26698" lon="6.02833">
        <time>2023-01-28T06:25:16+00:00</time>
        <ele>1799.0</ele>
      </trkpt>
      <trkpt lat="45.267" lon="6.0284">
        <time>2023-01-28T06:25:21+00:00</time>
        <ele>1799.0</ele>
      </trkpt>
      <trkpt lat="45.26703" lon="6.02848">
        <time>2023-01-28T06:25:27+00:00</time>
        <ele>1800.0</ele>
      </trkpt>
      <trkpt lat="45.26705" lon="6.02856">
        <time>2023-01-28T06:25:32+00:00</time>
        <ele>1800.0</ele>
      </trkpt>
      <trkpt lat="45.26708" lon="6.02868">
        <time>2023-01-28T06:25:40+00:00</time>
        <ele>1801.0</ele>
      </trkpt>
      <trkpt lat="45.2671" lon="6.0287">
        <time>2023-01-28T06:25:42+00:00</time>
        <ele>1801.0</ele>
      </trkpt>
      <trkpt lat="45.26712" lon="6.02878">
        <time>2023-01-28T06:25:49+00:00</time>
        <ele>1802.0</ele>
      </trkpt>
      <trkpt lat="45.26714" lon="6.02882">
        <time>2023-01-28T06:25:52+00:00</time>
        <ele>1802.0</ele>
      </trkpt>
      <trkpt lat="45.26718" lon="6.0289">
        <time>2023-01-28T06:25:59+00:00</time>
        <ele>1802.0</ele>
      </trkpt>
      <trkpt lat="45.26721" lon="6.02897">
        <time>2023-01-28T06:26:04+00:00</time>
        <ele>1803.0</ele>
      </trkpt>
      <trkpt lat="45.26723" lon="6.02901">
        <time>2023-01-28T06:26:07+00:00</time>
        <ele>1803.0</ele>
      </trkpt>
      <trkpt lat="45.26727" lon="6.02909">
        <time>2023-01-28T06:26:14+00:00</time>
        <ele>1803.0</ele>
      </trkpt>
      <trkpt lat="45.26732" lon="6.02917">
        <time>2023-01-28T06:26:21+00:00</time>
        <ele>1803.0</ele>
      </trkpt>
      <trkpt lat="45.26732" lon="6.02919">
        <time>2023-01-28T06:26:22+00:00</time>
        <ele>1804.0</ele>
      </trkpt>
      <trkpt lat="45.26736" lon="6.02928">
        <time>2023-01-28T06:26:30+00:00</time>
        <ele>1805.0</ele>
      </trkpt>
      <trkpt lat="45.26738" lon="6.02931">
        <time>2023-01-28T06:26:32+00:00</time>
        <ele>1806.0</ele>
      </trkpt>
      <trkpt lat="45.26741" lon="6.02936">
        <time>2023-01-28T06:26:37+00:00</time>
        <ele>1806.0</ele>
      </trkpt>
      <trkpt lat="45.26745" lon="6.02943">
        <time>2023-01-28T06:26:42+00:00</time>
        <ele>1807.0</ele>
      </trkpt>
      <trkpt lat="45.26747" lon="6.02948">
        <time>2023-01-28T06:26:46+00:00</time>
        <ele>1807.0</ele>
      </trkpt>
      <trkpt lat="45.26751" lon="6.02954">
        <time>2023-01-28T06:26:51+00:00</time>
        <ele>1807.0</ele>
      </trkpt>
      <trkpt lat="45.26753" lon="6.02957">
        <time>2023-01-28T06:26:53+00:00</time>
        <ele>1808.0</ele>
      </trkpt>
      <trkpt lat="45.26758" lon="6.02965">
        <time>2023-01-28T06:27:00+00:00</time>
        <ele>1808.0</ele>
      </trkpt>
      <trkpt lat="45.26759" lon="6.02968">
        <time>2023-01-28T06:27:02+00:00</time>
        <ele>1809.0</ele>
      </trkpt>
      <trkpt lat="45.26764" lon="6.02974">
        <time>2023-01-28T06:27:08+00:00</time>
        <ele>1809.0</ele>
      </trkpt>
      <trkpt lat="45.26768" lon="6.02981">
        <time>2023-01-28T06:27:14+00:00</time>
        <ele>1810.0</ele>
      </trkpt>
      <trkpt lat="45.2677" lon="6.02984">
        <time>2023-01-28T06:27:17+00:00</time>
        <ele>1810.0</ele>
      </trkpt>
      <trkpt lat="45.26771" lon="6.02987">
        <time>2023-01-28T06:27:19+00:00</time>
        <ele>1811.0</ele>
      </trkpt>
      <trkpt lat="45.26773" lon="6.02989">
        <time>2023-01-28T06:27:21+00:00</time>
        <ele>1811.0</ele>
      </trkpt>
      <trkpt lat="45.26776" lon="6.02993">
        <time>2023-01-28T06:27:25+00:00</time>
        <ele>1811.0</ele>
      </trkpt>
      <trkpt lat="45.26777" lon="6.02995">
        <time>2023-01-28T06:27:27+00:00</time>
        <ele>1812.0</ele>
      </trkpt>
      <trkpt lat="45.26779" lon="6.02997">
        <time>2023-01-28T06:27:29+00:00</time>
        <ele>1812.0</ele>
      </trkpt>
      <trkpt lat="45.26783" lon="6.03004">
        <time>2023-01-28T06:27:35+00:00</time>
        <ele>1813.0</ele>
      </trkpt>
      <trkpt lat="45.26785" lon="6.03005">
        <time>2023-01-28T06:27:37+00:00</time>
        <ele>1813.0</ele>
      </trkpt>
      <trkpt lat="45.26789" lon="6.03012">
        <time>2023-01-28T06:27:43+00:00</time>
        <ele>1815.0</ele>
      </trkpt>
      <trkpt lat="45.2679" lon="6.03013">
        <time>2023-01-28T06:27:44+00:00</time>
        <ele>1815.0</ele>
      </trkpt>
      <trkpt lat="45.26798" lon="6.03023">
        <time>2023-01-28T06:27:55+00:00</time>
        <ele>1817.0</ele>
      </trkpt>
      <trkpt lat="45.26799" lon="6.03024">
        <time>2023-01-28T06:27:56+00:00</time>
        <ele>1817.0</ele>
      </trkpt>
      <trkpt lat="45.26812" lon="6.03036">
        <time>2023-01-28T06:28:08+00:00</time>
        <ele>1819.0</ele>
      </trkpt>
      <trkpt lat="45.26818" lon="6.03041">
        <time>2023-01-28T06:28:14+00:00</time>
        <ele>1820.0</ele>
      </trkpt>
      <trkpt lat="45.26824" lon="6.03045">
        <time>2023-01-28T06:28:19+00:00</time>
        <ele>1820.0</ele>
      </trkpt>
      <trkpt lat="45.26826" lon="6.03047">
        <time>2023-01-28T06:28:21+00:00</time>
        <ele>1821.0</ele>
      </trkpt>
      <trkpt lat="45.26835" lon="6.03057">
        <time>2023-01-28T06:28:31+00:00</time>
        <ele>1822.0</ele>
      </trkpt>
      <trkpt lat="45.26839" lon="6.03062">
        <time>2023-01-28T06:28:36+00:00</time>
        <ele>1822.0</ele>
      </trkpt>
      <trkpt lat="45.26844" lon="6.03069">
        <time>2023-01-28T06:28:43+00:00</time>
        <ele>1822.0</ele>
      </trkpt>
      <trkpt lat="45.26846" lon="6.03071">
        <time>2023-01-28T06:28:45+00:00</time>
        <ele>1822.0</ele>
      </trkpt>
      <trkpt lat="45.26852" lon="6.0308">
        <time>2023-01-28T06:28:54+00:00</time>
        <ele>1823.0</ele>
      </trkpt>
      <trkpt lat="45.26854" lon="6.03083">
        <time>2023-01-28T06:28:57+00:00</time>
        <ele>1823.0</ele>
      </trkpt>
      <trkpt lat="45.26861" lon="6.03094">
        <time>2023-01-28T06:29:07+00:00</time>
        <ele>1823.0</ele>
      </trkpt>
      <trkpt lat="45.26861" lon="6.03095">
        <time>2023-01-28T06:29:08+00:00</time>
        <ele>1824.0</ele>
      </trkpt>
      <trkpt lat="45.26868" lon="6.03105">
        <time>2023-01-28T06:29:18+00:00</time>
        <ele>1825.0</ele>
      </trkpt>
      <trkpt lat="45.2687" lon="6.03107">
        <time>2023-01-28T06:29:20+00:00</time>
        <ele>1825.0</ele>
      </trkpt>
      <trkpt lat="45.26874" lon="6.03116">
        <time>2023-01-28T06:29:28+00:00</time>
        <ele>1827.0</ele>
      </trkpt>
      <trkpt lat="45.26875" lon="6.03117">
        <time>2023-01-28T06:29:29+00:00</time>
        <ele>1828.0</ele>
      </trkpt>
      <trkpt lat="45.26883" lon="6.03127">
        <time>2023-01-28T06:29:40+00:00</time>
        <ele>1830.0</ele>
      </trkpt>
      <trkpt lat="45.26884" lon="6.03129">
        <time>2023-01-28T06:29:42+00:00</time>
        <ele>1830.0</ele>
      </trkpt>
      <trkpt lat="45.26888" lon="6.03135">
        <time>2023-01-28T06:29:48+00:00</time>
        <ele>1832.0</ele>
      </trkpt>
      <trkpt lat="45.26889" lon="6.03135">
        <time>2023-01-28T06:29:49+00:00</time>
        <ele>1831.0</ele>
      </trkpt>
      <trkpt lat="45.2689" lon="6.03136">
        <time>2023-01-28T06:29:50+00:00</time>
        <ele>1832.0</ele>
      </trkpt>
      <trkpt lat="45.26897" lon="6.03146">
        <time>2023-01-28T06:30:01+00:00</time>
        <ele>1835.0</ele>
      </trkpt>
      <trkpt lat="45.26898" lon="6.03147">
        <time>2023-01-28T06:30:02+00:00</time>
        <ele>1835.0</ele>
      </trkpt>
      <trkpt lat="45.26898" lon="6.03148">
        <time>2023-01-28T06:30:04+00:00</time>
        <ele>1835.0</ele>
      </trkpt>
      <trkpt lat="45.26902" lon="6.03152">
        <time>2023-01-28T06:30:08+00:00</time>
        <ele>1836.0</ele>
      </trkpt>
      <trkpt lat="45.26904" lon="6.03155">
        <time>2023-01-28T06:30:11+00:00</time>
        <ele>1837.0</ele>
      </trkpt>
      <trkpt lat="45.26909" lon="6.03161">
        <time>2023-01-28T06:30:18+00:00</time>
        <ele>1838.0</ele>
      </trkpt>
      <trkpt lat="45.26913" lon="6.03168">
        <time>2023-01-28T06:30:25+00:00</time>
        <ele>1840.0</ele>
      </trkpt>
      <trkpt lat="45.26915" lon="6.0317">
        <time>2023-01-28T06:30:27+00:00</time>
        <ele>1840.0</ele>
      </trkpt>
      <trkpt lat="45.26915" lon="6.03171">
        <time>2023-01-28T06:30:28+00:00</time>
        <ele>1841.0</ele>
      </trkpt>
      <trkpt lat="45.2692" lon="6.03175">
        <time>2023-01-28T06:30:34+00:00</time>
        <ele>1841.0</ele>
      </trkpt>
      <trkpt lat="45.2692" lon="6.03175">
        <time>2023-01-28T06:30:35+00:00</time>
        <ele>1841.0</ele>
      </trkpt>
      <trkpt lat="45.26923" lon="6.03177">
        <time>2023-01-28T06:30:38+00:00</time>
        <ele>1841.0</ele>
      </trkpt>
      <trkpt lat="45.26926" lon="6.03181">
        <time>2023-01-28T06:30:43+00:00</time>
        <ele>1842.0</ele>
      </trkpt>
      <trkpt lat="45.26931" lon="6.03185">
        <time>2023-01-28T06:30:50+00:00</time>
        <ele>1843.0</ele>
      </trkpt>
      <trkpt lat="45.26932" lon="6.03185">
        <time>2023-01-28T06:30:51+00:00</time>
        <ele>1842.0</ele>
      </trkpt>
      <trkpt lat="45.26938" lon="6.03191">
        <time>2023-01-28T06:30:59+00:00</time>
        <ele>1843.0</ele>
      </trkpt>
      <trkpt lat="45.26943" lon="6.03196">
        <time>2023-01-28T06:31:07+00:00</time>
        <ele>1843.0</ele>
      </trkpt>
      <trkpt lat="45.26945" lon="6.03198">
        <time>2023-01-28T06:31:10+00:00</time>
        <ele>1843.0</ele>
      </trkpt>
      <trkpt lat="45.26948" lon="6.03201">
        <time>2023-01-28T06:31:14+00:00</time>
        <ele>1844.0</ele>
      </trkpt>
      <trkpt lat="45.26953" lon="6.03205">
        <time>2023-01-28T06:31:21+00:00</time>
        <ele>1844.0</ele>
      </trkpt>
      <trkpt lat="45.26956" lon="6.03209">
        <time>2023-01-28T06:31:26+00:00</time>
        <ele>1845.0</ele>
      </trkpt>
      <trkpt lat="45.26957" lon="6.03209">
        <time>2023-01-28T06:31:27+00:00</time>
        <ele>1845.0</ele>
      </trkpt>
      <trkpt lat="45.2696" lon="6.03211">
        <time>2023-01-28T06:31:30+00:00</time>
        <ele>1845.0</ele>
      </trkpt>
      <trkpt lat="45.26963" lon="6.03215">
        <time>2023-01-28T06:31:35+00:00</time>
        <ele>1846.0</ele>
      </trkpt>
      <trkpt lat="45.26966" lon="6.03219">
        <time>2023-01-28T06:31:39+00:00</time>
        <ele>1846.0</ele>
      </trkpt>
      <trkpt lat="45.2697" lon="6.03222">
        <time>2023-01-28T06:31:44+00:00</time>
        <ele>1847.0</ele>
      </trkpt>
      <trkpt lat="45.26977" lon="6.03227">
        <time>2023-01-28T06:31:52+00:00</time>
        <ele>1847.0</ele>
      </trkpt>
      <trkpt lat="45.26979" lon="6.03228">
        <time>2023-01-28T06:31:54+00:00</time>
        <ele>1847.0</ele>
      </trkpt>
      <trkpt lat="45.26985" lon="6.03234">
        <time>2023-01-28T06:32:02+00:00</time>
        <ele>1849.0</ele>
      </trkpt>
      <trkpt lat="45.26986" lon="6.03234">
        <time>2023-01-28T06:32:03+00:00</time>
        <ele>1849.0</ele>
      </trkpt>
      <trkpt lat="45.26991" lon="6.0324">
        <time>2023-01-28T06:32:10+00:00</time>
        <ele>1851.0</ele>
      </trkpt>
      <trkpt lat="45.26994" lon="6.03242">
        <time>2023-01-28T06:32:14+00:00</time>
        <ele>1851.0</ele>
      </trkpt>
      <trkpt lat="45.26995" lon="6.03244">
        <time>2023-01-28T06:32:16+00:00</time>
        <ele>1852.0</ele>
      </trkpt>
      <trkpt lat="45.26998" lon="6.03247">
        <time>2023-01-28T06:32:20+00:00</time>
        <ele>1852.0</ele>
      </trkpt>
      <trkpt lat="45.27" lon="6.03249">
        <time>2023-01-28T06:32:23+00:00</time>
        <ele>1853.0</ele>
      </trkpt>
      <trkpt lat="45.27001" lon="6.03249">
        <time>2023-01-28T06:32:24+00:00</time>
        <ele>1852.0</ele>
      </trkpt>
      <trkpt lat="45.27003" lon="6.03251">
        <time>2023-01-28T06:32:27+00:00</time>
        <ele>1853.0</ele>
      </trkpt>
      <trkpt lat="45.27004" lon="6.03252">
        <time>2023-01-28T06:32:28+00:00</time>
        <ele>1853.0</ele>
      </trkpt>
      <trkpt lat="45.27008" lon="6.03259">
        <time>2023-01-28T06:32:36+00:00</time>
        <ele>1855.0</ele>
      </trkpt>
      <trkpt lat="45.27009" lon="6.0326">
        <time>2023-01-28T06:32:37+00:00</time>
        <ele>1855.0</ele>
      </trkpt>
      <trkpt lat="45.27013" lon="6.03269">
        <time>2023-01-28T06:32:46+00:00</time>
        <ele>1857.0</ele>
      </trkpt>
      <trkpt lat="45.27014" lon="6.03271">
        <time>2023-01-28T06:32:48+00:00</time>
        <ele>1858.0</ele>
      </trkpt>
      <trkpt lat="45.27018" lon="6.03277">
        <time>2023-01-28T06:32:54+00:00</time>
        <ele>1859.0</ele>
      </trkpt>
      <trkpt lat="45.2702" lon="6.03279">
        <time>2023-01-28T06:32:57+00:00</time>
        <ele>1859.0</ele>
      </trkpt>
      <trkpt lat="45.27023" lon="6.03285">
        <time>2023-01-28T06:33:03+00:00</time>
        <ele>1860.0</ele>
      </trkpt>
      <trkpt lat="45.27023" lon="6.03287">
        <time>2023-01-28T06:33:05+00:00</time>
        <ele>1860.0</ele>
      </trkpt>
      <trkpt lat="45.27027" lon="6.03292">
        <time>2023-01-28T06:33:11+00:00</time>
        <ele>1861.0</ele>
      </trkpt>
      <trkpt lat="45.27028" lon="6.03293">
        <time>2023-01-28T06:33:13+00:00</time>
        <ele>1861.0</ele>
      </trkpt>
      <trkpt lat="45.2703" lon="6.03297">
        <time>2023-01-28T06:33:17+00:00</time>
        <ele>1862.0</ele>
      </trkpt>
      <trkpt lat="45.27033" lon="6.03301">
        <time>2023-01-28T06:33:22+00:00</time>
        <ele>1863.0</ele>
      </trkpt>
      <trkpt lat="45.27038" lon="6.03307">
        <time>2023-01-28T06:33:28+00:00</time>
        <ele>1864.0</ele>
      </trkpt>
      <trkpt lat="45.27043" lon="6.03314">
        <time>2023-01-28T06:33:37+00:00</time>
        <ele>1865.0</ele>
      </trkpt>
      <trkpt lat="45.27046" lon="6.03318">
        <time>2023-01-28T06:33:43+00:00</time>
        <ele>1866.0</ele>
      </trkpt>
      <trkpt lat="45.27048" lon="6.03321">
        <time>2023-01-28T06:33:46+00:00</time>
        <ele>1867.0</ele>
      </trkpt>
      <trkpt lat="45.2705" lon="6.03324">
        <time>2023-01-28T06:33:49+00:00</time>
        <ele>1868.0</ele>
      </trkpt>
      <trkpt lat="45.27055" lon="6.03331">
        <time>2023-01-28T06:33:56+00:00</time>
        <ele>1870.0</ele>
      </trkpt>
      <trkpt lat="45.27057" lon="6.03333">
        <time>2023-01-28T06:33:58+00:00</time>
        <ele>1871.0</ele>
      </trkpt>
      <trkpt lat="45.27059" lon="6.03335">
        <time>2023-01-28T06:34:01+00:00</time>
        <ele>1871.0</ele>
      </trkpt>
      <trkpt lat="45.27064" lon="6.03338">
        <time>2023-01-28T06:34:06+00:00</time>
        <ele>1872.0</ele>
      </trkpt>
      <trkpt lat="45.27067" lon="6.0334">
        <time>2023-01-28T06:34:10+00:00</time>
        <ele>1873.0</ele>
      </trkpt>
      <trkpt lat="45.27069" lon="6.03341">
        <time>2023-01-28T06:34:12+00:00</time>
        <ele>1873.0</ele>
      </trkpt>
      <trkpt lat="45.27072" lon="6.03343">
        <time>2023-01-28T06:34:15+00:00</time>
        <ele>1873.0</ele>
      </trkpt>
      <trkpt lat="45.27077" lon="6.03346">
        <time>2023-01-28T06:34:20+00:00</time>
        <ele>1874.0</ele>
      </trkpt>
      <trkpt lat="45.27081" lon="6.03348">
        <time>2023-01-28T06:34:26+00:00</time>
        <ele>1875.0</ele>
      </trkpt>
      <trkpt lat="45.27085" lon="6.03349">
        <time>2023-01-28T06:34:31+00:00</time>
        <ele>1875.0</ele>
      </trkpt>
      <trkpt lat="45.27086" lon="6.03349">
        <time>2023-01-28T06:34:32+00:00</time>
        <ele>1875.0</ele>
      </trkpt>
      <trkpt lat="45.27089" lon="6.0335">
        <time>2023-01-28T06:34:35+00:00</time>
        <ele>1875.0</ele>
      </trkpt>
      <trkpt lat="45.27098" lon="6.03351">
        <time>2023-01-28T06:34:44+00:00</time>
        <ele>1875.0</ele>
      </trkpt>
      <trkpt lat="45.27105" lon="6.03352">
        <time>2023-01-28T06:34:52+00:00</time>
        <ele>1875.0</ele>
      </trkpt>
      <trkpt lat="45.27108" lon="6.03352">
        <time>2023-01-28T06:34:55+00:00</time>
        <ele>1875.0</ele>
      </trkpt>
      <trkpt lat="45.27111" lon="6.03351">
        <time>2023-01-28T06:34:59+00:00</time>
        <ele>1875.0</ele>
      </trkpt>
      <trkpt lat="45.27117" lon="6.03351">
        <time>2023-01-28T06:35:05+00:00</time>
        <ele>1876.0</ele>
      </trkpt>
      <trkpt lat="45.27119" lon="6.03351">
        <time>2023-01-28T06:35:07+00:00</time>
        <ele>1876.0</ele>
      </trkpt>
      <trkpt lat="45.27122" lon="6.0335">
        <time>2023-01-28T06:35:10+00:00</time>
        <ele>1876.0</ele>
      </trkpt>
      <trkpt lat="45.27125" lon="6.0335">
        <time>2023-01-28T06:35:14+00:00</time>
        <ele>1877.0</ele>
      </trkpt>
      <trkpt lat="45.2713" lon="6.03349">
        <time>2023-01-28T06:35:20+00:00</time>
        <ele>1877.0</ele>
      </trkpt>
      <trkpt lat="45.27133" lon="6.03349">
        <time>2023-01-28T06:35:23+00:00</time>
        <ele>1877.0</ele>
      </trkpt>
      <trkpt lat="45.27138" lon="6.0335">
        <time>2023-01-28T06:35:29+00:00</time>
        <ele>1878.0</ele>
      </trkpt>
      <trkpt lat="45.2714" lon="6.0335">
        <time>2023-01-28T06:35:31+00:00</time>
        <ele>1878.0</ele>
      </trkpt>
      <trkpt lat="45.27145" lon="6.0335">
        <time>2023-01-28T06:35:37+00:00</time>
        <ele>1879.0</ele>
      </trkpt>
      <trkpt lat="45.27148" lon="6.03351">
        <time>2023-01-28T06:35:41+00:00</time>
        <ele>1880.0</ele>
      </trkpt>
      <trkpt lat="45.27151" lon="6.03351">
        <time>2023-01-28T06:35:44+00:00</time>
        <ele>1880.0</ele>
      </trkpt>
      <trkpt lat="45.27152" lon="6.03352">
        <time>2023-01-28T06:35:45+00:00</time>
        <ele>1880.0</ele>
      </trkpt>
      <trkpt lat="45.27157" lon="6.03353">
        <time>2023-01-28T06:35:52+00:00</time>
        <ele>1881.0</ele>
      </trkpt>
      <trkpt lat="45.27159" lon="6.03354">
        <time>2023-01-28T06:35:54+00:00</time>
        <ele>1881.0</ele>
      </trkpt>
      <trkpt lat="45.27164" lon="6.03355">
        <time>2023-01-28T06:36:00+00:00</time>
        <ele>1882.0</ele>
      </trkpt>
      <trkpt lat="45.27168" lon="6.03356">
        <time>2023-01-28T06:36:05+00:00</time>
        <ele>1882.0</ele>
      </trkpt>
      <trkpt lat="45.27169" lon="6.03357">
        <time>2023-01-28T06:36:06+00:00</time>
        <ele>1883.0</ele>
      </trkpt>
      <trkpt lat="45.27174" lon="6.03358">
        <time>2023-01-28T06:36:13+00:00</time>
        <ele>1884.0</ele>
      </trkpt>
      <trkpt lat="45.27178" lon="6.03359">
        <time>2023-01-28T06:36:18+00:00</time>
        <ele>1884.0</ele>
      </trkpt>
      <trkpt lat="45.27179" lon="6.0336">
        <time>2023-01-28T06:36:20+00:00</time>
        <ele>1885.0</ele>
      </trkpt>
      <trkpt lat="45.27182" lon="6.03361">
        <time>2023-01-28T06:36:23+00:00</time>
        <ele>1885.0</ele>
      </trkpt>
      <trkpt lat="45.27184" lon="6.03361">
        <time>2023-01-28T06:36:26+00:00</time>
        <ele>1885.0</ele>
      </trkpt>
      <trkpt lat="45.27188" lon="6.03362">
        <time>2023-01-28T06:36:30+00:00</time>
        <ele>1886.0</ele>
      </trkpt>
      <trkpt lat="45.27191" lon="6.03363">
        <time>2023-01-28T06:36:34+00:00</time>
        <ele>1886.0</ele>
      </trkpt>
      <trkpt lat="45.27196" lon="6.03363">
        <time>2023-01-28T06:36:40+00:00</time>
        <ele>1887.0</ele>
      </trkpt>
      <trkpt lat="45.27196" lon="6.03363">
        <time>2023-01-28T06:36:41+00:00</time>
        <ele>1887.0</ele>
      </trkpt>
      <trkpt lat="45.27202" lon="6.03364">
        <time>2023-01-28T06:36:48+00:00</time>
        <ele>1888.0</ele>
      </trkpt>
      <trkpt lat="45.27205" lon="6.03365">
        <time>2023-01-28T06:36:52+00:00</time>
        <ele>1888.0</ele>
      </trkpt>
      <trkpt lat="45.27208" lon="6.03366">
        <time>2023-01-28T06:36:56+00:00</time>
        <ele>1889.0</ele>
      </trkpt>
      <trkpt lat="45.27215" lon="6.03368">
        <time>2023-01-28T06:37:04+00:00</time>
        <ele>1890.0</ele>
      </trkpt>
      <trkpt lat="45.27217" lon="6.03368">
        <time>2023-01-28T06:37:06+00:00</time>
        <ele>1890.0</ele>
      </trkpt>
      <trkpt lat="45.27221" lon="6.03369">
        <time>2023-01-28T06:37:12+00:00</time>
        <ele>1891.0</ele>
      </trkpt>
      <trkpt lat="45.27224" lon="6.0337">
        <time>2023-01-28T06:37:15+00:00</time>
        <ele>1892.0</ele>
      </trkpt>
      <trkpt lat="45.27228" lon="6.03371">
        <time>2023-01-28T06:37:19+00:00</time>
        <ele>1893.0</ele>
      </trkpt>
      <trkpt lat="45.27234" lon="6.03371">
        <time>2023-01-28T06:37:26+00:00</time>
        <ele>1894.0</ele>
      </trkpt>
      <trkpt lat="45.27237" lon="6.03372">
        <time>2023-01-28T06:37:30+00:00</time>
        <ele>1895.0</ele>
      </trkpt>
      <trkpt lat="45.2724" lon="6.03373">
        <time>2023-01-28T06:37:34+00:00</time>
        <ele>1896.0</ele>
      </trkpt>
      <trkpt lat="45.27242" lon="6.03373">
        <time>2023-01-28T06:37:36+00:00</time>
        <ele>1896.0</ele>
      </trkpt>
      <trkpt lat="45.27243" lon="6.03374">
        <time>2023-01-28T06:37:37+00:00</time>
        <ele>1896.0</ele>
      </trkpt>
      <trkpt lat="45.27246" lon="6.03375">
        <time>2023-01-28T06:37:41+00:00</time>
        <ele>1897.0</ele>
      </trkpt>
      <trkpt lat="45.2725" lon="6.03377">
        <time>2023-01-28T06:37:45+00:00</time>
        <ele>1898.0</ele>
      </trkpt>
      <trkpt lat="45.27252" lon="6.03377">
        <time>2023-01-28T06:37:47+00:00</time>
        <ele>1898.0</ele>
      </trkpt>
      <trkpt lat="45.2726" lon="6.0338">
        <time>2023-01-28T06:37:55+00:00</time>
        <ele>1900.0</ele>
      </trkpt>
      <trkpt lat="45.27263" lon="6.03382">
        <time>2023-01-28T06:37:59+00:00</time>
        <ele>1901.0</ele>
      </trkpt>
      <trkpt lat="45.27267" lon="6.03384">
        <time>2023-01-28T06:38:03+00:00</time>
        <ele>1901.0</ele>
      </trkpt>
      <trkpt lat="45.27274" lon="6.03388">
        <time>2023-01-28T06:38:10+00:00</time>
        <ele>1902.0</ele>
      </trkpt>
      <trkpt lat="45.27275" lon="6.03388">
        <time>2023-01-28T06:38:11+00:00</time>
        <ele>1902.0</ele>
      </trkpt>
      <trkpt lat="45.27276" lon="6.03389">
        <time>2023-01-28T06:38:12+00:00</time>
        <ele>1902.0</ele>
      </trkpt>
      <trkpt lat="45.27281" lon="6.03393">
        <time>2023-01-28T06:38:17+00:00</time>
        <ele>1903.0</ele>
      </trkpt>
      <trkpt lat="45.27282" lon="6.03394">
        <time>2023-01-28T06:38:18+00:00</time>
        <ele>1903.0</ele>
      </trkpt>
      <trkpt lat="45.27283" lon="6.03397">
        <time>2023-01-28T06:38:20+00:00</time>
        <ele>1903.0</ele>
      </trkpt>
      <trkpt lat="45.27287" lon="6.03407">
        <time>2023-01-28T06:38:28+00:00</time>
        <ele>1904.0</ele>
      </trkpt>
      <trkpt lat="45.27287" lon="6.03408">
        <time>2023-01-28T06:38:29+00:00</time>
        <ele>1905.0</ele>
      </trkpt>
      <trkpt lat="45.27288" lon="6.0341">
        <time>2023-01-28T06:38:30+00:00</time>
        <ele>1905.0</ele>
      </trkpt>
      <trkpt lat="45.27288" lon="6.03413">
        <time>2023-01-28T06:38:32+00:00</time>
        <ele>1905.0</ele>
      </trkpt>
      <trkpt lat="45.2729" lon="6.0342">
        <time>2023-01-28T06:38:37+00:00</time>
        <ele>1906.0</ele>
      </trkpt>
      <trkpt lat="45.27291" lon="6.03427">
        <time>2023-01-28T06:38:42+00:00</time>
        <ele>1907.0</ele>
      </trkpt>
      <trkpt lat="45.27291" lon="6.03431">
        <time>2023-01-28T06:38:45+00:00</time>
        <ele>1908.0</ele>
      </trkpt>
      <trkpt lat="45.27292" lon="6.03436">
        <time>2023-01-28T06:38:48+00:00</time>
        <ele>1908.0</ele>
      </trkpt>
      <trkpt lat="45.27293" lon="6.0344">
        <time>2023-01-28T06:38:51+00:00</time>
        <ele>1908.0</ele>
      </trkpt>
      <trkpt lat="45.27294" lon="6.03445">
        <time>2023-01-28T06:38:54+00:00</time>
        <ele>1909.0</ele>
      </trkpt>
      <trkpt lat="45.27296" lon="6.03455">
        <time>2023-01-28T06:39:02+00:00</time>
        <ele>1910.0</ele>
      </trkpt>
      <trkpt lat="45.27296" lon="6.03457">
        <time>2023-01-28T06:39:03+00:00</time>
        <ele>1910.0</ele>
      </trkpt>
      <trkpt lat="45.27299" lon="6.0347">
        <time>2023-01-28T06:39:12+00:00</time>
        <ele>1911.0</ele>
      </trkpt>
      <trkpt lat="45.27299" lon="6.03473">
        <time>2023-01-28T06:39:14+00:00</time>
        <ele>1912.0</ele>
      </trkpt>
      <trkpt lat="45.27301" lon="6.03481">
        <time>2023-01-28T06:39:20+00:00</time>
        <ele>1913.0</ele>
      </trkpt>
      <trkpt lat="45.27302" lon="6.03486">
        <time>2023-01-28T06:39:23+00:00</time>
        <ele>1913.0</ele>
      </trkpt>
      <trkpt lat="45.27302" lon="6.03493">
        <time>2023-01-28T06:39:28+00:00</time>
        <ele>1914.0</ele>
      </trkpt>
      <trkpt lat="45.27302" lon="6.03496">
        <time>2023-01-28T06:39:30+00:00</time>
        <ele>1914.0</ele>
      </trkpt>
      <trkpt lat="45.27302" lon="6.03498">
        <time>2023-01-28T06:39:31+00:00</time>
        <ele>1915.0</ele>
      </trkpt>
      <trkpt lat="45.27303" lon="6.03506">
        <time>2023-01-28T06:39:36+00:00</time>
        <ele>1915.0</ele>
      </trkpt>
      <trkpt lat="45.27303" lon="6.03507">
        <time>2023-01-28T06:39:37+00:00</time>
        <ele>1916.0</ele>
      </trkpt>
      <trkpt lat="45.27302" lon="6.0351">
        <time>2023-01-28T06:39:39+00:00</time>
        <ele>1916.0</ele>
      </trkpt>
      <trkpt lat="45.27303" lon="6.03514">
        <time>2023-01-28T06:39:42+00:00</time>
        <ele>1917.0</ele>
      </trkpt>
      <trkpt lat="45.27305" lon="6.03527">
        <time>2023-01-28T06:39:51+00:00</time>
        <ele>1918.0</ele>
      </trkpt>
      <trkpt lat="45.27305" lon="6.03529">
        <time>2023-01-28T06:39:52+00:00</time>
        <ele>1918.0</ele>
      </trkpt>
      <trkpt lat="45.27305" lon="6.03536">
        <time>2023-01-28T06:39:57+00:00</time>
        <ele>1920.0</ele>
      </trkpt>
      <trkpt lat="45.27306" lon="6.0354">
        <time>2023-01-28T06:40:00+00:00</time>
        <ele>1920.0</ele>
      </trkpt>
      <trkpt lat="45.27306" lon="6.03545">
        <time>2023-01-28T06:40:04+00:00</time>
        <ele>1920.0</ele>
      </trkpt>
      <trkpt lat="45.27307" lon="6.03551">
        <time>2023-01-28T06:40:08+00:00</time>
        <ele>1921.0</ele>
      </trkpt>
      <trkpt lat="45.27307" lon="6.03556">
        <time>2023-01-28T06:40:12+00:00</time>
        <ele>1921.0</ele>
      </trkpt>
      <trkpt lat="45.27307" lon="6.03563">
        <time>2023-01-28T06:40:17+00:00</time>
        <ele>1922.0</ele>
      </trkpt>
      <trkpt lat="45.27307" lon="6.03574">
        <time>2023-01-28T06:40:25+00:00</time>
        <ele>1923.0</ele>
      </trkpt>
      <trkpt lat="45.27307" lon="6.03577">
        <time>2023-01-28T06:40:27+00:00</time>
        <ele>1924.0</ele>
      </trkpt>
      <trkpt lat="45.27307" lon="6.03579">
        <time>2023-01-28T06:40:28+00:00</time>
        <ele>1924.0</ele>
      </trkpt>
      <trkpt lat="45.27307" lon="6.03588">
        <time>2023-01-28T06:40:34+00:00</time>
        <ele>1925.0</ele>
      </trkpt>
      <trkpt lat="45.27307" lon="6.03589">
        <time>2023-01-28T06:40:35+00:00</time>
        <ele>1925.0</ele>
      </trkpt>
      <trkpt lat="45.27307" lon="6.03594">
        <time>2023-01-28T06:40:38+00:00</time>
        <ele>1925.0</ele>
      </trkpt>
      <trkpt lat="45.27307" lon="6.03602">
        <time>2023-01-28T06:40:44+00:00</time>
        <ele>1926.0</ele>
      </trkpt>
      <trkpt lat="45.27307" lon="6.03605">
        <time>2023-01-28T06:40:46+00:00</time>
        <ele>1926.0</ele>
      </trkpt>
      <trkpt lat="45.27306" lon="6.03613">
        <time>2023-01-28T06:40:52+00:00</time>
        <ele>1927.0</ele>
      </trkpt>
      <trkpt lat="45.27307" lon="6.03621">
        <time>2023-01-28T06:40:58+00:00</time>
        <ele>1927.0</ele>
      </trkpt>
      <trkpt lat="45.27307" lon="6.03626">
        <time>2023-01-28T06:41:02+00:00</time>
        <ele>1927.0</ele>
      </trkpt>
      <trkpt lat="45.27308" lon="6.03628">
        <time>2023-01-28T06:41:04+00:00</time>
        <ele>1927.0</ele>
      </trkpt>
      <trkpt lat="45.27308" lon="6.03632">
        <time>2023-01-28T06:41:07+00:00</time>
        <ele>1927.0</ele>
      </trkpt>
      <trkpt lat="45.27307" lon="6.03635">
        <time>2023-01-28T06:41:09+00:00</time>
        <ele>1927.0</ele>
      </trkpt>
      <trkpt lat="45.27307" lon="6.03637">
        <time>2023-01-28T06:41:11+00:00</time>
        <ele>1928.0</ele>
      </trkpt>
      <trkpt lat="45.27307" lon="6.03638">
        <time>2023-01-28T06:41:12+00:00</time>
        <ele>1928.0</ele>
      </trkpt>
      <trkpt lat="45.27307" lon="6.03645">
        <time>2023-01-28T06:41:17+00:00</time>
        <ele>1928.0</ele>
      </trkpt>
      <trkpt lat="45.27306" lon="6.03647">
        <time>2023-01-28T06:41:18+00:00</time>
        <ele>1928.0</ele>
      </trkpt>
      <trkpt lat="45.27306" lon="6.0365">
        <time>2023-01-28T06:41:20+00:00</time>
        <ele>1929.0</ele>
      </trkpt>
      <trkpt lat="45.27306" lon="6.03658">
        <time>2023-01-28T06:41:25+00:00</time>
        <ele>1929.0</ele>
      </trkpt>
      <trkpt lat="45.27306" lon="6.03659">
        <time>2023-01-28T06:41:26+00:00</time>
        <ele>1929.0</ele>
      </trkpt>
      <trkpt lat="45.27306" lon="6.03662">
        <time>2023-01-28T06:41:28+00:00</time>
        <ele>1929.0</ele>
      </trkpt>
      <trkpt lat="45.27306" lon="6.03667">
        <time>2023-01-28T06:41:31+00:00</time>
        <ele>1929.0</ele>
      </trkpt>
      <trkpt lat="45.27306" lon="6.03673">
        <time>2023-01-28T06:41:36+00:00</time>
        <ele>1929.0</ele>
      </trkpt>
      <trkpt lat="45.27306" lon="6.03674">
        <time>2023-01-28T06:41:37+00:00</time>
        <ele>1929.0</ele>
      </trkpt>
      <trkpt lat="45.27306" lon="6.03676">
        <time>2023-01-28T06:41:38+00:00</time>
        <ele>1929.0</ele>
      </trkpt>
      <trkpt lat="45.27305" lon="6.03684">
        <time>2023-01-28T06:41:44+00:00</time>
        <ele>1930.0</ele>
      </trkpt>
      <trkpt lat="45.27305" lon="6.03689">
        <time>2023-01-28T06:41:48+00:00</time>
        <ele>1930.0</ele>
      </trkpt>
      <trkpt lat="45.27304" lon="6.03698">
        <time>2023-01-28T06:41:54+00:00</time>
        <ele>1930.0</ele>
      </trkpt>
      <trkpt lat="45.27304" lon="6.03705">
        <time>2023-01-28T06:41:58+00:00</time>
        <ele>1930.0</ele>
      </trkpt>
      <trkpt lat="45.27305" lon="6.03709">
        <time>2023-01-28T06:42:01+00:00</time>
        <ele>1930.0</ele>
      </trkpt>
      <trkpt lat="45.27304" lon="6.03718">
        <time>2023-01-28T06:42:07+00:00</time>
        <ele>1931.0</ele>
      </trkpt>
      <trkpt lat="45.27304" lon="6.03721">
        <time>2023-01-28T06:42:09+00:00</time>
        <ele>1931.0</ele>
      </trkpt>
      <trkpt lat="45.27305" lon="6.03723">
        <time>2023-01-28T06:42:10+00:00</time>
        <ele>1930.0</ele>
      </trkpt>
      <trkpt lat="45.27305" lon="6.03726">
        <time>2023-01-28T06:42:13+00:00</time>
        <ele>1930.0</ele>
      </trkpt>
      <trkpt lat="45.27306" lon="6.0373">
        <time>2023-01-28T06:42:15+00:00</time>
        <ele>1930.0</ele>
      </trkpt>
      <trkpt lat="45.27307" lon="6.03737">
        <time>2023-01-28T06:42:20+00:00</time>
        <ele>1929.0</ele>
      </trkpt>
      <trkpt lat="45.27307" lon="6.03742">
        <time>2023-01-28T06:42:23+00:00</time>
        <ele>1929.0</ele>
      </trkpt>
      <trkpt lat="45.27306" lon="6.03745">
        <time>2023-01-28T06:42:25+00:00</time>
        <ele>1929.0</ele>
      </trkpt>
      <trkpt lat="45.27305" lon="6.03754">
        <time>2023-01-28T06:42:32+00:00</time>
        <ele>1929.0</ele>
      </trkpt>
      <trkpt lat="45.27304" lon="6.03757">
        <time>2023-01-28T06:42:34+00:00</time>
        <ele>1929.0</ele>
      </trkpt>
      <trkpt lat="45.27303" lon="6.03764">
        <time>2023-01-28T06:42:38+00:00</time>
        <ele>1928.0</ele>
      </trkpt>
      <trkpt lat="45.27303" lon="6.03767">
        <time>2023-01-28T06:42:40+00:00</time>
        <ele>1928.0</ele>
      </trkpt>
      <trkpt lat="45.27302" lon="6.0377">
        <time>2023-01-28T06:42:42+00:00</time>
        <ele>1927.0</ele>
      </trkpt>
      <trkpt lat="45.27302" lon="6.03774">
        <time>2023-01-28T06:42:45+00:00</time>
        <ele>1927.0</ele>
      </trkpt>
      <trkpt lat="45.273" lon="6.03779">
        <time>2023-01-28T06:42:51+00:00</time>
        <ele>1926.0</ele>
      </trkpt>
      <trkpt lat="45.27295" lon="6.03778">
        <time>2023-01-28T06:42:56+00:00</time>
        <ele>1926.0</ele>
      </trkpt>
      <trkpt lat="45.27294" lon="6.03776">
        <time>2023-01-28T06:42:59+00:00</time>
        <ele>1926.0</ele>
      </trkpt>
      <trkpt lat="45.27294" lon="6.03773">
        <time>2023-01-28T06:43:07+00:00</time>
        <ele>1926.0</ele>
      </trkpt>
      <trkpt lat="45.27294" lon="6.03774">
        <time>2023-01-28T06:43:10+00:00</time>
        <ele>1926.0</ele>
      </trkpt>
      <trkpt lat="45.27294" lon="6.03774">
        <time>2023-01-28T06:43:13+00:00</time>
        <ele>1926.0</ele>
      </trkpt>
      <trkpt lat="45.27294" lon="6.03774">
        <time>2023-01-28T06:43:18+00:00</time>
        <ele>1926.0</ele>
      </trkpt>
      <trkpt lat="45.27294" lon="6.03774">
        <time>2023-01-28T06:43:20+00:00</time>
        <ele>1926.0</ele>
      </trkpt>
      <trkpt lat="45.27294" lon="6.03774">
        <time>2023-01-28T06:43:23+00:00</time>
        <ele>1926.0</ele>
      </trkpt>
      <trkpt lat="45.27294" lon="6.03774">
        <time>2023-01-28T06:43:25+00:00</time>
        <ele>1926.0</ele>
      </trkpt>
      <trkpt lat="45.27294" lon="6.03775">
        <time>2023-01-28T06:43:28+00:00</time>
        <ele>1926.0</ele>
      </trkpt>
      <trkpt lat="45.27294" lon="6.03775">
        <time>2023-01-28T06:43:32+00:00</time>
        <ele>1926.0</ele>
      </trkpt>
      <trkpt lat="45.27295" lon="6.03775">
        <time>2023-01-28T06:43:36+00:00</time>
        <ele>1926.0</ele>
      </trkpt>
      <trkpt lat="45.27295" lon="6.03775">
        <time>2023-01-28T06:43:39+00:00</time>
        <ele>1926.0</ele>
      </trkpt>
      <trkpt lat="45.27295" lon="6.03775">
        <time>2023-01-28T06:43:43+00:00</time>
        <ele>1926.0</ele>
      </trkpt>
      <trkpt lat="45.27295" lon="6.03775">
        <time>2023-01-28T06:43:52+00:00</time>
        <ele>1926.0</ele>
      </trkpt>
      <trkpt lat="45.27295" lon="6.03775">
        <time>2023-01-28T06:44:02+00:00</time>
        <ele>1926.0</ele>
      </trkpt>
      <trkpt lat="45.27295" lon="6.03775">
        <time>2023-01-28T06:44:07+00:00</time>
        <ele>1926.0</ele>
      </trkpt>
      <trkpt lat="45.27295" lon="6.03776">
        <time>2023-01-28T06:44:24+00:00</time>
        <ele>1926.0</ele>
      </trkpt>
      <trkpt lat="45.27295" lon="6.03776">
        <time>2023-01-28T06:44:28+00:00</time>
        <ele>1926.0</ele>
      </trkpt>
      <trkpt lat="45.27295" lon="6.03776">
        <time>2023-01-28T06:44:34+00:00</time>
        <ele>1926.0</ele>
      </trkpt>
      <trkpt lat="45.27291" lon="6.03765">
        <time>2023-01-28T06:44:41+00:00</time>
        <ele>1927.0</ele>
      </trkpt>
      <trkpt lat="45.2729" lon="6.03762">
        <time>2023-01-28T06:44:43+00:00</time>
        <ele>1928.0</ele>
      </trkpt>
      <trkpt lat="45.27288" lon="6.03756">
        <time>2023-01-28T06:44:47+00:00</time>
        <ele>1929.0</ele>
      </trkpt>
      <trkpt lat="45.27288" lon="6.03754">
        <time>2023-01-28T06:44:49+00:00</time>
        <ele>1929.0</ele>
      </trkpt>
      <trkpt lat="45.27288" lon="6.03752">
        <time>2023-01-28T06:44:51+00:00</time>
        <ele>1929.0</ele>
      </trkpt>
      <trkpt lat="45.27288" lon="6.03749">
        <time>2023-01-28T06:44:53+00:00</time>
        <ele>1930.0</ele>
      </trkpt>
      <trkpt lat="45.27287" lon="6.03748">
        <time>2023-01-28T06:44:54+00:00</time>
        <ele>1930.0</ele>
      </trkpt>
      <trkpt lat="45.27288" lon="6.03745">
        <time>2023-01-28T06:44:56+00:00</time>
        <ele>1931.0</ele>
      </trkpt>
      <trkpt lat="45.27287" lon="6.03743">
        <time>2023-01-28T06:44:58+00:00</time>
        <ele>1931.0</ele>
      </trkpt>
      <trkpt lat="45.27287" lon="6.03742">
        <time>2023-01-28T06:44:59+00:00</time>
        <ele>1931.0</ele>
      </trkpt>
      <trkpt lat="45.27287" lon="6.03739">
        <time>2023-01-28T06:45:01+00:00</time>
        <ele>1932.0</ele>
      </trkpt>
      <trkpt lat="45.27286" lon="6.03734">
        <time>2023-01-28T06:45:05+00:00</time>
        <ele>1932.0</ele>
      </trkpt>
      <trkpt lat="45.27286" lon="6.03731">
        <time>2023-01-28T06:45:08+00:00</time>
        <ele>1933.0</ele>
      </trkpt>
      <trkpt lat="45.27285" lon="6.03727">
        <time>2023-01-28T06:45:11+00:00</time>
        <ele>1934.0</ele>
      </trkpt>
      <trkpt lat="45.27284" lon="6.03724">
        <time>2023-01-28T06:45:14+00:00</time>
        <ele>1934.0</ele>
      </trkpt>
      <trkpt lat="45.27284" lon="6.03722">
        <time>2023-01-28T06:45:16+00:00</time>
        <ele>1935.0</ele>
      </trkpt>
      <trkpt lat="45.27283" lon="6.0372">
        <time>2023-01-28T06:45:18+00:00</time>
        <ele>1935.0</ele>
      </trkpt>
      <trkpt lat="45.27283" lon="6.03717">
        <time>2023-01-28T06:45:20+00:00</time>
        <ele>1935.0</ele>
      </trkpt>
      <trkpt lat="45.27282" lon="6.03715">
        <time>2023-01-28T06:45:22+00:00</time>
        <ele>1936.0</ele>
      </trkpt>
      <trkpt lat="45.27281" lon="6.03713">
        <time>2023-01-28T06:45:24+00:00</time>
        <ele>1936.0</ele>
      </trkpt>
      <trkpt lat="45.27278" lon="6.03703">
        <time>2023-01-28T06:45:33+00:00</time>
        <ele>1937.0</ele>
      </trkpt>
      <trkpt lat="45.27277" lon="6.03701">
        <time>2023-01-28T06:45:35+00:00</time>
        <ele>1938.0</ele>
      </trkpt>
      <trkpt lat="45.27275" lon="6.03694">
        <time>2023-01-28T06:45:42+00:00</time>
        <ele>1938.0</ele>
      </trkpt>
      <trkpt lat="45.27275" lon="6.03691">
        <time>2023-01-28T06:45:44+00:00</time>
        <ele>1939.0</ele>
      </trkpt>
      <trkpt lat="45.27271" lon="6.03681">
        <time>2023-01-28T06:45:52+00:00</time>
        <ele>1940.0</ele>
      </trkpt>
      <trkpt lat="45.27271" lon="6.0368">
        <time>2023-01-28T06:45:53+00:00</time>
        <ele>1940.0</ele>
      </trkpt>
      <trkpt lat="45.27268" lon="6.03673">
        <time>2023-01-28T06:45:59+00:00</time>
        <ele>1941.0</ele>
      </trkpt>
      <trkpt lat="45.27268" lon="6.03672">
        <time>2023-01-28T06:46:00+00:00</time>
        <ele>1941.0</ele>
      </trkpt>
      <trkpt lat="45.27267" lon="6.03669">
        <time>2023-01-28T06:46:02+00:00</time>
        <ele>1941.0</ele>
      </trkpt>
      <trkpt lat="45.27263" lon="6.03658">
        <time>2023-01-28T06:46:12+00:00</time>
        <ele>1943.0</ele>
      </trkpt>
      <trkpt lat="45.27263" lon="6.03657">
        <time>2023-01-28T06:46:13+00:00</time>
        <ele>1943.0</ele>
      </trkpt>
      <trkpt lat="45.27259" lon="6.03645">
        <time>2023-01-28T06:46:24+00:00</time>
        <ele>1944.0</ele>
      </trkpt>
      <trkpt lat="45.27258" lon="6.03644">
        <time>2023-01-28T06:46:25+00:00</time>
        <ele>1944.0</ele>
      </trkpt>
      <trkpt lat="45.27255" lon="6.03637">
        <time>2023-01-28T06:46:31+00:00</time>
        <ele>1945.0</ele>
      </trkpt>
      <trkpt lat="45.27254" lon="6.03632">
        <time>2023-01-28T06:46:36+00:00</time>
        <ele>1946.0</ele>
      </trkpt>
      <trkpt lat="45.27253" lon="6.03629">
        <time>2023-01-28T06:46:39+00:00</time>
        <ele>1946.0</ele>
      </trkpt>
      <trkpt lat="45.27252" lon="6.03627">
        <time>2023-01-28T06:46:41+00:00</time>
        <ele>1947.0</ele>
      </trkpt>
      <trkpt lat="45.27248" lon="6.03622">
        <time>2023-01-28T06:46:47+00:00</time>
        <ele>1948.0</ele>
      </trkpt>
      <trkpt lat="45.27247" lon="6.0362">
        <time>2023-01-28T06:46:49+00:00</time>
        <ele>1948.0</ele>
      </trkpt>
      <trkpt lat="45.2724" lon="6.03615">
        <time>2023-01-28T06:46:57+00:00</time>
        <ele>1950.0</ele>
      </trkpt>
      <trkpt lat="45.27234" lon="6.03612">
        <time>2023-01-28T06:47:03+00:00</time>
        <ele>1950.0</ele>
      </trkpt>
      <trkpt lat="45.27234" lon="6.03612">
        <time>2023-01-28T06:47:04+00:00</time>
        <ele>1950.0</ele>
      </trkpt>
      <trkpt lat="45.27231" lon="6.03611">
        <time>2023-01-28T06:47:07+00:00</time>
        <ele>1950.0</ele>
      </trkpt>
      <trkpt lat="45.27228" lon="6.03611">
        <time>2023-01-28T06:47:12+00:00</time>
        <ele>1950.0</ele>
      </trkpt>
      <trkpt lat="45.27226" lon="6.03612">
        <time>2023-01-28T06:47:14+00:00</time>
        <ele>1949.0</ele>
      </trkpt>
      <trkpt lat="45.27221" lon="6.0361">
        <time>2023-01-28T06:47:19+00:00</time>
        <ele>1949.0</ele>
      </trkpt>
      <trkpt lat="45.27219" lon="6.03607">
        <time>2023-01-28T06:47:23+00:00</time>
        <ele>1950.0</ele>
      </trkpt>
      <trkpt lat="45.27217" lon="6.03605">
        <time>2023-01-28T06:47:25+00:00</time>
        <ele>1950.0</ele>
      </trkpt>
      <trkpt lat="45.27215" lon="6.03602">
        <time>2023-01-28T06:47:28+00:00</time>
        <ele>1950.0</ele>
      </trkpt>
      <trkpt lat="45.2721" lon="6.03596">
        <time>2023-01-28T06:47:34+00:00</time>
        <ele>1951.0</ele>
      </trkpt>
      <trkpt lat="45.27209" lon="6.03595">
        <time>2023-01-28T06:47:36+00:00</time>
        <ele>1952.0</ele>
      </trkpt>
      <trkpt lat="45.27207" lon="6.03593">
        <time>2023-01-28T06:47:38+00:00</time>
        <ele>1952.0</ele>
      </trkpt>
      <trkpt lat="45.27203" lon="6.03589">
        <time>2023-01-28T06:47:44+00:00</time>
        <ele>1953.0</ele>
      </trkpt>
      <trkpt lat="45.27202" lon="6.03588">
        <time>2023-01-28T06:47:45+00:00</time>
        <ele>1953.0</ele>
      </trkpt>
      <trkpt lat="45.27199" lon="6.03588">
        <time>2023-01-28T06:47:48+00:00</time>
        <ele>1953.0</ele>
      </trkpt>
      <trkpt lat="45.27194" lon="6.03586">
        <time>2023-01-28T06:47:53+00:00</time>
        <ele>1953.0</ele>
      </trkpt>
      <trkpt lat="45.27192" lon="6.03585">
        <time>2023-01-28T06:47:55+00:00</time>
        <ele>1953.0</ele>
      </trkpt>
      <trkpt lat="45.27189" lon="6.03581">
        <time>2023-01-28T06:48:00+00:00</time>
        <ele>1953.0</ele>
      </trkpt>
      <trkpt lat="45.27188" lon="6.0358">
        <time>2023-01-28T06:48:02+00:00</time>
        <ele>1953.0</ele>
      </trkpt>
      <trkpt lat="45.27187" lon="6.03579">
        <time>2023-01-28T06:48:04+00:00</time>
        <ele>1953.0</ele>
      </trkpt>
      <trkpt lat="45.27189" lon="6.03574">
        <time>2023-01-28T06:48:12+00:00</time>
        <ele>1954.0</ele>
      </trkpt>
      <trkpt lat="45.27191" lon="6.03572">
        <time>2023-01-28T06:48:16+00:00</time>
        <ele>1954.0</ele>
      </trkpt>
      <trkpt lat="45.2719" lon="6.0357">
        <time>2023-01-28T06:48:19+00:00</time>
        <ele>1954.0</ele>
      </trkpt>
      <trkpt lat="45.27189" lon="6.03569">
        <time>2023-01-28T06:48:20+00:00</time>
        <ele>1954.0</ele>
      </trkpt>
      <trkpt lat="45.27188" lon="6.03569">
        <time>2023-01-28T06:48:21+00:00</time>
        <ele>1954.0</ele>
      </trkpt>
      <trkpt lat="45.27184" lon="6.03566">
        <time>2023-01-28T06:48:26+00:00</time>
        <ele>1954.0</ele>
      </trkpt>
      <trkpt lat="45.27182" lon="6.03565">
        <time>2023-01-28T06:48:28+00:00</time>
        <ele>1955.0</ele>
      </trkpt>
      <trkpt lat="45.27178" lon="6.03567">
        <time>2023-01-28T06:48:33+00:00</time>
        <ele>1955.0</ele>
      </trkpt>
      <trkpt lat="45.27169" lon="6.03569">
        <time>2023-01-28T06:48:44+00:00</time>
        <ele>1955.0</ele>
      </trkpt>
      <trkpt lat="45.27168" lon="6.03569">
        <time>2023-01-28T06:48:45+00:00</time>
        <ele>1956.0</ele>
      </trkpt>
      <trkpt lat="45.27161" lon="6.03571">
        <time>2023-01-28T06:48:55+00:00</time>
        <ele>1956.0</ele>
      </trkpt>
      <trkpt lat="45.27158" lon="6.03572">
        <time>2023-01-28T06:48:58+00:00</time>
        <ele>1956.0</ele>
      </trkpt>
      <trkpt lat="45.27153" lon="6.03573">
        <time>2023-01-28T06:49:02+00:00</time>
        <ele>1957.0</ele>
      </trkpt>
      <trkpt lat="45.27152" lon="6.03573">
        <time>2023-01-28T06:49:03+00:00</time>
        <ele>1957.0</ele>
      </trkpt>
      <trkpt lat="45.27145" lon="6.03574">
        <time>2023-01-28T06:49:13+00:00</time>
        <ele>1958.0</ele>
      </trkpt>
      <trkpt lat="45.27144" lon="6.03574">
        <time>2023-01-28T06:49:14+00:00</time>
        <ele>1958.0</ele>
      </trkpt>
      <trkpt lat="45.27136" lon="6.03575">
        <time>2023-01-28T06:49:24+00:00</time>
        <ele>1959.0</ele>
      </trkpt>
      <trkpt lat="45.27131" lon="6.03577">
        <time>2023-01-28T06:49:30+00:00</time>
        <ele>1960.0</ele>
      </trkpt>
      <trkpt lat="45.27125" lon="6.03578">
        <time>2023-01-28T06:49:38+00:00</time>
        <ele>1961.0</ele>
      </trkpt>
      <trkpt lat="45.27121" lon="6.03579">
        <time>2023-01-28T06:49:42+00:00</time>
        <ele>1962.0</ele>
      </trkpt>
      <trkpt lat="45.2712" lon="6.0358">
        <time>2023-01-28T06:49:44+00:00</time>
        <ele>1962.0</ele>
      </trkpt>
      <trkpt lat="45.27113" lon="6.03581">
        <time>2023-01-28T06:49:51+00:00</time>
        <ele>1963.0</ele>
      </trkpt>
      <trkpt lat="45.27112" lon="6.03581">
        <time>2023-01-28T06:49:54+00:00</time>
        <ele>1963.0</ele>
      </trkpt>
      <trkpt lat="45.2711" lon="6.03581">
        <time>2023-01-28T06:49:58+00:00</time>
        <ele>1964.0</ele>
      </trkpt>
      <trkpt lat="45.27106" lon="6.03582">
        <time>2023-01-28T06:50:02+00:00</time>
        <ele>1964.0</ele>
      </trkpt>
      <trkpt lat="45.27104" lon="6.03583">
        <time>2023-01-28T06:50:06+00:00</time>
        <ele>1965.0</ele>
      </trkpt>
      <trkpt lat="45.27103" lon="6.03584">
        <time>2023-01-28T06:50:08+00:00</time>
        <ele>1965.0</ele>
      </trkpt>
      <trkpt lat="45.27097" lon="6.03586">
        <time>2023-01-28T06:50:15+00:00</time>
        <ele>1966.0</ele>
      </trkpt>
      <trkpt lat="45.27093" lon="6.03587">
        <time>2023-01-28T06:50:19+00:00</time>
        <ele>1966.0</ele>
      </trkpt>
      <trkpt lat="45.2709" lon="6.03587">
        <time>2023-01-28T06:50:23+00:00</time>
        <ele>1967.0</ele>
      </trkpt>
      <trkpt lat="45.27085" lon="6.03589">
        <time>2023-01-28T06:50:30+00:00</time>
        <ele>1969.0</ele>
      </trkpt>
      <trkpt lat="45.2708" lon="6.0359">
        <time>2023-01-28T06:50:38+00:00</time>
        <ele>1971.0</ele>
      </trkpt>
      <trkpt lat="45.27078" lon="6.0359">
        <time>2023-01-28T06:50:40+00:00</time>
        <ele>1971.0</ele>
      </trkpt>
      <trkpt lat="45.27074" lon="6.03591">
        <time>2023-01-28T06:50:48+00:00</time>
        <ele>1972.0</ele>
      </trkpt>
      <trkpt lat="45.27072" lon="6.03591">
        <time>2023-01-28T06:50:51+00:00</time>
        <ele>1973.0</ele>
      </trkpt>
      <trkpt lat="45.27066" lon="6.03589">
        <time>2023-01-28T06:51:00+00:00</time>
        <ele>1976.0</ele>
      </trkpt>
      <trkpt lat="45.27064" lon="6.03589">
        <time>2023-01-28T06:51:02+00:00</time>
        <ele>1977.0</ele>
      </trkpt>
      <trkpt lat="45.2706" lon="6.03589">
        <time>2023-01-28T06:51:08+00:00</time>
        <ele>1979.0</ele>
      </trkpt>
      <trkpt lat="45.27059" lon="6.03589">
        <time>2023-01-28T06:51:10+00:00</time>
        <ele>1980.0</ele>
      </trkpt>
      <trkpt lat="45.27057" lon="6.03589">
        <time>2023-01-28T06:51:15+00:00</time>
        <ele>1981.0</ele>
      </trkpt>
      <trkpt lat="45.27053" lon="6.03589">
        <time>2023-01-28T06:51:21+00:00</time>
        <ele>1983.0</ele>
      </trkpt>
      <trkpt lat="45.27048" lon="6.0359">
        <time>2023-01-28T06:51:29+00:00</time>
        <ele>1984.0</ele>
      </trkpt>
      <trkpt lat="45.27046" lon="6.03591">
        <time>2023-01-28T06:51:33+00:00</time>
        <ele>1985.0</ele>
      </trkpt>
      <trkpt lat="45.27043" lon="6.03591">
        <time>2023-01-28T06:51:38+00:00</time>
        <ele>1986.0</ele>
      </trkpt>
      <trkpt lat="45.2704" lon="6.03592">
        <time>2023-01-28T06:51:43+00:00</time>
        <ele>1987.0</ele>
      </trkpt>
      <trkpt lat="45.27038" lon="6.03592">
        <time>2023-01-28T06:51:45+00:00</time>
        <ele>1987.0</ele>
      </trkpt>
      <trkpt lat="45.27035" lon="6.03593">
        <time>2023-01-28T06:51:51+00:00</time>
        <ele>1988.0</ele>
      </trkpt>
      <trkpt lat="45.27031" lon="6.03594">
        <time>2023-01-28T06:51:57+00:00</time>
        <ele>1990.0</ele>
      </trkpt>
      <trkpt lat="45.27028" lon="6.03596">
        <time>2023-01-28T06:52:04+00:00</time>
        <ele>1990.0</ele>
      </trkpt>
      <trkpt lat="45.27025" lon="6.03597">
        <time>2023-01-28T06:52:09+00:00</time>
        <ele>1991.0</ele>
      </trkpt>
      <trkpt lat="45.27024" lon="6.03597">
        <time>2023-01-28T06:52:11+00:00</time>
        <ele>1991.0</ele>
      </trkpt>
      <trkpt lat="45.2702" lon="6.03598">
        <time>2023-01-28T06:52:17+00:00</time>
        <ele>1993.0</ele>
      </trkpt>
      <trkpt lat="45.27017" lon="6.03599">
        <time>2023-01-28T06:52:20+00:00</time>
        <ele>1993.0</ele>
      </trkpt>
      <trkpt lat="45.27013" lon="6.03599">
        <time>2023-01-28T06:52:27+00:00</time>
        <ele>1995.0</ele>
      </trkpt>
      <trkpt lat="45.27013" lon="6.036">
        <time>2023-01-28T06:52:28+00:00</time>
        <ele>1995.0</ele>
      </trkpt>
      <trkpt lat="45.27007" lon="6.03601">
        <time>2023-01-28T06:52:36+00:00</time>
        <ele>1996.0</ele>
      </trkpt>
      <trkpt lat="45.27002" lon="6.03603">
        <time>2023-01-28T06:52:44+00:00</time>
        <ele>1997.0</ele>
      </trkpt>
      <trkpt lat="45.27002" lon="6.03603">
        <time>2023-01-28T06:52:45+00:00</time>
        <ele>1997.0</ele>
      </trkpt>
      <trkpt lat="45.26998" lon="6.03603">
        <time>2023-01-28T06:52:51+00:00</time>
        <ele>1998.0</ele>
      </trkpt>
      <trkpt lat="45.26996" lon="6.03603">
        <time>2023-01-28T06:52:55+00:00</time>
        <ele>1999.0</ele>
      </trkpt>
      <trkpt lat="45.26994" lon="6.03602">
        <time>2023-01-28T06:52:57+00:00</time>
        <ele>1999.0</ele>
      </trkpt>
      <trkpt lat="45.26989" lon="6.03604">
        <time>2023-01-28T06:53:04+00:00</time>
        <ele>2000.0</ele>
      </trkpt>
      <trkpt lat="45.26986" lon="6.03605">
        <time>2023-01-28T06:53:07+00:00</time>
        <ele>2001.0</ele>
      </trkpt>
      <trkpt lat="45.26983" lon="6.03606">
        <time>2023-01-28T06:53:12+00:00</time>
        <ele>2002.0</ele>
      </trkpt>
      <trkpt lat="45.26981" lon="6.03606">
        <time>2023-01-28T06:53:14+00:00</time>
        <ele>2002.0</ele>
      </trkpt>
      <trkpt lat="45.26976" lon="6.03608">
        <time>2023-01-28T06:53:20+00:00</time>
        <ele>2004.0</ele>
      </trkpt>
      <trkpt lat="45.26972" lon="6.03609">
        <time>2023-01-28T06:53:24+00:00</time>
        <ele>2005.0</ele>
      </trkpt>
      <trkpt lat="45.26968" lon="6.0361">
        <time>2023-01-28T06:53:28+00:00</time>
        <ele>2006.0</ele>
      </trkpt>
      <trkpt lat="45.26965" lon="6.03612">
        <time>2023-01-28T06:53:33+00:00</time>
        <ele>2007.0</ele>
      </trkpt>
      <trkpt lat="45.26964" lon="6.03613">
        <time>2023-01-28T06:53:34+00:00</time>
        <ele>2008.0</ele>
      </trkpt>
      <trkpt lat="45.26962" lon="6.03614">
        <time>2023-01-28T06:53:37+00:00</time>
        <ele>2009.0</ele>
      </trkpt>
      <trkpt lat="45.26957" lon="6.03617">
        <time>2023-01-28T06:53:45+00:00</time>
        <ele>2011.0</ele>
      </trkpt>
      <trkpt lat="45.26956" lon="6.03618">
        <time>2023-01-28T06:53:46+00:00</time>
        <ele>2011.0</ele>
      </trkpt>
      <trkpt lat="45.26952" lon="6.03621">
        <time>2023-01-28T06:53:53+00:00</time>
        <ele>2013.0</ele>
      </trkpt>
      <trkpt lat="45.2695" lon="6.03625">
        <time>2023-01-28T06:53:57+00:00</time>
        <ele>2014.0</ele>
      </trkpt>
      <trkpt lat="45.26949" lon="6.03628">
        <time>2023-01-28T06:54:04+00:00</time>
        <ele>2014.0</ele>
      </trkpt>
      <trkpt lat="45.2695" lon="6.03633">
        <time>2023-01-28T06:54:12+00:00</time>
        <ele>2013.0</ele>
      </trkpt>
      <trkpt lat="45.26948" lon="6.03637">
        <time>2023-01-28T06:54:18+00:00</time>
        <ele>2014.0</ele>
      </trkpt>
      <trkpt lat="45.26948" lon="6.03638">
        <time>2023-01-28T06:54:20+00:00</time>
        <ele>2014.0</ele>
      </trkpt>
      <trkpt lat="45.26946" lon="6.0364">
        <time>2023-01-28T06:54:27+00:00</time>
        <ele>2016.0</ele>
      </trkpt>
      <trkpt lat="45.26945" lon="6.0364">
        <time>2023-01-28T06:54:28+00:00</time>
        <ele>2016.0</ele>
      </trkpt>
      <trkpt lat="45.26944" lon="6.03636">
        <time>2023-01-28T06:54:36+00:00</time>
        <ele>2017.0</ele>
      </trkpt>
      <trkpt lat="45.26943" lon="6.03636">
        <time>2023-01-28T06:54:37+00:00</time>
        <ele>2017.0</ele>
      </trkpt>
      <trkpt lat="45.26942" lon="6.03635">
        <time>2023-01-28T06:54:40+00:00</time>
        <ele>2018.0</ele>
      </trkpt>
      <trkpt lat="45.2694" lon="6.03635">
        <time>2023-01-28T06:54:44+00:00</time>
        <ele>2019.0</ele>
      </trkpt>
      <trkpt lat="45.2694" lon="6.03635">
        <time>2023-01-28T06:54:45+00:00</time>
        <ele>2019.0</ele>
      </trkpt>
      <trkpt lat="45.26938" lon="6.03635">
        <time>2023-01-28T06:54:48+00:00</time>
        <ele>2020.0</ele>
      </trkpt>
      <trkpt lat="45.26937" lon="6.03634">
        <time>2023-01-28T06:54:51+00:00</time>
        <ele>2021.0</ele>
      </trkpt>
      <trkpt lat="45.26935" lon="6.03634">
        <time>2023-01-28T06:54:57+00:00</time>
        <ele>2021.0</ele>
      </trkpt>
      <trkpt lat="45.26932" lon="6.03635">
        <time>2023-01-28T06:55:03+00:00</time>
        <ele>2023.0</ele>
      </trkpt>
      <trkpt lat="45.2693" lon="6.03635">
        <time>2023-01-28T06:55:09+00:00</time>
        <ele>2023.0</ele>
      </trkpt>
      <trkpt lat="45.26931" lon="6.03638">
        <time>2023-01-28T06:55:13+00:00</time>
        <ele>2023.0</ele>
      </trkpt>
      <trkpt lat="45.26932" lon="6.0364">
        <time>2023-01-28T06:55:16+00:00</time>
        <ele>2023.0</ele>
      </trkpt>
      <trkpt lat="45.26932" lon="6.03644">
        <time>2023-01-28T06:55:23+00:00</time>
        <ele>2024.0</ele>
      </trkpt>
      <trkpt lat="45.26932" lon="6.03644">
        <time>2023-01-28T06:55:24+00:00</time>
        <ele>2024.0</ele>
      </trkpt>
      <trkpt lat="45.26928" lon="6.03644">
        <time>2023-01-28T06:55:33+00:00</time>
        <ele>2026.0</ele>
      </trkpt>
      <trkpt lat="45.26928" lon="6.03645">
        <time>2023-01-28T06:55:35+00:00</time>
        <ele>2026.0</ele>
      </trkpt>
      <trkpt lat="45.26928" lon="6.03645">
        <time>2023-01-28T06:55:43+00:00</time>
        <ele>2026.0</ele>
      </trkpt>
      <trkpt lat="45.26928" lon="6.03645">
        <time>2023-01-28T06:55:45+00:00</time>
        <ele>2026.0</ele>
      </trkpt>
      <trkpt lat="45.26928" lon="6.03645">
        <time>2023-01-28T06:55:46+00:00</time>
        <ele>2026.0</ele>
      </trkpt>
      <trkpt lat="45.26928" lon="6.03646">
        <time>2023-01-28T06:55:54+00:00</time>
        <ele>2025.0</ele>
      </trkpt>
      <trkpt lat="45.26929" lon="6.03651">
        <time>2023-01-28T06:56:01+00:00</time>
        <ele>2024.0</ele>
      </trkpt>
      <trkpt lat="45.26929" lon="6.03658">
        <time>2023-01-28T06:56:13+00:00</time>
        <ele>2022.0</ele>
      </trkpt>
      <trkpt lat="45.26928" lon="6.03659">
        <time>2023-01-28T06:56:19+00:00</time>
        <ele>2023.0</ele>
      </trkpt>
      <trkpt lat="45.26928" lon="6.03659">
        <time>2023-01-28T06:56:22+00:00</time>
        <ele>2023.0</ele>
      </trkpt>
      <trkpt lat="45.26926" lon="6.03659">
        <time>2023-01-28T06:56:29+00:00</time>
        <ele>2024.0</ele>
      </trkpt>
      <trkpt lat="45.26924" lon="6.03659">
        <time>2023-01-28T06:56:35+00:00</time>
        <ele>2025.0</ele>
      </trkpt>
      <trkpt lat="45.26923" lon="6.03659">
        <time>2023-01-28T06:56:37+00:00</time>
        <ele>2026.0</ele>
      </trkpt>
      <trkpt lat="45.26918" lon="6.03658">
        <time>2023-01-28T06:56:48+00:00</time>
        <ele>2029.0</ele>
      </trkpt>
      <trkpt lat="45.26914" lon="6.03657">
        <time>2023-01-28T06:56:57+00:00</time>
        <ele>2031.0</ele>
      </trkpt>
      <trkpt lat="45.26911" lon="6.03657">
        <time>2023-01-28T06:57:06+00:00</time>
        <ele>2032.0</ele>
      </trkpt>
      <trkpt lat="45.26902" lon="6.03659">
        <time>2023-01-28T06:57:15+00:00</time>
        <ele>2035.0</ele>
      </trkpt>
      <trkpt lat="45.269" lon="6.03659">
        <time>2023-01-28T06:57:16+00:00</time>
        <ele>2036.0</ele>
      </trkpt>
      <trkpt lat="45.26894" lon="6.03662">
        <time>2023-01-28T06:57:24+00:00</time>
        <ele>2038.0</ele>
      </trkpt>
      <trkpt lat="45.26893" lon="6.03663">
        <time>2023-01-28T06:57:26+00:00</time>
        <ele>2038.0</ele>
      </trkpt>
      <trkpt lat="45.26892" lon="6.03667">
        <time>2023-01-28T06:57:35+00:00</time>
        <ele>2039.0</ele>
      </trkpt>
      <trkpt lat="45.26894" lon="6.0367">
        <time>2023-01-28T06:57:40+00:00</time>
        <ele>2038.0</ele>
      </trkpt>
      <trkpt lat="45.26895" lon="6.03675">
        <time>2023-01-28T06:57:48+00:00</time>
        <ele>2036.0</ele>
      </trkpt>
      <trkpt lat="45.26893" lon="6.03678">
        <time>2023-01-28T06:57:52+00:00</time>
        <ele>2035.0</ele>
      </trkpt>
      <trkpt lat="45.26891" lon="6.03678">
        <time>2023-01-28T06:57:55+00:00</time>
        <ele>2036.0</ele>
      </trkpt>
      <trkpt lat="45.26891" lon="6.03678">
        <time>2023-01-28T06:58:00+00:00</time>
        <ele>2036.0</ele>
      </trkpt>
      <trkpt lat="45.26891" lon="6.03678">
        <time>2023-01-28T06:58:07+00:00</time>
        <ele>2036.0</ele>
      </trkpt>
      <trkpt lat="45.26891" lon="6.03678">
        <time>2023-01-28T06:58:14+00:00</time>
        <ele>2036.0</ele>
      </trkpt>
      <trkpt lat="45.26891" lon="6.03678">
        <time>2023-01-28T06:58:18+00:00</time>
        <ele>2036.0</ele>
      </trkpt>
      <trkpt lat="45.26889" lon="6.03678">
        <time>2023-01-28T06:58:24+00:00</time>
        <ele>2037.0</ele>
      </trkpt>
      <trkpt lat="45.2688" lon="6.03675">
        <time>2023-01-28T06:58:40+00:00</time>
        <ele>2041.0</ele>
      </trkpt>
      <trkpt lat="45.26879" lon="6.03675">
        <time>2023-01-28T06:58:43+00:00</time>
        <ele>2041.0</ele>
      </trkpt>
      <trkpt lat="45.26875" lon="6.03669">
        <time>2023-01-28T06:58:55+00:00</time>
        <ele>2044.0</ele>
      </trkpt>
      <trkpt lat="45.26873" lon="6.03666">
        <time>2023-01-28T06:59:02+00:00</time>
        <ele>2044.0</ele>
      </trkpt>
      <trkpt lat="45.26871" lon="6.0366">
        <time>2023-01-28T06:59:18+00:00</time>
        <ele>2045.0</ele>
      </trkpt>
      <trkpt lat="45.26866" lon="6.03658">
        <time>2023-01-28T06:59:32+00:00</time>
        <ele>2046.0</ele>
      </trkpt>
      <trkpt lat="45.26862" lon="6.03661">
        <time>2023-01-28T06:59:52+00:00</time>
        <ele>2047.0</ele>
      </trkpt>
      <trkpt lat="45.26862" lon="6.03662">
        <time>2023-01-28T06:59:53+00:00</time>
        <ele>2047.0</ele>
      </trkpt>
      <trkpt lat="45.26857" lon="6.03665">
        <time>2023-01-28T07:00:03+00:00</time>
        <ele>2048.0</ele>
      </trkpt>
      <trkpt lat="45.26854" lon="6.03665">
        <time>2023-01-28T07:00:05+00:00</time>
        <ele>2048.0</ele>
      </trkpt>
      <trkpt lat="45.26851" lon="6.03666">
        <time>2023-01-28T07:00:07+00:00</time>
        <ele>2048.0</ele>
      </trkpt>
      <trkpt lat="45.26845" lon="6.03667">
        <time>2023-01-28T07:00:15+00:00</time>
        <ele>2049.0</ele>
      </trkpt>
      <trkpt lat="45.26844" lon="6.03667">
        <time>2023-01-28T07:00:16+00:00</time>
        <ele>2050.0</ele>
      </trkpt>
      <trkpt lat="45.26844" lon="6.0367">
        <time>2023-01-28T07:00:20+00:00</time>
        <ele>2050.0</ele>
      </trkpt>
      <trkpt lat="45.26842" lon="6.03673">
        <time>2023-01-28T07:00:25+00:00</time>
        <ele>2048.0</ele>
      </trkpt>
      <trkpt lat="45.26841" lon="6.03675">
        <time>2023-01-28T07:00:30+00:00</time>
        <ele>2047.0</ele>
      </trkpt>
      <trkpt lat="45.26841" lon="6.03676">
        <time>2023-01-28T07:00:32+00:00</time>
        <ele>2047.0</ele>
      </trkpt>
      <trkpt lat="45.26842" lon="6.03677">
        <time>2023-01-28T07:00:34+00:00</time>
        <ele>2046.0</ele>
      </trkpt>
      <trkpt lat="45.26843" lon="6.0368">
        <time>2023-01-28T07:00:38+00:00</time>
        <ele>2045.0</ele>
      </trkpt>
      <trkpt lat="45.26844" lon="6.03683">
        <time>2023-01-28T07:00:42+00:00</time>
        <ele>2043.0</ele>
      </trkpt>
      <trkpt lat="45.26842" lon="6.03685">
        <time>2023-01-28T07:00:46+00:00</time>
        <ele>2042.0</ele>
      </trkpt>
      <trkpt lat="45.26841" lon="6.03684">
        <time>2023-01-28T07:00:50+00:00</time>
        <ele>2043.0</ele>
      </trkpt>
      <trkpt lat="45.26841" lon="6.03684">
        <time>2023-01-28T07:01:01+00:00</time>
        <ele>2043.0</ele>
      </trkpt>
      <trkpt lat="45.26838" lon="6.03684">
        <time>2023-01-28T07:01:03+00:00</time>
        <ele>2043.0</ele>
      </trkpt>
      <trkpt lat="45.26836" lon="6.03684">
        <time>2023-01-28T07:01:05+00:00</time>
        <ele>2043.0</ele>
      </trkpt>
      <trkpt lat="45.26828" lon="6.03685">
        <time>2023-01-28T07:01:09+00:00</time>
        <ele>2042.0</ele>
      </trkpt>
      <trkpt lat="45.26824" lon="6.03686">
        <time>2023-01-28T07:01:11+00:00</time>
        <ele>2042.0</ele>
      </trkpt>
      <trkpt lat="45.26817" lon="6.03685">
        <time>2023-01-28T07:01:15+00:00</time>
        <ele>2041.0</ele>
      </trkpt>
      <trkpt lat="45.26817" lon="6.03685">
        <time>2023-01-28T07:01:16+00:00</time>
        <ele>2041.0</ele>
      </trkpt>
      <trkpt lat="45.26817" lon="6.03685">
        <time>2023-01-28T07:01:18+00:00</time>
        <ele>2041.0</ele>
      </trkpt>
      <trkpt lat="45.26817" lon="6.03685">
        <time>2023-01-28T07:01:21+00:00</time>
        <ele>2041.0</ele>
      </trkpt>
      <trkpt lat="45.26817" lon="6.03686">
        <time>2023-01-28T07:01:23+00:00</time>
        <ele>2041.0</ele>
      </trkpt>
      <trkpt lat="45.26817" lon="6.03685">
        <time>2023-01-28T07:01:25+00:00</time>
        <ele>2041.0</ele>
      </trkpt>
      <trkpt lat="45.26816" lon="6.03685">
        <time>2023-01-28T07:01:28+00:00</time>
        <ele>2041.0</ele>
      </trkpt>
      <trkpt lat="45.26815" lon="6.03685">
        <time>2023-01-28T07:01:30+00:00</time>
        <ele>2041.0</ele>
      </trkpt>
      <trkpt lat="45.26813" lon="6.03685">
        <time>2023-01-28T07:01:33+00:00</time>
        <ele>2041.0</ele>
      </trkpt>
      <trkpt lat="45.2681" lon="6.03683">
        <time>2023-01-28T07:01:36+00:00</time>
        <ele>2042.0</ele>
      </trkpt>
      <trkpt lat="45.26809" lon="6.03681">
        <time>2023-01-28T07:01:37+00:00</time>
        <ele>2043.0</ele>
      </trkpt>
      <trkpt lat="45.26806" lon="6.03675">
        <time>2023-01-28T07:01:39+00:00</time>
        <ele>2045.0</ele>
      </trkpt>
      <trkpt lat="45.26801" lon="6.03668">
        <time>2023-01-28T07:01:41+00:00</time>
        <ele>2048.0</ele>
      </trkpt>
      <trkpt lat="45.26798" lon="6.03666">
        <time>2023-01-28T07:01:42+00:00</time>
        <ele>2048.0</ele>
      </trkpt>
      <trkpt lat="45.26791" lon="6.0366">
        <time>2023-01-28T07:01:45+00:00</time>
        <ele>2048.0</ele>
      </trkpt>
      <trkpt lat="45.2679" lon="6.0366">
        <time>2023-01-28T07:01:46+00:00</time>
        <ele>2048.0</ele>
      </trkpt>
      <trkpt lat="45.26785" lon="6.03661">
        <time>2023-01-28T07:01:53+00:00</time>
        <ele>2047.0</ele>
      </trkpt>
      <trkpt lat="45.26783" lon="6.03661">
        <time>2023-01-28T07:01:55+00:00</time>
        <ele>2047.0</ele>
      </trkpt>
      <trkpt lat="45.26783" lon="6.03662">
        <time>2023-01-28T07:01:56+00:00</time>
        <ele>2047.0</ele>
      </trkpt>
      <trkpt lat="45.26781" lon="6.03663">
        <time>2023-01-28T07:01:59+00:00</time>
        <ele>2047.0</ele>
      </trkpt>
      <trkpt lat="45.26778" lon="6.03664">
        <time>2023-01-28T07:02:02+00:00</time>
        <ele>2047.0</ele>
      </trkpt>
      <trkpt lat="45.26778" lon="6.03664">
        <time>2023-01-28T07:02:03+00:00</time>
        <ele>2047.0</ele>
      </trkpt>
      <trkpt lat="45.26774" lon="6.03667">
        <time>2023-01-28T07:02:08+00:00</time>
        <ele>2047.0</ele>
      </trkpt>
      <trkpt lat="45.26773" lon="6.03667">
        <time>2023-01-28T07:02:09+00:00</time>
        <ele>2047.0</ele>
      </trkpt>
      <trkpt lat="45.2677" lon="6.0367">
        <time>2023-01-28T07:02:14+00:00</time>
        <ele>2047.0</ele>
      </trkpt>
      <trkpt lat="45.26768" lon="6.03671">
        <time>2023-01-28T07:02:19+00:00</time>
        <ele>2046.0</ele>
      </trkpt>
      <trkpt lat="45.26768" lon="6.03671">
        <time>2023-01-28T07:02:20+00:00</time>
        <ele>2046.0</ele>
      </trkpt>
      <trkpt lat="45.26768" lon="6.03671">
        <time>2023-01-28T07:02:24+00:00</time>
        <ele>2046.0</ele>
      </trkpt>
      <trkpt lat="45.26768" lon="6.03671">
        <time>2023-01-28T07:02:28+00:00</time>
        <ele>2046.0</ele>
      </trkpt>
      <trkpt lat="45.26768" lon="6.03671">
        <time>2023-01-28T07:02:29+00:00</time>
        <ele>2046.0</ele>
      </trkpt>
      <trkpt lat="45.26767" lon="6.0367">
        <time>2023-01-28T07:02:33+00:00</time>
        <ele>2046.0</ele>
      </trkpt>
      <trkpt lat="45.26767" lon="6.0367">
        <time>2023-01-28T07:02:34+00:00</time>
        <ele>2046.0</ele>
      </trkpt>
      <trkpt lat="45.26767" lon="6.0367">
        <time>2023-01-28T07:02:37+00:00</time>
        <ele>2046.0</ele>
      </trkpt>
      <trkpt lat="45.26767" lon="6.0367">
        <time>2023-01-28T07:02:38+00:00</time>
        <ele>2046.0</ele>
      </trkpt>
      <trkpt lat="45.26767" lon="6.0367">
        <time>2023-01-28T07:02:42+00:00</time>
        <ele>2046.0</ele>
      </trkpt>
      <trkpt lat="45.26768" lon="6.03663">
        <time>2023-01-28T07:02:45+00:00</time>
        <ele>2046.0</ele>
      </trkpt>
      <trkpt lat="45.26766" lon="6.03659">
        <time>2023-01-28T07:02:48+00:00</time>
        <ele>2046.0</ele>
      </trkpt>
      <trkpt lat="45.26764" lon="6.03656">
        <time>2023-01-28T07:02:51+00:00</time>
        <ele>2046.0</ele>
      </trkpt>
      <trkpt lat="45.26759" lon="6.03657">
        <time>2023-01-28T07:02:59+00:00</time>
        <ele>2046.0</ele>
      </trkpt>
      <trkpt lat="45.26759" lon="6.03657">
        <time>2023-01-28T07:03:00+00:00</time>
        <ele>2046.0</ele>
      </trkpt>
      <trkpt lat="45.26757" lon="6.03659">
        <time>2023-01-28T07:03:03+00:00</time>
        <ele>2045.0</ele>
      </trkpt>
      <trkpt lat="45.26755" lon="6.0366">
        <time>2023-01-28T07:03:05+00:00</time>
        <ele>2045.0</ele>
      </trkpt>
      <trkpt lat="45.26754" lon="6.03661">
        <time>2023-01-28T07:03:06+00:00</time>
        <ele>2045.0</ele>
      </trkpt>
      <trkpt lat="45.26753" lon="6.03663">
        <time>2023-01-28T07:03:08+00:00</time>
        <ele>2045.0</ele>
      </trkpt>
      <trkpt lat="45.26748" lon="6.03666">
        <time>2023-01-28T07:03:13+00:00</time>
        <ele>2043.0</ele>
      </trkpt>
      <trkpt lat="45.26747" lon="6.03666">
        <time>2023-01-28T07:03:14+00:00</time>
        <ele>2043.0</ele>
      </trkpt>
      <trkpt lat="45.26745" lon="6.03665">
        <time>2023-01-28T07:03:16+00:00</time>
        <ele>2042.0</ele>
      </trkpt>
      <trkpt lat="45.26744" lon="6.03665">
        <time>2023-01-28T07:03:17+00:00</time>
        <ele>2042.0</ele>
      </trkpt>
      <trkpt lat="45.26735" lon="6.03661">
        <time>2023-01-28T07:03:24+00:00</time>
        <ele>2040.0</ele>
      </trkpt>
      <trkpt lat="45.26734" lon="6.03661">
        <time>2023-01-28T07:03:25+00:00</time>
        <ele>2040.0</ele>
      </trkpt>
      <trkpt lat="45.26729" lon="6.03655">
        <time>2023-01-28T07:03:31+00:00</time>
        <ele>2040.0</ele>
      </trkpt>
      <trkpt lat="45.26726" lon="6.03651">
        <time>2023-01-28T07:03:35+00:00</time>
        <ele>2040.0</ele>
      </trkpt>
      <trkpt lat="45.26723" lon="6.03647">
        <time>2023-01-28T07:03:41+00:00</time>
        <ele>2040.0</ele>
      </trkpt>
      <trkpt lat="45.26721" lon="6.03647">
        <time>2023-01-28T07:03:44+00:00</time>
        <ele>2039.0</ele>
      </trkpt>
      <trkpt lat="45.26719" lon="6.03646">
        <time>2023-01-28T07:03:47+00:00</time>
        <ele>2039.0</ele>
      </trkpt>
      <trkpt lat="45.26718" lon="6.03644">
        <time>2023-01-28T07:03:52+00:00</time>
        <ele>2039.0</ele>
      </trkpt>
      <trkpt lat="45.26716" lon="6.03642">
        <time>2023-01-28T07:04:00+00:00</time>
        <ele>2039.0</ele>
      </trkpt>
      <trkpt lat="45.26713" lon="6.03639">
        <time>2023-01-28T07:04:04+00:00</time>
        <ele>2039.0</ele>
      </trkpt>
      <trkpt lat="45.26712" lon="6.03636">
        <time>2023-01-28T07:04:07+00:00</time>
        <ele>2040.0</ele>
      </trkpt>
      <trkpt lat="45.26711" lon="6.03634">
        <time>2023-01-28T07:04:09+00:00</time>
        <ele>2040.0</ele>
      </trkpt>
      <trkpt lat="45.26708" lon="6.03631">
        <time>2023-01-28T07:04:12+00:00</time>
        <ele>2040.0</ele>
      </trkpt>
      <trkpt lat="45.26707" lon="6.0363">
        <time>2023-01-28T07:04:14+00:00</time>
        <ele>2040.0</ele>
      </trkpt>
      <trkpt lat="45.26705" lon="6.03626">
        <time>2023-01-28T07:04:17+00:00</time>
        <ele>2040.0</ele>
      </trkpt>
      <trkpt lat="45.26703" lon="6.03623">
        <time>2023-01-28T07:04:21+00:00</time>
        <ele>2041.0</ele>
      </trkpt>
      <trkpt lat="45.267" lon="6.0362">
        <time>2023-01-28T07:04:25+00:00</time>
        <ele>2041.0</ele>
      </trkpt>
      <trkpt lat="45.26699" lon="6.03617">
        <time>2023-01-28T07:04:28+00:00</time>
        <ele>2042.0</ele>
      </trkpt>
      <trkpt lat="45.26698" lon="6.03616">
        <time>2023-01-28T07:04:29+00:00</time>
        <ele>2041.0</ele>
      </trkpt>
      <trkpt lat="45.26693" lon="6.03613">
        <time>2023-01-28T07:04:36+00:00</time>
        <ele>2041.0</ele>
      </trkpt>
      <trkpt lat="45.26692" lon="6.03613">
        <time>2023-01-28T07:04:37+00:00</time>
        <ele>2040.0</ele>
      </trkpt>
      <trkpt lat="45.26691" lon="6.03611">
        <time>2023-01-28T07:04:42+00:00</time>
        <ele>2041.0</ele>
      </trkpt>
      <trkpt lat="45.2669" lon="6.03608">
        <time>2023-01-28T07:04:46+00:00</time>
        <ele>2041.0</ele>
      </trkpt>
      <trkpt lat="45.26689" lon="6.03605">
        <time>2023-01-28T07:04:49+00:00</time>
        <ele>2042.0</ele>
      </trkpt>
      <trkpt lat="45.26685" lon="6.03601">
        <time>2023-01-28T07:04:56+00:00</time>
        <ele>2042.0</ele>
      </trkpt>
      <trkpt lat="45.26682" lon="6.03597">
        <time>2023-01-28T07:05:00+00:00</time>
        <ele>2043.0</ele>
      </trkpt>
      <trkpt lat="45.26682" lon="6.03597">
        <time>2023-01-28T07:05:01+00:00</time>
        <ele>2043.0</ele>
      </trkpt>
      <trkpt lat="45.26681" lon="6.03596">
        <time>2023-01-28T07:05:07+00:00</time>
        <ele>2043.0</ele>
      </trkpt>
      <trkpt lat="45.26681" lon="6.03596">
        <time>2023-01-28T07:05:11+00:00</time>
        <ele>2043.0</ele>
      </trkpt>
      <trkpt lat="45.26681" lon="6.03595">
        <time>2023-01-28T07:05:15+00:00</time>
        <ele>2043.0</ele>
      </trkpt>
      <trkpt lat="45.26681" lon="6.03595">
        <time>2023-01-28T07:05:17+00:00</time>
        <ele>2043.0</ele>
      </trkpt>
      <trkpt lat="45.26681" lon="6.03595">
        <time>2023-01-28T07:05:18+00:00</time>
        <ele>2043.0</ele>
      </trkpt>
      <trkpt lat="45.26681" lon="6.03595">
        <time>2023-01-28T07:05:22+00:00</time>
        <ele>2043.0</ele>
      </trkpt>
      <trkpt lat="45.26679" lon="6.03593">
        <time>2023-01-28T07:05:24+00:00</time>
        <ele>2043.0</ele>
      </trkpt>
      <trkpt lat="45.26678" lon="6.03593">
        <time>2023-01-28T07:05:25+00:00</time>
        <ele>2043.0</ele>
      </trkpt>
      <trkpt lat="45.26672" lon="6.03593">
        <time>2023-01-28T07:05:33+00:00</time>
        <ele>2041.0</ele>
      </trkpt>
      <trkpt lat="45.26671" lon="6.03593">
        <time>2023-01-28T07:05:34+00:00</time>
        <ele>2041.0</ele>
      </trkpt>
      <trkpt lat="45.2667" lon="6.03594">
        <time>2023-01-28T07:05:35+00:00</time>
        <ele>2040.0</ele>
      </trkpt>
      <trkpt lat="45.26665" lon="6.03596">
        <time>2023-01-28T07:05:40+00:00</time>
        <ele>2037.0</ele>
      </trkpt>
      <trkpt lat="45.26661" lon="6.03597">
        <time>2023-01-28T07:05:45+00:00</time>
        <ele>2034.0</ele>
      </trkpt>
      <trkpt lat="45.26659" lon="6.03598">
        <time>2023-01-28T07:05:48+00:00</time>
        <ele>2033.0</ele>
      </trkpt>
      <trkpt lat="45.26658" lon="6.03599">
        <time>2023-01-28T07:05:52+00:00</time>
        <ele>2032.0</ele>
      </trkpt>
      <trkpt lat="45.26658" lon="6.03599">
        <time>2023-01-28T07:05:55+00:00</time>
        <ele>2032.0</ele>
      </trkpt>
      <trkpt lat="45.26657" lon="6.03598">
        <time>2023-01-28T07:06:01+00:00</time>
        <ele>2032.0</ele>
      </trkpt>
      <trkpt lat="45.26657" lon="6.03596">
        <time>2023-01-28T07:06:04+00:00</time>
        <ele>2033.0</ele>
      </trkpt>
      <trkpt lat="45.26657" lon="6.03595">
        <time>2023-01-28T07:06:10+00:00</time>
        <ele>2033.0</ele>
      </trkpt>
      <trkpt lat="45.26657" lon="6.03595">
        <time>2023-01-28T07:06:11+00:00</time>
        <ele>2033.0</ele>
      </trkpt>
      <trkpt lat="45.26657" lon="6.03595">
        <time>2023-01-28T07:06:15+00:00</time>
        <ele>2033.0</ele>
      </trkpt>
      <trkpt lat="45.26657" lon="6.03595">
        <time>2023-01-28T07:06:19+00:00</time>
        <ele>2033.0</ele>
      </trkpt>
      <trkpt lat="45.26659" lon="6.0359">
        <time>2023-01-28T07:06:22+00:00</time>
        <ele>2037.0</ele>
      </trkpt>
      <trkpt lat="45.2666" lon="6.03586">
        <time>2023-01-28T07:06:27+00:00</time>
        <ele>2038.0</ele>
      </trkpt>
      <trkpt lat="45.26659" lon="6.03586">
        <time>2023-01-28T07:06:30+00:00</time>
        <ele>2037.0</ele>
      </trkpt>
      <trkpt lat="45.26656" lon="6.03587">
        <time>2023-01-28T07:06:33+00:00</time>
        <ele>2036.0</ele>
      </trkpt>
      <trkpt lat="45.26647" lon="6.0358">
        <time>2023-01-28T07:06:38+00:00</time>
        <ele>2034.0</ele>
      </trkpt>
      <trkpt lat="45.26646" lon="6.03579">
        <time>2023-01-28T07:06:39+00:00</time>
        <ele>2034.0</ele>
      </trkpt>
      <trkpt lat="45.26643" lon="6.03576">
        <time>2023-01-28T07:06:42+00:00</time>
        <ele>2034.0</ele>
      </trkpt>
      <trkpt lat="45.26642" lon="6.03576">
        <time>2023-01-28T07:06:43+00:00</time>
        <ele>2033.0</ele>
      </trkpt>
      <trkpt lat="45.26639" lon="6.03573">
        <time>2023-01-28T07:06:46+00:00</time>
        <ele>2033.0</ele>
      </trkpt>
      <trkpt lat="45.26637" lon="6.0357">
        <time>2023-01-28T07:06:49+00:00</time>
        <ele>2034.0</ele>
      </trkpt>
      <trkpt lat="45.26629" lon="6.03563">
        <time>2023-01-28T07:06:59+00:00</time>
        <ele>2034.0</ele>
      </trkpt>
      <trkpt lat="45.26623" lon="6.03556">
        <time>2023-01-28T07:07:08+00:00</time>
        <ele>2035.0</ele>
      </trkpt>
      <trkpt lat="45.2662" lon="6.03552">
        <time>2023-01-28T07:07:13+00:00</time>
        <ele>2036.0</ele>
      </trkpt>
      <trkpt lat="45.26618" lon="6.03547">
        <time>2023-01-28T07:07:17+00:00</time>
        <ele>2037.0</ele>
      </trkpt>
      <trkpt lat="45.26614" lon="6.0354">
        <time>2023-01-28T07:07:25+00:00</time>
        <ele>2040.0</ele>
      </trkpt>
      <trkpt lat="45.26612" lon="6.03537">
        <time>2023-01-28T07:07:29+00:00</time>
        <ele>2041.0</ele>
      </trkpt>
      <trkpt lat="45.2661" lon="6.03533">
        <time>2023-01-28T07:07:34+00:00</time>
        <ele>2042.0</ele>
      </trkpt>
      <trkpt lat="45.26608" lon="6.0353">
        <time>2023-01-28T07:07:38+00:00</time>
        <ele>2043.0</ele>
      </trkpt>
      <trkpt lat="45.26606" lon="6.03527">
        <time>2023-01-28T07:07:43+00:00</time>
        <ele>2044.0</ele>
      </trkpt>
      <trkpt lat="45.26603" lon="6.03524">
        <time>2023-01-28T07:07:49+00:00</time>
        <ele>2045.0</ele>
      </trkpt>
      <trkpt lat="45.26601" lon="6.03522">
        <time>2023-01-28T07:07:55+00:00</time>
        <ele>2046.0</ele>
      </trkpt>
      <trkpt lat="45.266" lon="6.03521">
        <time>2023-01-28T07:07:56+00:00</time>
        <ele>2046.0</ele>
      </trkpt>
      <trkpt lat="45.26598" lon="6.03519">
        <time>2023-01-28T07:08:01+00:00</time>
        <ele>2047.0</ele>
      </trkpt>
      <trkpt lat="45.26597" lon="6.03515">
        <time>2023-01-28T07:08:06+00:00</time>
        <ele>2049.0</ele>
      </trkpt>
      <trkpt lat="45.26596" lon="6.03515">
        <time>2023-01-28T07:08:07+00:00</time>
        <ele>2049.0</ele>
      </trkpt>
      <trkpt lat="45.26593" lon="6.03511">
        <time>2023-01-28T07:08:15+00:00</time>
        <ele>2052.0</ele>
      </trkpt>
      <trkpt lat="45.2659" lon="6.03509">
        <time>2023-01-28T07:08:21+00:00</time>
        <ele>2053.0</ele>
      </trkpt>
      <trkpt lat="45.26589" lon="6.03509">
        <time>2023-01-28T07:08:24+00:00</time>
        <ele>2053.0</ele>
      </trkpt>
      <trkpt lat="45.26588" lon="6.03509">
        <time>2023-01-28T07:08:26+00:00</time>
        <ele>2054.0</ele>
      </trkpt>
      <trkpt lat="45.26587" lon="6.03508">
        <time>2023-01-28T07:08:30+00:00</time>
        <ele>2054.0</ele>
      </trkpt>
      <trkpt lat="45.26587" lon="6.03508">
        <time>2023-01-28T07:08:31+00:00</time>
        <ele>2054.0</ele>
      </trkpt>
      <trkpt lat="45.26588" lon="6.03508">
        <time>2023-01-28T07:08:35+00:00</time>
        <ele>2054.0</ele>
      </trkpt>
      <trkpt lat="45.26588" lon="6.03508">
        <time>2023-01-28T07:08:37+00:00</time>
        <ele>2054.0</ele>
      </trkpt>
      <trkpt lat="45.26588" lon="6.03508">
        <time>2023-01-28T07:08:38+00:00</time>
        <ele>2054.0</ele>
      </trkpt>
      <trkpt lat="45.26587" lon="6.03508">
        <time>2023-01-28T07:08:55+00:00</time>
        <ele>2054.0</ele>
      </trkpt>
      <trkpt lat="45.26584" lon="6.03506">
        <time>2023-01-28T07:09:01+00:00</time>
        <ele>2055.0</ele>
      </trkpt>
      <trkpt lat="45.26582" lon="6.03503">
        <time>2023-01-28T07:09:06+00:00</time>
        <ele>2056.0</ele>
      </trkpt>
      <trkpt lat="45.26581" lon="6.03499">
        <time>2023-01-28T07:09:11+00:00</time>
        <ele>2058.0</ele>
      </trkpt>
      <trkpt lat="45.26578" lon="6.03495">
        <time>2023-01-28T07:09:18+00:00</time>
        <ele>2059.0</ele>
      </trkpt>
      <trkpt lat="45.26576" lon="6.03494">
        <time>2023-01-28T07:09:22+00:00</time>
        <ele>2059.0</ele>
      </trkpt>
      <trkpt lat="45.26575" lon="6.03494">
        <time>2023-01-28T07:09:24+00:00</time>
        <ele>2059.0</ele>
      </trkpt>
      <trkpt lat="45.26572" lon="6.03494">
        <time>2023-01-28T07:09:29+00:00</time>
        <ele>2059.0</ele>
      </trkpt>
      <trkpt lat="45.2657" lon="6.03494">
        <time>2023-01-28T07:09:32+00:00</time>
        <ele>2059.0</ele>
      </trkpt>
      <trkpt lat="45.26569" lon="6.03494">
        <time>2023-01-28T07:09:35+00:00</time>
        <ele>2059.0</ele>
      </trkpt>
      <trkpt lat="45.26565" lon="6.03493">
        <time>2023-01-28T07:09:42+00:00</time>
        <ele>2060.0</ele>
      </trkpt>
      <trkpt lat="45.26563" lon="6.03492">
        <time>2023-01-28T07:09:46+00:00</time>
        <ele>2060.0</ele>
      </trkpt>
      <trkpt lat="45.26562" lon="6.03492">
        <time>2023-01-28T07:09:48+00:00</time>
        <ele>2060.0</ele>
      </trkpt>
      <trkpt lat="45.26562" lon="6.03491">
        <time>2023-01-28T07:09:53+00:00</time>
        <ele>2060.0</ele>
      </trkpt>
      <trkpt lat="45.26562" lon="6.03491">
        <time>2023-01-28T07:09:55+00:00</time>
        <ele>2060.0</ele>
      </trkpt>
      <trkpt lat="45.26562" lon="6.03491">
        <time>2023-01-28T07:10:01+00:00</time>
        <ele>2060.0</ele>
      </trkpt>
      <trkpt lat="45.26562" lon="6.03491">
        <time>2023-01-28T07:10:05+00:00</time>
        <ele>2060.0</ele>
      </trkpt>
      <trkpt lat="45.26562" lon="6.03491">
        <time>2023-01-28T07:10:09+00:00</time>
        <ele>2060.0</ele>
      </trkpt>
      <trkpt lat="45.26562" lon="6.03491">
        <time>2023-01-28T07:10:11+00:00</time>
        <ele>2060.0</ele>
      </trkpt>
      <trkpt lat="45.26561" lon="6.03491">
        <time>2023-01-28T07:10:16+00:00</time>
        <ele>2060.0</ele>
      </trkpt>
      <trkpt lat="45.26561" lon="6.03492">
        <time>2023-01-28T07:10:20+00:00</time>
        <ele>2060.0</ele>
      </trkpt>
      <trkpt lat="45.26561" lon="6.03492">
        <time>2023-01-28T07:10:22+00:00</time>
        <ele>2060.0</ele>
      </trkpt>
      <trkpt lat="45.26563" lon="6.03495">
        <time>2023-01-28T07:10:49+00:00</time>
        <ele>2059.0</ele>
      </trkpt>
      <trkpt lat="45.26557" lon="6.03495">
        <time>2023-01-28T07:10:55+00:00</time>
        <ele>2058.0</ele>
      </trkpt>
      <trkpt lat="45.2655" lon="6.03491">
        <time>2023-01-28T07:11:03+00:00</time>
        <ele>2059.0</ele>
      </trkpt>
      <trkpt lat="45.26546" lon="6.0349">
        <time>2023-01-28T07:11:10+00:00</time>
        <ele>2059.0</ele>
      </trkpt>
      <trkpt lat="45.26542" lon="6.0349">
        <time>2023-01-28T07:11:14+00:00</time>
        <ele>2059.0</ele>
      </trkpt>
      <trkpt lat="45.26537" lon="6.03486">
        <time>2023-01-28T07:11:20+00:00</time>
        <ele>2060.0</ele>
      </trkpt>
      <trkpt lat="45.2653" lon="6.03479">
        <time>2023-01-28T07:11:29+00:00</time>
        <ele>2062.0</ele>
      </trkpt>
      <trkpt lat="45.26524" lon="6.03471">
        <time>2023-01-28T07:11:38+00:00</time>
        <ele>2063.0</ele>
      </trkpt>
      <trkpt lat="45.2652" lon="6.03465">
        <time>2023-01-28T07:11:44+00:00</time>
        <ele>2065.0</ele>
      </trkpt>
      <trkpt lat="45.26517" lon="6.03459">
        <time>2023-01-28T07:11:50+00:00</time>
        <ele>2067.0</ele>
      </trkpt>
      <trkpt lat="45.26511" lon="6.03451">
        <time>2023-01-28T07:11:59+00:00</time>
        <ele>2067.0</ele>
      </trkpt>
      <trkpt lat="45.26506" lon="6.03443">
        <time>2023-01-28T07:12:09+00:00</time>
        <ele>2066.0</ele>
      </trkpt>
      <trkpt lat="45.26506" lon="6.03443">
        <time>2023-01-28T07:12:10+00:00</time>
        <ele>2066.0</ele>
      </trkpt>
      <trkpt lat="45.26505" lon="6.03444">
        <time>2023-01-28T07:12:13+00:00</time>
        <ele>2066.0</ele>
      </trkpt>
      <trkpt lat="45.26503" lon="6.03446">
        <time>2023-01-28T07:12:16+00:00</time>
        <ele>2066.0</ele>
      </trkpt>
      <trkpt lat="45.26502" lon="6.03447">
        <time>2023-01-28T07:12:18+00:00</time>
        <ele>2066.0</ele>
      </trkpt>
      <trkpt lat="45.26496" lon="6.0345">
        <time>2023-01-28T07:12:22+00:00</time>
        <ele>2066.0</ele>
      </trkpt>
      <trkpt lat="45.26492" lon="6.03453">
        <time>2023-01-28T07:12:25+00:00</time>
        <ele>2066.0</ele>
      </trkpt>
      <trkpt lat="45.2649" lon="6.03454">
        <time>2023-01-28T07:12:26+00:00</time>
        <ele>2066.0</ele>
      </trkpt>
      <trkpt lat="45.26485" lon="6.03453">
        <time>2023-01-28T07:12:28+00:00</time>
        <ele>2065.0</ele>
      </trkpt>
      <trkpt lat="45.26479" lon="6.03455">
        <time>2023-01-28T07:12:31+00:00</time>
        <ele>2067.0</ele>
      </trkpt>
      <trkpt lat="45.26477" lon="6.03456">
        <time>2023-01-28T07:12:36+00:00</time>
        <ele>2067.0</ele>
      </trkpt>
      <trkpt lat="45.26474" lon="6.03455">
        <time>2023-01-28T07:12:44+00:00</time>
        <ele>2068.0</ele>
      </trkpt>
      <trkpt lat="45.26471" lon="6.03455">
        <time>2023-01-28T07:12:50+00:00</time>
        <ele>2069.0</ele>
      </trkpt>
      <trkpt lat="45.26471" lon="6.03457">
        <time>2023-01-28T07:12:53+00:00</time>
        <ele>2068.0</ele>
      </trkpt>
      <trkpt lat="45.26469" lon="6.03459">
        <time>2023-01-28T07:12:59+00:00</time>
        <ele>2068.0</ele>
      </trkpt>
      <trkpt lat="45.26468" lon="6.03459">
        <time>2023-01-28T07:13:24+00:00</time>
        <ele>2068.0</ele>
      </trkpt>
      <trkpt lat="45.26468" lon="6.03459">
        <time>2023-01-28T07:13:30+00:00</time>
        <ele>2068.0</ele>
      </trkpt>
      <trkpt lat="45.26468" lon="6.03459">
        <time>2023-01-28T07:13:33+00:00</time>
        <ele>2068.0</ele>
      </trkpt>
      <trkpt lat="45.26468" lon="6.03459">
        <time>2023-01-28T07:13:37+00:00</time>
        <ele>2068.0</ele>
      </trkpt>
      <trkpt lat="45.26468" lon="6.03459">
        <time>2023-01-28T07:13:40+00:00</time>
        <ele>2068.0</ele>
      </trkpt>
      <trkpt lat="45.26468" lon="6.03459">
        <time>2023-01-28T07:13:45+00:00</time>
        <ele>2068.0</ele>
      </trkpt>
      <trkpt lat="45.26469" lon="6.03458">
        <time>2023-01-28T07:13:48+00:00</time>
        <ele>2068.0</ele>
      </trkpt>
      <trkpt lat="45.26469" lon="6.03458">
        <time>2023-01-28T07:14:04+00:00</time>
        <ele>2068.0</ele>
      </trkpt>
      <trkpt lat="45.26469" lon="6.03457">
        <time>2023-01-28T07:14:12+00:00</time>
        <ele>2069.0</ele>
      </trkpt>
      <trkpt lat="45.26469" lon="6.03457">
        <time>2023-01-28T07:14:25+00:00</time>
        <ele>2069.0</ele>
      </trkpt>
      <trkpt lat="45.26469" lon="6.03457">
        <time>2023-01-28T07:14:29+00:00</time>
        <ele>2069.0</ele>
      </trkpt>
      <trkpt lat="45.26469" lon="6.03457">
        <time>2023-01-28T07:14:30+00:00</time>
        <ele>2069.0</ele>
      </trkpt>
      <trkpt lat="45.26469" lon="6.03458">
        <time>2023-01-28T07:14:48+00:00</time>
        <ele>2068.0</ele>
      </trkpt>
      <trkpt lat="45.2647" lon="6.0346">
        <time>2023-01-28T07:15:02+00:00</time>
        <ele>2067.0</ele>
      </trkpt>
      <trkpt lat="45.2647" lon="6.0346">
        <time>2023-01-28T07:15:14+00:00</time>
        <ele>2067.0</ele>
      </trkpt>
      <trkpt lat="45.2647" lon="6.0346">
        <time>2023-01-28T07:15:21+00:00</time>
        <ele>2067.0</ele>
      </trkpt>
      <trkpt lat="45.2647" lon="6.03459">
        <time>2023-01-28T07:15:23+00:00</time>
        <ele>2068.0</ele>
      </trkpt>
      <trkpt lat="45.2647" lon="6.03459">
        <time>2023-01-28T07:15:30+00:00</time>
        <ele>2068.0</ele>
      </trkpt>
      <trkpt lat="45.2647" lon="6.03459">
        <time>2023-01-28T07:15:32+00:00</time>
        <ele>2068.0</ele>
      </trkpt>
      <trkpt lat="45.26469" lon="6.03458">
        <time>2023-01-28T07:15:52+00:00</time>
        <ele>2068.0</ele>
      </trkpt>
      <trkpt lat="45.26469" lon="6.03457">
        <time>2023-01-28T07:16:08+00:00</time>
        <ele>2069.0</ele>
      </trkpt>
      <trkpt lat="45.26469" lon="6.03457">
        <time>2023-01-28T07:16:20+00:00</time>
        <ele>2069.0</ele>
      </trkpt>
      <trkpt lat="45.26469" lon="6.03457">
        <time>2023-01-28T07:16:26+00:00</time>
        <ele>2069.0</ele>
      </trkpt>
      <trkpt lat="45.26469" lon="6.03457">
        <time>2023-01-28T07:16:32+00:00</time>
        <ele>2069.0</ele>
      </trkpt>
      <trkpt lat="45.26469" lon="6.03457">
        <time>2023-01-28T07:16:36+00:00</time>
        <ele>2069.0</ele>
      </trkpt>
      <trkpt lat="45.26469" lon="6.03457">
        <time>2023-01-28T07:16:38+00:00</time>
        <ele>2069.0</ele>
      </trkpt>
      <trkpt lat="45.26469" lon="6.03457">
        <time>2023-01-28T07:16:46+00:00</time>
        <ele>2069.0</ele>
      </trkpt>
      <trkpt lat="45.26469" lon="6.03457">
        <time>2023-01-28T07:16:49+00:00</time>
        <ele>2069.0</ele>
      </trkpt>
      <trkpt lat="45.26469" lon="6.03457">
        <time>2023-01-28T07:16:56+00:00</time>
        <ele>2069.0</ele>
      </trkpt>
      <trkpt lat="45.26469" lon="6.03457">
        <time>2023-01-28T07:17:00+00:00</time>
        <ele>2069.0</ele>
      </trkpt>
      <trkpt lat="45.26469" lon="6.03457">
        <time>2023-01-28T07:17:01+00:00</time>
        <ele>2069.0</ele>
      </trkpt>
      <trkpt lat="45.26469" lon="6.03457">
        <time>2023-01-28T07:17:04+00:00</time>
        <ele>2069.0</ele>
      </trkpt>
      <trkpt lat="45.26468" lon="6.03457">
        <time>2023-01-28T07:17:09+00:00</time>
        <ele>2069.0</ele>
      </trkpt>
      <trkpt lat="45.26468" lon="6.03457">
        <time>2023-01-28T07:17:20+00:00</time>
        <ele>2069.0</ele>
      </trkpt>
      <trkpt lat="45.26468" lon="6.03457">
        <time>2023-01-28T07:17:21+00:00</time>
        <ele>2069.0</ele>
      </trkpt>
      <trkpt lat="45.26468" lon="6.03457">
        <time>2023-01-28T07:17:25+00:00</time>
        <ele>2069.0</ele>
      </trkpt>
      <trkpt lat="45.26468" lon="6.03457">
        <time>2023-01-28T07:17:29+00:00</time>
        <ele>2069.0</ele>
      </trkpt>
      <trkpt lat="45.26468" lon="6.03457">
        <time>2023-01-28T07:17:34+00:00</time>
        <ele>2069.0</ele>
      </trkpt>
      <trkpt lat="45.26468" lon="6.03457">
        <time>2023-01-28T07:17:37+00:00</time>
        <ele>2069.0</ele>
      </trkpt>
      <trkpt lat="45.26468" lon="6.03457">
        <time>2023-01-28T07:17:41+00:00</time>
        <ele>2069.0</ele>
      </trkpt>
      <trkpt lat="45.26468" lon="6.03457">
        <time>2023-01-28T07:17:47+00:00</time>
        <ele>2069.0</ele>
      </trkpt>
      <trkpt lat="45.26468" lon="6.03457">
        <time>2023-01-28T07:17:55+00:00</time>
        <ele>2069.0</ele>
      </trkpt>
      <trkpt lat="45.26467" lon="6.03457">
        <time>2023-01-28T07:18:00+00:00</time>
        <ele>2069.0</ele>
      </trkpt>
      <trkpt lat="45.26467" lon="6.03457">
        <time>2023-01-28T07:18:14+00:00</time>
        <ele>2069.0</ele>
      </trkpt>
      <trkpt lat="45.26467" lon="6.03457">
        <time>2023-01-28T07:18:18+00:00</time>
        <ele>2069.0</ele>
      </trkpt>
      <trkpt lat="45.26467" lon="6.03457">
        <time>2023-01-28T07:18:27+00:00</time>
        <ele>2069.0</ele>
      </trkpt>
      <trkpt lat="45.26467" lon="6.03457">
        <time>2023-01-28T07:18:36+00:00</time>
        <ele>2069.0</ele>
      </trkpt>
      <trkpt lat="45.26466" lon="6.03457">
        <time>2023-01-28T07:18:40+00:00</time>
        <ele>2070.0</ele>
      </trkpt>
      <trkpt lat="45.26466" lon="6.03457">
        <time>2023-01-28T07:18:50+00:00</time>
        <ele>2070.0</ele>
      </trkpt>
      <trkpt lat="45.26466" lon="6.03457">
        <time>2023-01-28T07:19:06+00:00</time>
        <ele>2070.0</ele>
      </trkpt>
      <trkpt lat="45.26465" lon="6.03457">
        <time>2023-01-28T07:19:15+00:00</time>
        <ele>2070.0</ele>
      </trkpt>
      <trkpt lat="45.26465" lon="6.03457">
        <time>2023-01-28T07:19:20+00:00</time>
        <ele>2070.0</ele>
      </trkpt>
      <trkpt lat="45.26465" lon="6.03457">
        <time>2023-01-28T07:19:23+00:00</time>
        <ele>2070.0</ele>
      </trkpt>
      <trkpt lat="45.26465" lon="6.03457">
        <time>2023-01-28T07:19:28+00:00</time>
        <ele>2070.0</ele>
      </trkpt>
      <trkpt lat="45.26465" lon="6.03457">
        <time>2023-01-28T07:19:31+00:00</time>
        <ele>2070.0</ele>
      </trkpt>
      <trkpt lat="45.26465" lon="6.03457">
        <time>2023-01-28T07:19:35+00:00</time>
        <ele>2070.0</ele>
      </trkpt>
      <trkpt lat="45.26465" lon="6.03457">
        <time>2023-01-28T07:19:39+00:00</time>
        <ele>2070.0</ele>
      </trkpt>
      <trkpt lat="45.26465" lon="6.03457">
        <time>2023-01-28T07:19:43+00:00</time>
        <ele>2070.0</ele>
      </trkpt>
      <trkpt lat="45.26465" lon="6.03457">
        <time>2023-01-28T07:19:46+00:00</time>
        <ele>2070.0</ele>
      </trkpt>
      <trkpt lat="45.26465" lon="6.03457">
        <time>2023-01-28T07:19:48+00:00</time>
        <ele>2070.0</ele>
      </trkpt>
      <trkpt lat="45.26465" lon="6.03457">
        <time>2023-01-28T07:19:50+00:00</time>
        <ele>2070.0</ele>
      </trkpt>
      <trkpt lat="45.26464" lon="6.03457">
        <time>2023-01-28T07:19:52+00:00</time>
        <ele>2070.0</ele>
      </trkpt>
      <trkpt lat="45.26464" lon="6.03457">
        <time>2023-01-28T07:19:54+00:00</time>
        <ele>2070.0</ele>
      </trkpt>
      <trkpt lat="45.26464" lon="6.03457">
        <time>2023-01-28T07:20:04+00:00</time>
        <ele>2070.0</ele>
      </trkpt>
      <trkpt lat="45.26464" lon="6.03457">
        <time>2023-01-28T07:20:20+00:00</time>
        <ele>2070.0</ele>
      </trkpt>
      <trkpt lat="45.26463" lon="6.03457">
        <time>2023-01-28T07:20:28+00:00</time>
        <ele>2071.0</ele>
      </trkpt>
      <trkpt lat="45.26463" lon="6.03457">
        <time>2023-01-28T07:20:29+00:00</time>
        <ele>2071.0</ele>
      </trkpt>
      <trkpt lat="45.26463" lon="6.03457">
        <time>2023-01-28T07:20:30+00:00</time>
        <ele>2071.0</ele>
      </trkpt>
      <trkpt lat="45.26463" lon="6.03457">
        <time>2023-01-28T07:20:37+00:00</time>
        <ele>2071.0</ele>
      </trkpt>
      <trkpt lat="45.26463" lon="6.03457">
        <time>2023-01-28T07:20:40+00:00</time>
        <ele>2071.0</ele>
      </trkpt>
      <trkpt lat="45.26463" lon="6.03457">
        <time>2023-01-28T07:20:41+00:00</time>
        <ele>2071.0</ele>
      </trkpt>
      <trkpt lat="45.26463" lon="6.03457">
        <time>2023-01-28T07:20:48+00:00</time>
        <ele>2071.0</ele>
      </trkpt>
      <trkpt lat="45.26463" lon="6.03457">
        <time>2023-01-28T07:20:53+00:00</time>
        <ele>2071.0</ele>
      </trkpt>
      <trkpt lat="45.26463" lon="6.03457">
        <time>2023-01-28T07:20:55+00:00</time>
        <ele>2071.0</ele>
      </trkpt>
      <trkpt lat="45.26463" lon="6.03457">
        <time>2023-01-28T07:20:57+00:00</time>
        <ele>2071.0</ele>
      </trkpt>
      <trkpt lat="45.26462" lon="6.03457">
        <time>2023-01-28T07:20:59+00:00</time>
        <ele>2071.0</ele>
      </trkpt>
      <trkpt lat="45.26462" lon="6.03457">
        <time>2023-01-28T07:21:02+00:00</time>
        <ele>2071.0</ele>
      </trkpt>
      <trkpt lat="45.26462" lon="6.03457">
        <time>2023-01-28T07:21:07+00:00</time>
        <ele>2071.0</ele>
      </trkpt>
      <trkpt lat="45.26462" lon="6.03457">
        <time>2023-01-28T07:21:12+00:00</time>
        <ele>2071.0</ele>
      </trkpt>
      <trkpt lat="45.26462" lon="6.03457">
        <time>2023-01-28T07:21:13+00:00</time>
        <ele>2071.0</ele>
      </trkpt>
      <trkpt lat="45.26462" lon="6.03458">
        <time>2023-01-28T07:21:17+00:00</time>
        <ele>2071.0</ele>
      </trkpt>
      <trkpt lat="45.26462" lon="6.03458">
        <time>2023-01-28T07:21:21+00:00</time>
        <ele>2071.0</ele>
      </trkpt>
      <trkpt lat="45.26461" lon="6.03458">
        <time>2023-01-28T07:21:27+00:00</time>
        <ele>2071.0</ele>
      </trkpt>
      <trkpt lat="45.26461" lon="6.03458">
        <time>2023-01-28T07:21:34+00:00</time>
        <ele>2071.0</ele>
      </trkpt>
      <trkpt lat="45.26461" lon="6.03458">
        <time>2023-01-28T07:21:36+00:00</time>
        <ele>2071.0</ele>
      </trkpt>
      <trkpt lat="45.2646" lon="6.03458">
        <time>2023-01-28T07:21:50+00:00</time>
        <ele>2072.0</ele>
      </trkpt>
      <trkpt lat="45.26459" lon="6.03458">
        <time>2023-01-28T07:22:01+00:00</time>
        <ele>2072.0</ele>
      </trkpt>
      <trkpt lat="45.26458" lon="6.03458">
        <time>2023-01-28T07:22:14+00:00</time>
        <ele>2073.0</ele>
      </trkpt>
      <trkpt lat="45.26457" lon="6.03458">
        <time>2023-01-28T07:22:33+00:00</time>
        <ele>2073.0</ele>
      </trkpt>
      <trkpt lat="45.26454" lon="6.03459">
        <time>2023-01-28T07:23:15+00:00</time>
        <ele>2074.0</ele>
      </trkpt>
      <trkpt lat="45.26454" lon="6.03459">
        <time>2023-01-28T07:23:18+00:00</time>
        <ele>2074.0</ele>
      </trkpt>
      <trkpt lat="45.26453" lon="6.03459">
        <time>2023-01-28T07:23:28+00:00</time>
        <ele>2074.0</ele>
      </trkpt>
      <trkpt lat="45.26453" lon="6.03459">
        <time>2023-01-28T07:23:34+00:00</time>
        <ele>2074.0</ele>
      </trkpt>
      <trkpt lat="45.26453" lon="6.03459">
        <time>2023-01-28T07:23:40+00:00</time>
        <ele>2074.0</ele>
      </trkpt>
      <trkpt lat="45.26452" lon="6.03459">
        <time>2023-01-28T07:23:45+00:00</time>
        <ele>2075.0</ele>
      </trkpt>
      <trkpt lat="45.26452" lon="6.03459">
        <time>2023-01-28T07:23:46+00:00</time>
        <ele>2075.0</ele>
      </trkpt>
      <trkpt lat="45.26452" lon="6.03459">
        <time>2023-01-28T07:23:48+00:00</time>
        <ele>2075.0</ele>
      </trkpt>
      <trkpt lat="45.26452" lon="6.03459">
        <time>2023-01-28T07:23:50+00:00</time>
        <ele>2075.0</ele>
      </trkpt>
      <trkpt lat="45.26452" lon="6.03459">
        <time>2023-01-28T07:23:53+00:00</time>
        <ele>2075.0</ele>
      </trkpt>
      <trkpt lat="45.2645" lon="6.0346">
        <time>2023-01-28T07:24:11+00:00</time>
        <ele>2075.0</ele>
      </trkpt>
      <trkpt lat="45.2645" lon="6.0346">
        <time>2023-01-28T07:24:14+00:00</time>
        <ele>2075.0</ele>
      </trkpt>
      <trkpt lat="45.2645" lon="6.0346">
        <time>2023-01-28T07:24:17+00:00</time>
        <ele>2075.0</ele>
      </trkpt>
      <trkpt lat="45.2645" lon="6.0346">
        <time>2023-01-28T07:24:20+00:00</time>
        <ele>2075.0</ele>
      </trkpt>
      <trkpt lat="45.2645" lon="6.0346">
        <time>2023-01-28T07:24:23+00:00</time>
        <ele>2075.0</ele>
      </trkpt>
      <trkpt lat="45.26449" lon="6.0346">
        <time>2023-01-28T07:24:26+00:00</time>
        <ele>2076.0</ele>
      </trkpt>
      <trkpt lat="45.26449" lon="6.0346">
        <time>2023-01-28T07:24:29+00:00</time>
        <ele>2076.0</ele>
      </trkpt>
      <trkpt lat="45.26449" lon="6.0346">
        <time>2023-01-28T07:24:32+00:00</time>
        <ele>2076.0</ele>
      </trkpt>
      <trkpt lat="45.26449" lon="6.0346">
        <time>2023-01-28T07:24:35+00:00</time>
        <ele>2076.0</ele>
      </trkpt>
      <trkpt lat="45.26449" lon="6.0346">
        <time>2023-01-28T07:24:37+00:00</time>
        <ele>2076.0</ele>
      </trkpt>
      <trkpt lat="45.26449" lon="6.0346">
        <time>2023-01-28T07:24:39+00:00</time>
        <ele>2076.0</ele>
      </trkpt>
      <trkpt lat="45.26448" lon="6.0346">
        <time>2023-01-28T07:24:43+00:00</time>
        <ele>2076.0</ele>
      </trkpt>
      <trkpt lat="45.26448" lon="6.0346">
        <time>2023-01-28T07:24:48+00:00</time>
        <ele>2076.0</ele>
      </trkpt>
      <trkpt lat="45.26448" lon="6.0346">
        <time>2023-01-28T07:24:53+00:00</time>
        <ele>2076.0</ele>
      </trkpt>
      <trkpt lat="45.26447" lon="6.0346">
        <time>2023-01-28T07:24:57+00:00</time>
        <ele>2077.0</ele>
      </trkpt>
      <trkpt lat="45.26447" lon="6.0346">
        <time>2023-01-28T07:25:00+00:00</time>
        <ele>2077.0</ele>
      </trkpt>
      <trkpt lat="45.26447" lon="6.0346">
        <time>2023-01-28T07:25:04+00:00</time>
        <ele>2077.0</ele>
      </trkpt>
      <trkpt lat="45.26447" lon="6.0346">
        <time>2023-01-28T07:25:07+00:00</time>
        <ele>2077.0</ele>
      </trkpt>
      <trkpt lat="45.26446" lon="6.0346">
        <time>2023-01-28T07:25:10+00:00</time>
        <ele>2077.0</ele>
      </trkpt>
      <trkpt lat="45.26446" lon="6.0346">
        <time>2023-01-28T07:25:13+00:00</time>
        <ele>2077.0</ele>
      </trkpt>
      <trkpt lat="45.26446" lon="6.03461">
        <time>2023-01-28T07:25:22+00:00</time>
        <ele>2076.0</ele>
      </trkpt>
      <trkpt lat="45.26445" lon="6.03461">
        <time>2023-01-28T07:25:28+00:00</time>
        <ele>2077.0</ele>
      </trkpt>
      <trkpt lat="45.26445" lon="6.03461">
        <time>2023-01-28T07:25:30+00:00</time>
        <ele>2077.0</ele>
      </trkpt>
      <trkpt lat="45.26445" lon="6.03461">
        <time>2023-01-28T07:25:32+00:00</time>
        <ele>2077.0</ele>
      </trkpt>
      <trkpt lat="45.26445" lon="6.03461">
        <time>2023-01-28T07:25:37+00:00</time>
        <ele>2077.0</ele>
      </trkpt>
      <trkpt lat="45.26444" lon="6.03461">
        <time>2023-01-28T07:25:41+00:00</time>
        <ele>2077.0</ele>
      </trkpt>
      <trkpt lat="45.26444" lon="6.03461">
        <time>2023-01-28T07:25:49+00:00</time>
        <ele>2077.0</ele>
      </trkpt>
      <trkpt lat="45.26444" lon="6.03461">
        <time>2023-01-28T07:25:52+00:00</time>
        <ele>2077.0</ele>
      </trkpt>
      <trkpt lat="45.26442" lon="6.03461">
        <time>2023-01-28T07:26:14+00:00</time>
        <ele>2078.0</ele>
      </trkpt>
      <trkpt lat="45.26441" lon="6.03462">
        <time>2023-01-28T07:26:36+00:00</time>
        <ele>2078.0</ele>
      </trkpt>
      <trkpt lat="45.26441" lon="6.03462">
        <time>2023-01-28T07:26:39+00:00</time>
        <ele>2078.0</ele>
      </trkpt>
      <trkpt lat="45.26441" lon="6.03462">
        <time>2023-01-28T07:26:42+00:00</time>
        <ele>2078.0</ele>
      </trkpt>
      <trkpt lat="45.2644" lon="6.03462">
        <time>2023-01-28T07:26:46+00:00</time>
        <ele>2078.0</ele>
      </trkpt>
      <trkpt lat="45.2644" lon="6.03462">
        <time>2023-01-28T07:26:51+00:00</time>
        <ele>2078.0</ele>
      </trkpt>
      <trkpt lat="45.2644" lon="6.03462">
        <time>2023-01-28T07:26:57+00:00</time>
        <ele>2078.0</ele>
      </trkpt>
      <trkpt lat="45.26439" lon="6.03462">
        <time>2023-01-28T07:27:01+00:00</time>
        <ele>2078.0</ele>
      </trkpt>
      <trkpt lat="45.26439" lon="6.03462">
        <time>2023-01-28T07:27:04+00:00</time>
        <ele>2078.0</ele>
      </trkpt>
      <trkpt lat="45.26439" lon="6.03462">
        <time>2023-01-28T07:27:07+00:00</time>
        <ele>2078.0</ele>
      </trkpt>
      <trkpt lat="45.26439" lon="6.03462">
        <time>2023-01-28T07:27:10+00:00</time>
        <ele>2078.0</ele>
      </trkpt>
      <trkpt lat="45.26439" lon="6.03462">
        <time>2023-01-28T07:27:13+00:00</time>
        <ele>2078.0</ele>
      </trkpt>
      <trkpt lat="45.26439" lon="6.03462">
        <time>2023-01-28T07:27:15+00:00</time>
        <ele>2078.0</ele>
      </trkpt>
      <trkpt lat="45.26439" lon="6.03462">
        <time>2023-01-28T07:27:17+00:00</time>
        <ele>2078.0</ele>
      </trkpt>
      <trkpt lat="45.26438" lon="6.03462">
        <time>2023-01-28T07:27:18+00:00</time>
        <ele>2079.0</ele>
      </trkpt>
      <trkpt lat="45.26438" lon="6.03462">
        <time>2023-01-28T07:27:19+00:00</time>
        <ele>2079.0</ele>
      </trkpt>
      <trkpt lat="45.26438" lon="6.03462">
        <time>2023-01-28T07:27:22+00:00</time>
        <ele>2079.0</ele>
      </trkpt>
      <trkpt lat="45.26438" lon="6.03462">
        <time>2023-01-28T07:27:26+00:00</time>
        <ele>2079.0</ele>
      </trkpt>
      <trkpt lat="45.26438" lon="6.03462">
        <time>2023-01-28T07:27:27+00:00</time>
        <ele>2079.0</ele>
      </trkpt>
      <trkpt lat="45.26438" lon="6.03463">
        <time>2023-01-28T07:27:32+00:00</time>
        <ele>2078.0</ele>
      </trkpt>
      <trkpt lat="45.26437" lon="6.03463">
        <time>2023-01-28T07:27:36+00:00</time>
        <ele>2079.0</ele>
      </trkpt>
      <trkpt lat="45.26437" lon="6.03463">
        <time>2023-01-28T07:27:40+00:00</time>
        <ele>2079.0</ele>
      </trkpt>
      <trkpt lat="45.26437" lon="6.03463">
        <time>2023-01-28T07:27:46+00:00</time>
        <ele>2079.0</ele>
      </trkpt>
      <trkpt lat="45.26437" lon="6.03463">
        <time>2023-01-28T07:27:50+00:00</time>
        <ele>2079.0</ele>
      </trkpt>
      <trkpt lat="45.26437" lon="6.03463">
        <time>2023-01-28T07:27:54+00:00</time>
        <ele>2079.0</ele>
      </trkpt>
      <trkpt lat="45.26436" lon="6.03463">
        <time>2023-01-28T07:27:57+00:00</time>
        <ele>2079.0</ele>
      </trkpt>
      <trkpt lat="45.26436" lon="6.03463">
        <time>2023-01-28T07:27:58+00:00</time>
        <ele>2079.0</ele>
      </trkpt>
      <trkpt lat="45.26436" lon="6.03463">
        <time>2023-01-28T07:28:01+00:00</time>
        <ele>2079.0</ele>
      </trkpt>
      <trkpt lat="45.26436" lon="6.03463">
        <time>2023-01-28T07:28:04+00:00</time>
        <ele>2079.0</ele>
      </trkpt>
      <trkpt lat="45.26436" lon="6.03463">
        <time>2023-01-28T07:28:07+00:00</time>
        <ele>2079.0</ele>
      </trkpt>
      <trkpt lat="45.26435" lon="6.03463">
        <time>2023-01-28T07:28:15+00:00</time>
        <ele>2079.0</ele>
      </trkpt>
      <trkpt lat="45.26435" lon="6.03463">
        <time>2023-01-28T07:28:21+00:00</time>
        <ele>2079.0</ele>
      </trkpt>
      <trkpt lat="45.26435" lon="6.03463">
        <time>2023-01-28T07:28:25+00:00</time>
        <ele>2079.0</ele>
      </trkpt>
      <trkpt lat="45.26435" lon="6.03463">
        <time>2023-01-28T07:28:28+00:00</time>
        <ele>2079.0</ele>
      </trkpt>
      <trkpt lat="45.26434" lon="6.03464">
        <time>2023-01-28T07:28:32+00:00</time>
        <ele>2079.0</ele>
      </trkpt>
      <trkpt lat="45.26434" lon="6.03464">
        <time>2023-01-28T07:28:35+00:00</time>
        <ele>2079.0</ele>
      </trkpt>
      <trkpt lat="45.26434" lon="6.03464">
        <time>2023-01-28T07:28:37+00:00</time>
        <ele>2079.0</ele>
      </trkpt>
      <trkpt lat="45.26434" lon="6.03464">
        <time>2023-01-28T07:28:42+00:00</time>
        <ele>2079.0</ele>
      </trkpt>
      <trkpt lat="45.26434" lon="6.03464">
        <time>2023-01-28T07:28:46+00:00</time>
        <ele>2079.0</ele>
      </trkpt>
      <trkpt lat="45.26433" lon="6.03464">
        <time>2023-01-28T07:28:52+00:00</time>
        <ele>2080.0</ele>
      </trkpt>
      <trkpt lat="45.26433" lon="6.03464">
        <time>2023-01-28T07:28:56+00:00</time>
        <ele>2080.0</ele>
      </trkpt>
      <trkpt lat="45.26433" lon="6.03464">
        <time>2023-01-28T07:28:57+00:00</time>
        <ele>2080.0</ele>
      </trkpt>
      <trkpt lat="45.26433" lon="6.03464">
        <time>2023-01-28T07:29:01+00:00</time>
        <ele>2080.0</ele>
      </trkpt>
      <trkpt lat="45.26433" lon="6.03464">
        <time>2023-01-28T07:29:04+00:00</time>
        <ele>2080.0</ele>
      </trkpt>
      <trkpt lat="45.26432" lon="6.03464">
        <time>2023-01-28T07:29:05+00:00</time>
        <ele>2080.0</ele>
      </trkpt>
      <trkpt lat="45.26432" lon="6.03464">
        <time>2023-01-28T07:29:08+00:00</time>
        <ele>2080.0</ele>
      </trkpt>
      <trkpt lat="45.26432" lon="6.03464">
        <time>2023-01-28T07:29:10+00:00</time>
        <ele>2080.0</ele>
      </trkpt>
      <trkpt lat="45.26432" lon="6.03464">
        <time>2023-01-28T07:29:13+00:00</time>
        <ele>2080.0</ele>
      </trkpt>
      <trkpt lat="45.26432" lon="6.03464">
        <time>2023-01-28T07:29:15+00:00</time>
        <ele>2080.0</ele>
      </trkpt>
      <trkpt lat="45.26432" lon="6.03464">
        <time>2023-01-28T07:29:18+00:00</time>
        <ele>2080.0</ele>
      </trkpt>
      <trkpt lat="45.26431" lon="6.03464">
        <time>2023-01-28T07:29:24+00:00</time>
        <ele>2081.0</ele>
      </trkpt>
      <trkpt lat="45.26431" lon="6.03464">
        <time>2023-01-28T07:29:28+00:00</time>
        <ele>2081.0</ele>
      </trkpt>
      <trkpt lat="45.26431" lon="6.03464">
        <time>2023-01-28T07:29:33+00:00</time>
        <ele>2081.0</ele>
      </trkpt>
      <trkpt lat="45.2643" lon="6.03465">
        <time>2023-01-28T07:29:37+00:00</time>
        <ele>2080.0</ele>
      </trkpt>
      <trkpt lat="45.2643" lon="6.03465">
        <time>2023-01-28T07:29:41+00:00</time>
        <ele>2080.0</ele>
      </trkpt>
      <trkpt lat="45.2643" lon="6.03465">
        <time>2023-01-28T07:29:42+00:00</time>
        <ele>2080.0</ele>
      </trkpt>
      <trkpt lat="45.26429" lon="6.03465">
        <time>2023-01-28T07:29:47+00:00</time>
        <ele>2081.0</ele>
      </trkpt>
      <trkpt lat="45.26429" lon="6.03465">
        <time>2023-01-28T07:29:52+00:00</time>
        <ele>2081.0</ele>
      </trkpt>
      <trkpt lat="45.26429" lon="6.03465">
        <time>2023-01-28T07:29:56+00:00</time>
        <ele>2081.0</ele>
      </trkpt>
      <trkpt lat="45.26429" lon="6.03465">
        <time>2023-01-28T07:29:59+00:00</time>
        <ele>2081.0</ele>
      </trkpt>
      <trkpt lat="45.26428" lon="6.03465">
        <time>2023-01-28T07:30:03+00:00</time>
        <ele>2081.0</ele>
      </trkpt>
      <trkpt lat="45.26428" lon="6.03465">
        <time>2023-01-28T07:30:05+00:00</time>
        <ele>2081.0</ele>
      </trkpt>
      <trkpt lat="45.26428" lon="6.03465">
        <time>2023-01-28T07:30:08+00:00</time>
        <ele>2081.0</ele>
      </trkpt>
      <trkpt lat="45.26427" lon="6.03465">
        <time>2023-01-28T07:30:17+00:00</time>
        <ele>2082.0</ele>
      </trkpt>
      <trkpt lat="45.26426" lon="6.03465">
        <time>2023-01-28T07:30:31+00:00</time>
        <ele>2082.0</ele>
      </trkpt>
      <trkpt lat="45.26425" lon="6.03466">
        <time>2023-01-28T07:30:34+00:00</time>
        <ele>2082.0</ele>
      </trkpt>
      <trkpt lat="45.26384" lon="6.03472">
        <time>2023-01-28T07:30:40+00:00</time>
        <ele>2096.0</ele>
      </trkpt>
      <trkpt lat="45.26378" lon="6.03473">
        <time>2023-01-28T07:30:41+00:00</time>
        <ele>2096.0</ele>
      </trkpt>
      <trkpt lat="45.26356" lon="6.03476">
        <time>2023-01-28T07:30:48+00:00</time>
        <ele>2101.0</ele>
      </trkpt>
      <trkpt lat="45.26354" lon="6.03476">
        <time>2023-01-28T07:30:54+00:00</time>
        <ele>2101.0</ele>
      </trkpt>
      <trkpt lat="45.26354" lon="6.03476">
        <time>2023-01-28T07:30:56+00:00</time>
        <ele>2101.0</ele>
      </trkpt>
      <trkpt lat="45.26354" lon="6.03476">
        <time>2023-01-28T07:31:01+00:00</time>
        <ele>2101.0</ele>
      </trkpt>
      <trkpt lat="45.26354" lon="6.03476">
        <time>2023-01-28T07:31:02+00:00</time>
        <ele>2101.0</ele>
      </trkpt>
      <trkpt lat="45.26354" lon="6.03476">
        <time>2023-01-28T07:31:07+00:00</time>
        <ele>2101.0</ele>
      </trkpt>
      <trkpt lat="45.26353" lon="6.03476">
        <time>2023-01-28T07:31:11+00:00</time>
        <ele>2101.0</ele>
      </trkpt>
      <trkpt lat="45.26352" lon="6.03476">
        <time>2023-01-28T07:31:12+00:00</time>
        <ele>2102.0</ele>
      </trkpt>
      <trkpt lat="45.26349" lon="6.03477">
        <time>2023-01-28T07:31:15+00:00</time>
        <ele>2103.0</ele>
      </trkpt>
      <trkpt lat="45.26345" lon="6.03478">
        <time>2023-01-28T07:31:20+00:00</time>
        <ele>2105.0</ele>
      </trkpt>
      <trkpt lat="45.26345" lon="6.03478">
        <time>2023-01-28T07:31:24+00:00</time>
        <ele>2105.0</ele>
      </trkpt>
      <trkpt lat="45.26344" lon="6.03479">
        <time>2023-01-28T07:31:28+00:00</time>
        <ele>2106.0</ele>
      </trkpt>
      <trkpt lat="45.26344" lon="6.03479">
        <time>2023-01-28T07:31:30+00:00</time>
        <ele>2106.0</ele>
      </trkpt>
      <trkpt lat="45.26344" lon="6.03479">
        <time>2023-01-28T07:31:34+00:00</time>
        <ele>2106.0</ele>
      </trkpt>
      <trkpt lat="45.26344" lon="6.03478">
        <time>2023-01-28T07:31:37+00:00</time>
        <ele>2106.0</ele>
      </trkpt>
      <trkpt lat="45.26342" lon="6.03478">
        <time>2023-01-28T07:31:41+00:00</time>
        <ele>2107.0</ele>
      </trkpt>
      <trkpt lat="45.2634" lon="6.03478">
        <time>2023-01-28T07:31:44+00:00</time>
        <ele>2108.0</ele>
      </trkpt>
      <trkpt lat="45.26339" lon="6.03477">
        <time>2023-01-28T07:31:50+00:00</time>
        <ele>2108.0</ele>
      </trkpt>
      <trkpt lat="45.26339" lon="6.03477">
        <time>2023-01-28T07:31:54+00:00</time>
        <ele>2108.0</ele>
      </trkpt>
      <trkpt lat="45.26339" lon="6.03477">
        <time>2023-01-28T07:32:01+00:00</time>
        <ele>2108.0</ele>
      </trkpt>
      <trkpt lat="45.26339" lon="6.03477">
        <time>2023-01-28T07:32:05+00:00</time>
        <ele>2108.0</ele>
      </trkpt>
      <trkpt lat="45.26339" lon="6.03477">
        <time>2023-01-28T07:32:06+00:00</time>
        <ele>2108.0</ele>
      </trkpt>
      <trkpt lat="45.26339" lon="6.03478">
        <time>2023-01-28T07:32:10+00:00</time>
        <ele>2108.0</ele>
      </trkpt>
      <trkpt lat="45.26339" lon="6.03478">
        <time>2023-01-28T07:32:14+00:00</time>
        <ele>2108.0</ele>
      </trkpt>
      <trkpt lat="45.26337" lon="6.03478">
        <time>2023-01-28T07:32:18+00:00</time>
        <ele>2109.0</ele>
      </trkpt>
      <trkpt lat="45.26337" lon="6.03479">
        <time>2023-01-28T07:32:22+00:00</time>
        <ele>2110.0</ele>
      </trkpt>
      <trkpt lat="45.26336" lon="6.0348">
        <time>2023-01-28T07:32:25+00:00</time>
        <ele>2111.0</ele>
      </trkpt>
      <trkpt lat="45.26336" lon="6.0348">
        <time>2023-01-28T07:32:28+00:00</time>
        <ele>2111.0</ele>
      </trkpt>
      <trkpt lat="45.26335" lon="6.03482">
        <time>2023-01-28T07:32:31+00:00</time>
        <ele>2112.0</ele>
      </trkpt>
      <trkpt lat="45.26334" lon="6.03482">
        <time>2023-01-28T07:32:34+00:00</time>
        <ele>2112.0</ele>
      </trkpt>
      <trkpt lat="45.26333" lon="6.03482">
        <time>2023-01-28T07:32:37+00:00</time>
        <ele>2113.0</ele>
      </trkpt>
      <trkpt lat="45.26332" lon="6.03482">
        <time>2023-01-28T07:32:40+00:00</time>
        <ele>2113.0</ele>
      </trkpt>
      <trkpt lat="45.26331" lon="6.03482">
        <time>2023-01-28T07:32:43+00:00</time>
        <ele>2114.0</ele>
      </trkpt>
      <trkpt lat="45.2633" lon="6.03482">
        <time>2023-01-28T07:32:47+00:00</time>
        <ele>2114.0</ele>
      </trkpt>
      <trkpt lat="45.2633" lon="6.03481">
        <time>2023-01-28T07:32:51+00:00</time>
        <ele>2113.0</ele>
      </trkpt>
      <trkpt lat="45.26329" lon="6.03481">
        <time>2023-01-28T07:32:52+00:00</time>
        <ele>2113.0</ele>
      </trkpt>
      <trkpt lat="45.26329" lon="6.03481">
        <time>2023-01-28T07:32:59+00:00</time>
        <ele>2113.0</ele>
      </trkpt>
      <trkpt lat="45.26329" lon="6.03481">
        <time>2023-01-28T07:33:01+00:00</time>
        <ele>2113.0</ele>
      </trkpt>
      <trkpt lat="45.26329" lon="6.03481">
        <time>2023-01-28T07:33:03+00:00</time>
        <ele>2113.0</ele>
      </trkpt>
      <trkpt lat="45.2633" lon="6.03482">
        <time>2023-01-28T07:33:10+00:00</time>
        <ele>2114.0</ele>
      </trkpt>
      <trkpt lat="45.2633" lon="6.03483">
        <time>2023-01-28T07:33:15+00:00</time>
        <ele>2114.0</ele>
      </trkpt>
      <trkpt lat="45.26331" lon="6.03485">
        <time>2023-01-28T07:33:19+00:00</time>
        <ele>2113.0</ele>
      </trkpt>
      <trkpt lat="45.26332" lon="6.03486">
        <time>2023-01-28T07:33:32+00:00</time>
        <ele>2113.0</ele>
      </trkpt>
      <trkpt lat="45.26332" lon="6.03487">
        <time>2023-01-28T07:33:37+00:00</time>
        <ele>2113.0</ele>
      </trkpt>
      <trkpt lat="45.26332" lon="6.03487">
        <time>2023-01-28T07:33:39+00:00</time>
        <ele>2113.0</ele>
      </trkpt>
      <trkpt lat="45.26333" lon="6.03487">
        <time>2023-01-28T07:33:59+00:00</time>
        <ele>2112.0</ele>
      </trkpt>
      <trkpt lat="45.26333" lon="6.03488">
        <time>2023-01-28T07:34:01+00:00</time>
        <ele>2112.0</ele>
      </trkpt>
      <trkpt lat="45.26333" lon="6.03488">
        <time>2023-01-28T07:34:02+00:00</time>
        <ele>2112.0</ele>
      </trkpt>
      <trkpt lat="45.26333" lon="6.03488">
        <time>2023-01-28T07:34:03+00:00</time>
        <ele>2112.0</ele>
      </trkpt>
      <trkpt lat="45.26333" lon="6.03488">
        <time>2023-01-28T07:34:04+00:00</time>
        <ele>2112.0</ele>
      </trkpt>
      <trkpt lat="45.26333" lon="6.03488">
        <time>2023-01-28T07:34:06+00:00</time>
        <ele>2112.0</ele>
      </trkpt>
      <trkpt lat="45.26333" lon="6.03488">
        <time>2023-01-28T07:34:07+00:00</time>
        <ele>2112.0</ele>
      </trkpt>
      <trkpt lat="45.26333" lon="6.03488">
        <time>2023-01-28T07:34:09+00:00</time>
        <ele>2112.0</ele>
      </trkpt>
      <trkpt lat="45.26333" lon="6.03488">
        <time>2023-01-28T07:34:15+00:00</time>
        <ele>2112.0</ele>
      </trkpt>
      <trkpt lat="45.26335" lon="6.03489">
        <time>2023-01-28T07:34:32+00:00</time>
        <ele>2111.0</ele>
      </trkpt>
      <trkpt lat="45.26337" lon="6.0349">
        <time>2023-01-28T07:34:50+00:00</time>
        <ele>2109.0</ele>
      </trkpt>
      <trkpt lat="45.26339" lon="6.03491">
        <time>2023-01-28T07:35:27+00:00</time>
        <ele>2108.0</ele>
      </trkpt>
      <trkpt lat="45.26339" lon="6.03491">
        <time>2023-01-28T07:35:34+00:00</time>
        <ele>2108.0</ele>
      </trkpt>
      <trkpt lat="45.26339" lon="6.03491">
        <time>2023-01-28T07:35:37+00:00</time>
        <ele>2108.0</ele>
      </trkpt>
      <trkpt lat="45.26339" lon="6.03491">
        <time>2023-01-28T07:35:43+00:00</time>
        <ele>2108.0</ele>
      </trkpt>
      <trkpt lat="45.26339" lon="6.03491">
        <time>2023-01-28T07:35:47+00:00</time>
        <ele>2108.0</ele>
      </trkpt>
      <trkpt lat="45.26339" lon="6.03491">
        <time>2023-01-28T07:35:49+00:00</time>
        <ele>2108.0</ele>
      </trkpt>
      <trkpt lat="45.26339" lon="6.03491">
        <time>2023-01-28T07:35:51+00:00</time>
        <ele>2108.0</ele>
      </trkpt>
      <trkpt lat="45.26339" lon="6.03491">
        <time>2023-01-28T07:35:54+00:00</time>
        <ele>2108.0</ele>
      </trkpt>
      <trkpt lat="45.26339" lon="6.03491">
        <time>2023-01-28T07:35:59+00:00</time>
        <ele>2108.0</ele>
      </trkpt>
      <trkpt lat="45.26339" lon="6.03491">
        <time>2023-01-28T07:36:05+00:00</time>
        <ele>2108.0</ele>
      </trkpt>
      <trkpt lat="45.26339" lon="6.03491">
        <time>2023-01-28T07:36:09+00:00</time>
        <ele>2108.0</ele>
      </trkpt>
      <trkpt lat="45.26339" lon="6.03491">
        <time>2023-01-28T07:36:10+00:00</time>
        <ele>2108.0</ele>
      </trkpt>
      <trkpt lat="45.26339" lon="6.03491">
        <time>2023-01-28T07:36:14+00:00</time>
        <ele>2108.0</ele>
      </trkpt>
      <trkpt lat="45.26339" lon="6.03491">
        <time>2023-01-28T07:36:15+00:00</time>
        <ele>2108.0</ele>
      </trkpt>
      <trkpt lat="45.26339" lon="6.03491">
        <time>2023-01-28T07:36:17+00:00</time>
        <ele>2108.0</ele>
      </trkpt>
      <trkpt lat="45.26339" lon="6.03491">
        <time>2023-01-28T07:36:22+00:00</time>
        <ele>2108.0</ele>
      </trkpt>
      <trkpt lat="45.26338" lon="6.03491">
        <time>2023-01-28T07:36:24+00:00</time>
        <ele>2108.0</ele>
      </trkpt>
      <trkpt lat="45.26338" lon="6.03491">
        <time>2023-01-28T07:36:26+00:00</time>
        <ele>2108.0</ele>
      </trkpt>
      <trkpt lat="45.26338" lon="6.03491">
        <time>2023-01-28T07:36:29+00:00</time>
        <ele>2108.0</ele>
      </trkpt>
      <trkpt lat="45.26338" lon="6.03492">
        <time>2023-01-28T07:36:34+00:00</time>
        <ele>2108.0</ele>
      </trkpt>
      <trkpt lat="45.26338" lon="6.03492">
        <time>2023-01-28T07:36:41+00:00</time>
        <ele>2108.0</ele>
      </trkpt>
      <trkpt lat="45.26338" lon="6.03492">
        <time>2023-01-28T07:36:47+00:00</time>
        <ele>2108.0</ele>
      </trkpt>
      <trkpt lat="45.26338" lon="6.03492">
        <time>2023-01-28T07:37:00+00:00</time>
        <ele>2108.0</ele>
      </trkpt>
      <trkpt lat="45.26331" lon="6.03495">
        <time>2023-01-28T07:37:15+00:00</time>
        <ele>2111.0</ele>
      </trkpt>
      <trkpt lat="45.26323" lon="6.03498">
        <time>2023-01-28T07:37:18+00:00</time>
        <ele>2112.0</ele>
      </trkpt>
      <trkpt lat="45.26313" lon="6.03501">
        <time>2023-01-28T07:37:24+00:00</time>
        <ele>2112.0</ele>
      </trkpt>
      <trkpt lat="45.26311" lon="6.03501">
        <time>2023-01-28T07:37:27+00:00</time>
        <ele>2112.0</ele>
      </trkpt>
      <trkpt lat="45.26311" lon="6.03501">
        <time>2023-01-28T07:37:28+00:00</time>
        <ele>2112.0</ele>
      </trkpt>
      <trkpt lat="45.2631" lon="6.035">
        <time>2023-01-28T07:37:34+00:00</time>
        <ele>2112.0</ele>
      </trkpt>
      <trkpt lat="45.26311" lon="6.035">
        <time>2023-01-28T07:37:42+00:00</time>
        <ele>2112.0</ele>
      </trkpt>
      <trkpt lat="45.26311" lon="6.035">
        <time>2023-01-28T07:37:44+00:00</time>
        <ele>2112.0</ele>
      </trkpt>
      <trkpt lat="45.2631" lon="6.035">
        <time>2023-01-28T07:37:50+00:00</time>
        <ele>2112.0</ele>
      </trkpt>
      <trkpt lat="45.26307" lon="6.03499">
        <time>2023-01-28T07:38:02+00:00</time>
        <ele>2111.0</ele>
      </trkpt>
      <trkpt lat="45.26306" lon="6.03499">
        <time>2023-01-28T07:38:04+00:00</time>
        <ele>2111.0</ele>
      </trkpt>
      <trkpt lat="45.26304" lon="6.03499">
        <time>2023-01-28T07:38:09+00:00</time>
        <ele>2110.0</ele>
      </trkpt>
      <trkpt lat="45.26303" lon="6.03499">
        <time>2023-01-28T07:38:14+00:00</time>
        <ele>2110.0</ele>
      </trkpt>
      <trkpt lat="45.26303" lon="6.03499">
        <time>2023-01-28T07:38:22+00:00</time>
        <ele>2110.0</ele>
      </trkpt>
      <trkpt lat="45.26303" lon="6.03499">
        <time>2023-01-28T07:38:24+00:00</time>
        <ele>2110.0</ele>
      </trkpt>
      <trkpt lat="45.26303" lon="6.03499">
        <time>2023-01-28T07:38:34+00:00</time>
        <ele>2110.0</ele>
      </trkpt>
      <trkpt lat="45.26304" lon="6.03499">
        <time>2023-01-28T07:38:46+00:00</time>
        <ele>2110.0</ele>
      </trkpt>
      <trkpt lat="45.26304" lon="6.03499">
        <time>2023-01-28T07:38:57+00:00</time>
        <ele>2110.0</ele>
      </trkpt>
      <trkpt lat="45.26304" lon="6.03499">
        <time>2023-01-28T07:38:58+00:00</time>
        <ele>2110.0</ele>
      </trkpt>
      <trkpt lat="45.26304" lon="6.03499">
        <time>2023-01-28T07:39:04+00:00</time>
        <ele>2110.0</ele>
      </trkpt>
      <trkpt lat="45.26303" lon="6.03499">
        <time>2023-01-28T07:39:10+00:00</time>
        <ele>2110.0</ele>
      </trkpt>
      <trkpt lat="45.26301" lon="6.03495">
        <time>2023-01-28T07:39:33+00:00</time>
        <ele>2110.0</ele>
      </trkpt>
      <trkpt lat="45.263" lon="6.0349">
        <time>2023-01-28T07:39:43+00:00</time>
        <ele>2110.0</ele>
      </trkpt>
      <trkpt lat="45.26298" lon="6.0349">
        <time>2023-01-28T07:39:49+00:00</time>
        <ele>2110.0</ele>
      </trkpt>
      <trkpt lat="45.26293" lon="6.03491">
        <time>2023-01-28T07:40:05+00:00</time>
        <ele>2108.0</ele>
      </trkpt>
      <trkpt lat="45.26292" lon="6.03493">
        <time>2023-01-28T07:40:08+00:00</time>
        <ele>2107.0</ele>
      </trkpt>
      <trkpt lat="45.26291" lon="6.03496">
        <time>2023-01-28T07:40:15+00:00</time>
        <ele>2107.0</ele>
      </trkpt>
      <trkpt lat="45.26291" lon="6.03497">
        <time>2023-01-28T07:40:17+00:00</time>
        <ele>2106.0</ele>
      </trkpt>
      <trkpt lat="45.26289" lon="6.03503">
        <time>2023-01-28T07:40:21+00:00</time>
        <ele>2105.0</ele>
      </trkpt>
      <trkpt lat="45.26286" lon="6.03507">
        <time>2023-01-28T07:40:26+00:00</time>
        <ele>2104.0</ele>
      </trkpt>
      <trkpt lat="45.26286" lon="6.03507">
        <time>2023-01-28T07:40:27+00:00</time>
        <ele>2104.0</ele>
      </trkpt>
      <trkpt lat="45.26286" lon="6.03508">
        <time>2023-01-28T07:40:35+00:00</time>
        <ele>2104.0</ele>
      </trkpt>
      <trkpt lat="45.26286" lon="6.03508">
        <time>2023-01-28T07:40:41+00:00</time>
        <ele>2104.0</ele>
      </trkpt>
      <trkpt lat="45.26286" lon="6.03508">
        <time>2023-01-28T07:40:45+00:00</time>
        <ele>2104.0</ele>
      </trkpt>
      <trkpt lat="45.26286" lon="6.03516">
        <time>2023-01-28T07:41:03+00:00</time>
        <ele>2103.0</ele>
      </trkpt>
      <trkpt lat="45.26283" lon="6.03522">
        <time>2023-01-28T07:41:08+00:00</time>
        <ele>2101.0</ele>
      </trkpt>
      <trkpt lat="45.2628" lon="6.03524">
        <time>2023-01-28T07:41:10+00:00</time>
        <ele>2100.0</ele>
      </trkpt>
      <trkpt lat="45.26276" lon="6.03529">
        <time>2023-01-28T07:41:14+00:00</time>
        <ele>2099.0</ele>
      </trkpt>
      <trkpt lat="45.26274" lon="6.0353">
        <time>2023-01-28T07:41:17+00:00</time>
        <ele>2099.0</ele>
      </trkpt>
      <trkpt lat="45.26271" lon="6.0353">
        <time>2023-01-28T07:41:20+00:00</time>
        <ele>2098.0</ele>
      </trkpt>
      <trkpt lat="45.26271" lon="6.0353">
        <time>2023-01-28T07:41:21+00:00</time>
        <ele>2098.0</ele>
      </trkpt>
      <trkpt lat="45.26271" lon="6.0353">
        <time>2023-01-28T07:41:23+00:00</time>
        <ele>2098.0</ele>
      </trkpt>
      <trkpt lat="45.26271" lon="6.0353">
        <time>2023-01-28T07:41:24+00:00</time>
        <ele>2098.0</ele>
      </trkpt>
      <trkpt lat="45.2627" lon="6.03531">
        <time>2023-01-28T07:41:28+00:00</time>
        <ele>2098.0</ele>
      </trkpt>
      <trkpt lat="45.26269" lon="6.03532">
        <time>2023-01-28T07:41:30+00:00</time>
        <ele>2098.0</ele>
      </trkpt>
      <trkpt lat="45.26267" lon="6.03533">
        <time>2023-01-28T07:41:34+00:00</time>
        <ele>2097.0</ele>
      </trkpt>
      <trkpt lat="45.26266" lon="6.03533">
        <time>2023-01-28T07:41:35+00:00</time>
        <ele>2097.0</ele>
      </trkpt>
      <trkpt lat="45.26266" lon="6.03533">
        <time>2023-01-28T07:41:36+00:00</time>
        <ele>2097.0</ele>
      </trkpt>
      <trkpt lat="45.26265" lon="6.03532">
        <time>2023-01-28T07:41:38+00:00</time>
        <ele>2097.0</ele>
      </trkpt>
      <trkpt lat="45.26262" lon="6.03531">
        <time>2023-01-28T07:41:41+00:00</time>
        <ele>2097.0</ele>
      </trkpt>
      <trkpt lat="45.2626" lon="6.03529">
        <time>2023-01-28T07:41:43+00:00</time>
        <ele>2096.0</ele>
      </trkpt>
      <trkpt lat="45.2626" lon="6.03529">
        <time>2023-01-28T07:41:44+00:00</time>
        <ele>2096.0</ele>
      </trkpt>
      <trkpt lat="45.2626" lon="6.03528">
        <time>2023-01-28T07:41:46+00:00</time>
        <ele>2096.0</ele>
      </trkpt>
      <trkpt lat="45.26259" lon="6.03527">
        <time>2023-01-28T07:41:50+00:00</time>
        <ele>2096.0</ele>
      </trkpt>
      <trkpt lat="45.26258" lon="6.03524">
        <time>2023-01-28T07:41:52+00:00</time>
        <ele>2096.0</ele>
      </trkpt>
      <trkpt lat="45.26257" lon="6.03522">
        <time>2023-01-28T07:41:54+00:00</time>
        <ele>2096.0</ele>
      </trkpt>
      <trkpt lat="45.26256" lon="6.0352">
        <time>2023-01-28T07:41:56+00:00</time>
        <ele>2096.0</ele>
      </trkpt>
      <trkpt lat="45.26255" lon="6.0352">
        <time>2023-01-28T07:41:57+00:00</time>
        <ele>2096.0</ele>
      </trkpt>
      <trkpt lat="45.26253" lon="6.03521">
        <time>2023-01-28T07:42:00+00:00</time>
        <ele>2096.0</ele>
      </trkpt>
      <trkpt lat="45.26251" lon="6.03523">
        <time>2023-01-28T07:42:02+00:00</time>
        <ele>2095.0</ele>
      </trkpt>
      <trkpt lat="45.26249" lon="6.03525">
        <time>2023-01-28T07:42:05+00:00</time>
        <ele>2095.0</ele>
      </trkpt>
      <trkpt lat="45.26246" lon="6.03525">
        <time>2023-01-28T07:42:09+00:00</time>
        <ele>2095.0</ele>
      </trkpt>
      <trkpt lat="45.26246" lon="6.03525">
        <time>2023-01-28T07:42:12+00:00</time>
        <ele>2095.0</ele>
      </trkpt>
      <trkpt lat="45.26247" lon="6.03524">
        <time>2023-01-28T07:42:15+00:00</time>
        <ele>2095.0</ele>
      </trkpt>
      <trkpt lat="45.26249" lon="6.03522">
        <time>2023-01-28T07:42:19+00:00</time>
        <ele>2095.0</ele>
      </trkpt>
      <trkpt lat="45.2625" lon="6.03521">
        <time>2023-01-28T07:42:22+00:00</time>
        <ele>2095.0</ele>
      </trkpt>
      <trkpt lat="45.2625" lon="6.03521">
        <time>2023-01-28T07:42:25+00:00</time>
        <ele>2095.0</ele>
      </trkpt>
      <trkpt lat="45.2625" lon="6.03521">
        <time>2023-01-28T07:42:27+00:00</time>
        <ele>2095.0</ele>
      </trkpt>
      <trkpt lat="45.2625" lon="6.03521">
        <time>2023-01-28T07:42:32+00:00</time>
        <ele>2095.0</ele>
      </trkpt>
      <trkpt lat="45.2625" lon="6.03523">
        <time>2023-01-28T07:42:42+00:00</time>
        <ele>2095.0</ele>
      </trkpt>
      <trkpt lat="45.2625" lon="6.03523">
        <time>2023-01-28T07:42:51+00:00</time>
        <ele>2095.0</ele>
      </trkpt>
      <trkpt lat="45.2625" lon="6.03523">
        <time>2023-01-28T07:42:53+00:00</time>
        <ele>2095.0</ele>
      </trkpt>
      <trkpt lat="45.2625" lon="6.03523">
        <time>2023-01-28T07:43:00+00:00</time>
        <ele>2095.0</ele>
      </trkpt>
      <trkpt lat="45.2625" lon="6.03523">
        <time>2023-01-28T07:43:07+00:00</time>
        <ele>2095.0</ele>
      </trkpt>
      <trkpt lat="45.2625" lon="6.03523">
        <time>2023-01-28T07:43:11+00:00</time>
        <ele>2095.0</ele>
      </trkpt>
      <trkpt lat="45.2625" lon="6.03523">
        <time>2023-01-28T07:43:17+00:00</time>
        <ele>2095.0</ele>
      </trkpt>
      <trkpt lat="45.2625" lon="6.03523">
        <time>2023-01-28T07:43:18+00:00</time>
        <ele>2095.0</ele>
      </trkpt>
      <trkpt lat="45.2625" lon="6.03523">
        <time>2023-01-28T07:43:27+00:00</time>
        <ele>2095.0</ele>
      </trkpt>
      <trkpt lat="45.2625" lon="6.03523">
        <time>2023-01-28T07:43:30+00:00</time>
        <ele>2095.0</ele>
      </trkpt>
      <trkpt lat="45.2625" lon="6.03523">
        <time>2023-01-28T07:43:36+00:00</time>
        <ele>2095.0</ele>
      </trkpt>
      <trkpt lat="45.26249" lon="6.03522">
        <time>2023-01-28T07:43:59+00:00</time>
        <ele>2095.0</ele>
      </trkpt>
      <trkpt lat="45.26249" lon="6.03522">
        <time>2023-01-28T07:44:13+00:00</time>
        <ele>2095.0</ele>
      </trkpt>
      <trkpt lat="45.26249" lon="6.03522">
        <time>2023-01-28T07:44:18+00:00</time>
        <ele>2095.0</ele>
      </trkpt>
      <trkpt lat="45.26249" lon="6.03522">
        <time>2023-01-28T07:44:23+00:00</time>
        <ele>2095.0</ele>
      </trkpt>
      <trkpt lat="45.26249" lon="6.03522">
        <time>2023-01-28T07:44:31+00:00</time>
        <ele>2095.0</ele>
      </trkpt>
      <trkpt lat="45.26249" lon="6.03522">
        <time>2023-01-28T07:44:37+00:00</time>
        <ele>2095.0</ele>
      </trkpt>
      <trkpt lat="45.26249" lon="6.03523">
        <time>2023-01-28T07:44:41+00:00</time>
        <ele>2095.0</ele>
      </trkpt>
      <trkpt lat="45.26248" lon="6.03523">
        <time>2023-01-28T07:44:46+00:00</time>
        <ele>2095.0</ele>
      </trkpt>
      <trkpt lat="45.26248" lon="6.03523">
        <time>2023-01-28T07:44:51+00:00</time>
        <ele>2095.0</ele>
      </trkpt>
      <trkpt lat="45.26248" lon="6.03523">
        <time>2023-01-28T07:44:55+00:00</time>
        <ele>2095.0</ele>
      </trkpt>
      <trkpt lat="45.26248" lon="6.03523">
        <time>2023-01-28T07:44:59+00:00</time>
        <ele>2095.0</ele>
      </trkpt>
      <trkpt lat="45.26248" lon="6.03523">
        <time>2023-01-28T07:45:03+00:00</time>
        <ele>2095.0</ele>
      </trkpt>
      <trkpt lat="45.26248" lon="6.03523">
        <time>2023-01-28T07:45:08+00:00</time>
        <ele>2095.0</ele>
      </trkpt>
      <trkpt lat="45.26248" lon="6.03523">
        <time>2023-01-28T07:45:21+00:00</time>
        <ele>2095.0</ele>
      </trkpt>
      <trkpt lat="45.26248" lon="6.03523">
        <time>2023-01-28T07:45:28+00:00</time>
        <ele>2095.0</ele>
      </trkpt>
      <trkpt lat="45.26247" lon="6.03523">
        <time>2023-01-28T07:45:36+00:00</time>
        <ele>2095.0</ele>
      </trkpt>
      <trkpt lat="45.26247" lon="6.03523">
        <time>2023-01-28T07:45:40+00:00</time>
        <ele>2095.0</ele>
      </trkpt>
      <trkpt lat="45.26248" lon="6.03523">
        <time>2023-01-28T07:45:49+00:00</time>
        <ele>2095.0</ele>
      </trkpt>
      <trkpt lat="45.26248" lon="6.03523">
        <time>2023-01-28T07:45:54+00:00</time>
        <ele>2095.0</ele>
      </trkpt>
      <trkpt lat="45.26248" lon="6.03523">
        <time>2023-01-28T07:46:02+00:00</time>
        <ele>2095.0</ele>
      </trkpt>
      <trkpt lat="45.26248" lon="6.03523">
        <time>2023-01-28T07:46:09+00:00</time>
        <ele>2095.0</ele>
      </trkpt>
      <trkpt lat="45.26248" lon="6.03523">
        <time>2023-01-28T07:46:13+00:00</time>
        <ele>2095.0</ele>
      </trkpt>
      <trkpt lat="45.26248" lon="6.03523">
        <time>2023-01-28T07:46:24+00:00</time>
        <ele>2095.0</ele>
      </trkpt>
      <trkpt lat="45.26248" lon="6.03523">
        <time>2023-01-28T07:46:38+00:00</time>
        <ele>2095.0</ele>
      </trkpt>
      <trkpt lat="45.26248" lon="6.03523">
        <time>2023-01-28T07:46:45+00:00</time>
        <ele>2095.0</ele>
      </trkpt>
      <trkpt lat="45.26248" lon="6.03523">
        <time>2023-01-28T07:46:49+00:00</time>
        <ele>2095.0</ele>
      </trkpt>
      <trkpt lat="45.26248" lon="6.03523">
        <time>2023-01-28T07:46:53+00:00</time>
        <ele>2095.0</ele>
      </trkpt>
      <trkpt lat="45.26248" lon="6.03523">
        <time>2023-01-28T07:46:58+00:00</time>
        <ele>2095.0</ele>
      </trkpt>
      <trkpt lat="45.26248" lon="6.03523">
        <time>2023-01-28T07:47:04+00:00</time>
        <ele>2095.0</ele>
      </trkpt>
      <trkpt lat="45.26248" lon="6.03523">
        <time>2023-01-28T07:47:38+00:00</time>
        <ele>2095.0</ele>
      </trkpt>
      <trkpt lat="45.26248" lon="6.03523">
        <time>2023-01-28T07:47:42+00:00</time>
        <ele>2095.0</ele>
      </trkpt>
      <trkpt lat="45.26248" lon="6.03523">
        <time>2023-01-28T07:47:43+00:00</time>
        <ele>2095.0</ele>
      </trkpt>
      <trkpt lat="45.26248" lon="6.03523">
        <time>2023-01-28T07:47:47+00:00</time>
        <ele>2095.0</ele>
      </trkpt>
      <trkpt lat="45.26248" lon="6.03523">
        <time>2023-01-28T07:47:50+00:00</time>
        <ele>2095.0</ele>
      </trkpt>
      <trkpt lat="45.26248" lon="6.03523">
        <time>2023-01-28T07:47:53+00:00</time>
        <ele>2095.0</ele>
      </trkpt>
      <trkpt lat="45.26248" lon="6.03523">
        <time>2023-01-28T07:47:57+00:00</time>
        <ele>2095.0</ele>
      </trkpt>
      <trkpt lat="45.26248" lon="6.03523">
        <time>2023-01-28T07:48:01+00:00</time>
        <ele>2095.0</ele>
      </trkpt>
      <trkpt lat="45.26248" lon="6.03523">
        <time>2023-01-28T07:48:06+00:00</time>
        <ele>2095.0</ele>
      </trkpt>
      <trkpt lat="45.26248" lon="6.03523">
        <time>2023-01-28T07:48:21+00:00</time>
        <ele>2095.0</ele>
      </trkpt>
      <trkpt lat="45.26248" lon="6.03523">
        <time>2023-01-28T07:48:42+00:00</time>
        <ele>2095.0</ele>
      </trkpt>
      <trkpt lat="45.26248" lon="6.03523">
        <time>2023-01-28T07:48:53+00:00</time>
        <ele>2095.0</ele>
      </trkpt>
      <trkpt lat="45.26248" lon="6.03523">
        <time>2023-01-28T07:49:03+00:00</time>
        <ele>2095.0</ele>
      </trkpt>
      <trkpt lat="45.26248" lon="6.03523">
        <time>2023-01-28T07:49:10+00:00</time>
        <ele>2095.0</ele>
      </trkpt>
      <trkpt lat="45.26248" lon="6.03523">
        <time>2023-01-28T07:49:15+00:00</time>
        <ele>2095.0</ele>
      </trkpt>
      <trkpt lat="45.26248" lon="6.03523">
        <time>2023-01-28T07:49:18+00:00</time>
        <ele>2095.0</ele>
      </trkpt>
      <trkpt lat="45.26248" lon="6.03523">
        <time>2023-01-28T07:49:21+00:00</time>
        <ele>2095.0</ele>
      </trkpt>
      <trkpt lat="45.26248" lon="6.03523">
        <time>2023-01-28T07:49:23+00:00</time>
        <ele>2095.0</ele>
      </trkpt>
      <trkpt lat="45.26248" lon="6.03523">
        <time>2023-01-28T07:49:25+00:00</time>
        <ele>2095.0</ele>
      </trkpt>
      <trkpt lat="45.26248" lon="6.03523">
        <time>2023-01-28T07:49:26+00:00</time>
        <ele>2095.0</ele>
      </trkpt>
      <trkpt lat="45.26248" lon="6.03523">
        <time>2023-01-28T07:49:29+00:00</time>
        <ele>2095.0</ele>
      </trkpt>
      <trkpt lat="45.26248" lon="6.03523">
        <time>2023-01-28T07:49:32+00:00</time>
        <ele>2095.0</ele>
      </trkpt>
      <trkpt lat="45.26248" lon="6.03523">
        <time>2023-01-28T07:49:35+00:00</time>
        <ele>2095.0</ele>
      </trkpt>
      <trkpt lat="45.26248" lon="6.03523">
        <time>2023-01-28T07:49:38+00:00</time>
        <ele>2095.0</ele>
      </trkpt>
      <trkpt lat="45.26248" lon="6.03523">
        <time>2023-01-28T07:49:41+00:00</time>
        <ele>2095.0</ele>
      </trkpt>
      <trkpt lat="45.26248" lon="6.03523">
        <time>2023-01-28T07:49:44+00:00</time>
        <ele>2095.0</ele>
      </trkpt>
      <trkpt lat="45.26248" lon="6.03523">
        <time>2023-01-28T07:49:47+00:00</time>
        <ele>2095.0</ele>
      </trkpt>
      <trkpt lat="45.26248" lon="6.03523">
        <time>2023-01-28T07:49:50+00:00</time>
        <ele>2095.0</ele>
      </trkpt>
      <trkpt lat="45.26248" lon="6.03523">
        <time>2023-01-28T07:49:53+00:00</time>
        <ele>2095.0</ele>
      </trkpt>
      <trkpt lat="45.26248" lon="6.03523">
        <time>2023-01-28T07:49:56+00:00</time>
        <ele>2095.0</ele>
      </trkpt>
      <trkpt lat="45.26248" lon="6.03523">
        <time>2023-01-28T07:49:59+00:00</time>
        <ele>2095.0</ele>
      </trkpt>
      <trkpt lat="45.26248" lon="6.03523">
        <time>2023-01-28T07:50:02+00:00</time>
        <ele>2095.0</ele>
      </trkpt>
      <trkpt lat="45.26248" lon="6.03523">
        <time>2023-01-28T07:50:06+00:00</time>
        <ele>2095.0</ele>
      </trkpt>
      <trkpt lat="45.26248" lon="6.03523">
        <time>2023-01-28T07:50:11+00:00</time>
        <ele>2095.0</ele>
      </trkpt>
      <trkpt lat="45.26248" lon="6.03523">
        <time>2023-01-28T07:50:14+00:00</time>
        <ele>2095.0</ele>
      </trkpt>
      <trkpt lat="45.26248" lon="6.03523">
        <time>2023-01-28T07:50:22+00:00</time>
        <ele>2095.0</ele>
      </trkpt>
      <trkpt lat="45.26248" lon="6.03523">
        <time>2023-01-28T07:50:38+00:00</time>
        <ele>2095.0</ele>
      </trkpt>
      <trkpt lat="45.26248" lon="6.03523">
        <time>2023-01-28T07:50:42+00:00</time>
        <ele>2095.0</ele>
      </trkpt>
      <trkpt lat="45.26248" lon="6.03523">
        <time>2023-01-28T07:50:52+00:00</time>
        <ele>2095.0</ele>
      </trkpt>
      <trkpt lat="45.26248" lon="6.03523">
        <time>2023-01-28T07:50:54+00:00</time>
        <ele>2095.0</ele>
      </trkpt>
      <trkpt lat="45.26248" lon="6.03523">
        <time>2023-01-28T07:50:58+00:00</time>
        <ele>2095.0</ele>
      </trkpt>
      <trkpt lat="45.26248" lon="6.03523">
        <time>2023-01-28T07:51:02+00:00</time>
        <ele>2095.0</ele>
      </trkpt>
      <trkpt lat="45.26248" lon="6.03523">
        <time>2023-01-28T07:51:05+00:00</time>
        <ele>2095.0</ele>
      </trkpt>
      <trkpt lat="45.26248" lon="6.03523">
        <time>2023-01-28T07:51:06+00:00</time>
        <ele>2095.0</ele>
      </trkpt>
      <trkpt lat="45.26244" lon="6.03522">
        <time>2023-01-28T07:51:10+00:00</time>
        <ele>2095.0</ele>
      </trkpt>
      <trkpt lat="45.26238" lon="6.03523">
        <time>2023-01-28T07:51:14+00:00</time>
        <ele>2094.0</ele>
      </trkpt>
      <trkpt lat="45.26232" lon="6.03524">
        <time>2023-01-28T07:51:18+00:00</time>
        <ele>2093.0</ele>
      </trkpt>
      <trkpt lat="45.26231" lon="6.03524">
        <time>2023-01-28T07:51:19+00:00</time>
        <ele>2093.0</ele>
      </trkpt>
      <trkpt lat="45.2623" lon="6.03524">
        <time>2023-01-28T07:51:21+00:00</time>
        <ele>2093.0</ele>
      </trkpt>
      <trkpt lat="45.2623" lon="6.03524">
        <time>2023-01-28T07:51:24+00:00</time>
        <ele>2093.0</ele>
      </trkpt>
      <trkpt lat="45.2623" lon="6.03524">
        <time>2023-01-28T07:51:25+00:00</time>
        <ele>2093.0</ele>
      </trkpt>
      <trkpt lat="45.26231" lon="6.03524">
        <time>2023-01-28T07:51:28+00:00</time>
        <ele>2093.0</ele>
      </trkpt>
      <trkpt lat="45.2623" lon="6.03525">
        <time>2023-01-28T07:51:30+00:00</time>
        <ele>2093.0</ele>
      </trkpt>
      <trkpt lat="45.2623" lon="6.03525">
        <time>2023-01-28T07:51:33+00:00</time>
        <ele>2093.0</ele>
      </trkpt>
      <trkpt lat="45.2623" lon="6.03525">
        <time>2023-01-28T07:51:37+00:00</time>
        <ele>2093.0</ele>
      </trkpt>
      <trkpt lat="45.2623" lon="6.03525">
        <time>2023-01-28T07:51:38+00:00</time>
        <ele>2093.0</ele>
      </trkpt>
      <trkpt lat="45.2623" lon="6.03526">
        <time>2023-01-28T07:51:42+00:00</time>
        <ele>2093.0</ele>
      </trkpt>
      <trkpt lat="45.26229" lon="6.03526">
        <time>2023-01-28T07:51:44+00:00</time>
        <ele>2093.0</ele>
      </trkpt>
      <trkpt lat="45.26223" lon="6.03525">
        <time>2023-01-28T07:51:46+00:00</time>
        <ele>2092.0</ele>
      </trkpt>
      <trkpt lat="45.26211" lon="6.03523">
        <time>2023-01-28T07:51:50+00:00</time>
        <ele>2089.0</ele>
      </trkpt>
      <trkpt lat="45.26208" lon="6.03524">
        <time>2023-01-28T07:51:54+00:00</time>
        <ele>2088.0</ele>
      </trkpt>
      <trkpt lat="45.26206" lon="6.03524">
        <time>2023-01-28T07:51:55+00:00</time>
        <ele>2087.0</ele>
      </trkpt>
      <trkpt lat="45.26206" lon="6.03523">
        <time>2023-01-28T07:52:00+00:00</time>
        <ele>2088.0</ele>
      </trkpt>
      <trkpt lat="45.26206" lon="6.03521">
        <time>2023-01-28T07:52:06+00:00</time>
        <ele>2088.0</ele>
      </trkpt>
      <trkpt lat="45.26206" lon="6.0352">
        <time>2023-01-28T07:52:08+00:00</time>
        <ele>2088.0</ele>
      </trkpt>
      <trkpt lat="45.26206" lon="6.03519">
        <time>2023-01-28T07:52:10+00:00</time>
        <ele>2088.0</ele>
      </trkpt>
      <trkpt lat="45.26207" lon="6.03517">
        <time>2023-01-28T07:52:13+00:00</time>
        <ele>2089.0</ele>
      </trkpt>
      <trkpt lat="45.26208" lon="6.03514">
        <time>2023-01-28T07:52:16+00:00</time>
        <ele>2089.0</ele>
      </trkpt>
      <trkpt lat="45.26209" lon="6.0351">
        <time>2023-01-28T07:52:19+00:00</time>
        <ele>2090.0</ele>
      </trkpt>
      <trkpt lat="45.26208" lon="6.03504">
        <time>2023-01-28T07:52:22+00:00</time>
        <ele>2089.0</ele>
      </trkpt>
      <trkpt lat="45.26205" lon="6.03499">
        <time>2023-01-28T07:52:24+00:00</time>
        <ele>2089.0</ele>
      </trkpt>
      <trkpt lat="45.26203" lon="6.03498">
        <time>2023-01-28T07:52:25+00:00</time>
        <ele>2088.0</ele>
      </trkpt>
      <trkpt lat="45.26197" lon="6.03496">
        <time>2023-01-28T07:52:27+00:00</time>
        <ele>2087.0</ele>
      </trkpt>
      <trkpt lat="45.26182" lon="6.03485">
        <time>2023-01-28T07:52:32+00:00</time>
        <ele>2084.0</ele>
      </trkpt>
      <trkpt lat="45.26179" lon="6.03479">
        <time>2023-01-28T07:52:35+00:00</time>
        <ele>2083.0</ele>
      </trkpt>
      <trkpt lat="45.26179" lon="6.03477">
        <time>2023-01-28T07:52:36+00:00</time>
        <ele>2083.0</ele>
      </trkpt>
      <trkpt lat="45.26183" lon="6.03466">
        <time>2023-01-28T07:52:42+00:00</time>
        <ele>2084.0</ele>
      </trkpt>
      <trkpt lat="45.26184" lon="6.03463">
        <time>2023-01-28T07:52:44+00:00</time>
        <ele>2084.0</ele>
      </trkpt>
      <trkpt lat="45.26183" lon="6.03458">
        <time>2023-01-28T07:52:46+00:00</time>
        <ele>2084.0</ele>
      </trkpt>
      <trkpt lat="45.26181" lon="6.03456">
        <time>2023-01-28T07:52:47+00:00</time>
        <ele>2084.0</ele>
      </trkpt>
      <trkpt lat="45.26182" lon="6.03454">
        <time>2023-01-28T07:52:52+00:00</time>
        <ele>2084.0</ele>
      </trkpt>
      <trkpt lat="45.26179" lon="6.03448">
        <time>2023-01-28T07:52:57+00:00</time>
        <ele>2083.0</ele>
      </trkpt>
      <trkpt lat="45.26178" lon="6.03448">
        <time>2023-01-28T07:52:58+00:00</time>
        <ele>2083.0</ele>
      </trkpt>
      <trkpt lat="45.26177" lon="6.03446">
        <time>2023-01-28T07:53:00+00:00</time>
        <ele>2082.0</ele>
      </trkpt>
      <trkpt lat="45.26175" lon="6.03444">
        <time>2023-01-28T07:53:03+00:00</time>
        <ele>2082.0</ele>
      </trkpt>
      <trkpt lat="45.26174" lon="6.03443">
        <time>2023-01-28T07:53:04+00:00</time>
        <ele>2082.0</ele>
      </trkpt>
      <trkpt lat="45.26173" lon="6.03442">
        <time>2023-01-28T07:53:05+00:00</time>
        <ele>2082.0</ele>
      </trkpt>
      <trkpt lat="45.26166" lon="6.03438">
        <time>2023-01-28T07:53:09+00:00</time>
        <ele>2081.0</ele>
      </trkpt>
      <trkpt lat="45.26155" lon="6.03428">
        <time>2023-01-28T07:53:15+00:00</time>
        <ele>2081.0</ele>
      </trkpt>
      <trkpt lat="45.26149" lon="6.03418">
        <time>2023-01-28T07:53:20+00:00</time>
        <ele>2078.0</ele>
      </trkpt>
      <trkpt lat="45.2615" lon="6.03417">
        <time>2023-01-28T07:53:21+00:00</time>
        <ele>2078.0</ele>
      </trkpt>
      <trkpt lat="45.26153" lon="6.03414">
        <time>2023-01-28T07:53:24+00:00</time>
        <ele>2076.0</ele>
      </trkpt>
      <trkpt lat="45.2615" lon="6.03409">
        <time>2023-01-28T07:53:26+00:00</time>
        <ele>2075.0</ele>
      </trkpt>
      <trkpt lat="45.26148" lon="6.03405">
        <time>2023-01-28T07:53:30+00:00</time>
        <ele>2075.0</ele>
      </trkpt>
      <trkpt lat="45.26147" lon="6.03405">
        <time>2023-01-28T07:53:31+00:00</time>
        <ele>2075.0</ele>
      </trkpt>
      <trkpt lat="45.26147" lon="6.03405">
        <time>2023-01-28T07:53:34+00:00</time>
        <ele>2075.0</ele>
      </trkpt>
      <trkpt lat="45.26148" lon="6.03405">
        <time>2023-01-28T07:53:37+00:00</time>
        <ele>2075.0</ele>
      </trkpt>
      <trkpt lat="45.26147" lon="6.03405">
        <time>2023-01-28T07:53:38+00:00</time>
        <ele>2075.0</ele>
      </trkpt>
      <trkpt lat="45.26147" lon="6.03404">
        <time>2023-01-28T07:53:42+00:00</time>
        <ele>2075.0</ele>
      </trkpt>
      <trkpt lat="45.26147" lon="6.03404">
        <time>2023-01-28T07:53:45+00:00</time>
        <ele>2075.0</ele>
      </trkpt>
      <trkpt lat="45.26147" lon="6.03404">
        <time>2023-01-28T07:53:46+00:00</time>
        <ele>2075.0</ele>
      </trkpt>
      <trkpt lat="45.26148" lon="6.03402">
        <time>2023-01-28T07:53:48+00:00</time>
        <ele>2074.0</ele>
      </trkpt>
      <trkpt lat="45.26148" lon="6.03401">
        <time>2023-01-28T07:53:49+00:00</time>
        <ele>2073.0</ele>
      </trkpt>
      <trkpt lat="45.26147" lon="6.03398">
        <time>2023-01-28T07:53:54+00:00</time>
        <ele>2072.0</ele>
      </trkpt>
      <trkpt lat="45.26146" lon="6.03396">
        <time>2023-01-28T07:53:55+00:00</time>
        <ele>2071.0</ele>
      </trkpt>
      <trkpt lat="45.26145" lon="6.03395">
        <time>2023-01-28T07:53:57+00:00</time>
        <ele>2071.0</ele>
      </trkpt>
      <trkpt lat="45.26145" lon="6.03395">
        <time>2023-01-28T07:53:58+00:00</time>
        <ele>2071.0</ele>
      </trkpt>
      <trkpt lat="45.26147" lon="6.03393">
        <time>2023-01-28T07:54:01+00:00</time>
        <ele>2069.0</ele>
      </trkpt>
      <trkpt lat="45.2615" lon="6.03393">
        <time>2023-01-28T07:54:03+00:00</time>
        <ele>2068.0</ele>
      </trkpt>
      <trkpt lat="45.26153" lon="6.0339">
        <time>2023-01-28T07:54:05+00:00</time>
        <ele>2066.0</ele>
      </trkpt>
      <trkpt lat="45.26153" lon="6.03387">
        <time>2023-01-28T07:54:07+00:00</time>
        <ele>2064.0</ele>
      </trkpt>
      <trkpt lat="45.26153" lon="6.03386">
        <time>2023-01-28T07:54:08+00:00</time>
        <ele>2064.0</ele>
      </trkpt>
      <trkpt lat="45.26151" lon="6.03384">
        <time>2023-01-28T07:54:11+00:00</time>
        <ele>2063.0</ele>
      </trkpt>
      <trkpt lat="45.26151" lon="6.03384">
        <time>2023-01-28T07:54:12+00:00</time>
        <ele>2063.0</ele>
      </trkpt>
      <trkpt lat="45.2615" lon="6.03384">
        <time>2023-01-28T07:54:14+00:00</time>
        <ele>2064.0</ele>
      </trkpt>
      <trkpt lat="45.2615" lon="6.03383">
        <time>2023-01-28T07:54:15+00:00</time>
        <ele>2063.0</ele>
      </trkpt>
      <trkpt lat="45.26147" lon="6.03379">
        <time>2023-01-28T07:54:17+00:00</time>
        <ele>2062.0</ele>
      </trkpt>
      <trkpt lat="45.26145" lon="6.03377">
        <time>2023-01-28T07:54:18+00:00</time>
        <ele>2062.0</ele>
      </trkpt>
      <trkpt lat="45.26141" lon="6.03372">
        <time>2023-01-28T07:54:20+00:00</time>
        <ele>2060.0</ele>
      </trkpt>
      <trkpt lat="45.26136" lon="6.03366">
        <time>2023-01-28T07:54:23+00:00</time>
        <ele>2058.0</ele>
      </trkpt>
      <trkpt lat="45.26133" lon="6.03363">
        <time>2023-01-28T07:54:25+00:00</time>
        <ele>2057.0</ele>
      </trkpt>
      <trkpt lat="45.26132" lon="6.03361">
        <time>2023-01-28T07:54:26+00:00</time>
        <ele>2056.0</ele>
      </trkpt>
      <trkpt lat="45.2613" lon="6.03359">
        <time>2023-01-28T07:54:29+00:00</time>
        <ele>2055.0</ele>
      </trkpt>
      <trkpt lat="45.2613" lon="6.03359">
        <time>2023-01-28T07:54:30+00:00</time>
        <ele>2055.0</ele>
      </trkpt>
      <trkpt lat="45.26128" lon="6.03358">
        <time>2023-01-28T07:54:32+00:00</time>
        <ele>2055.0</ele>
      </trkpt>
      <trkpt lat="45.26125" lon="6.03356">
        <time>2023-01-28T07:54:35+00:00</time>
        <ele>2055.0</ele>
      </trkpt>
      <trkpt lat="45.26125" lon="6.03356">
        <time>2023-01-28T07:54:36+00:00</time>
        <ele>2055.0</ele>
      </trkpt>
      <trkpt lat="45.26124" lon="6.03354">
        <time>2023-01-28T07:54:38+00:00</time>
        <ele>2053.0</ele>
      </trkpt>
      <trkpt lat="45.26124" lon="6.03352">
        <time>2023-01-28T07:54:39+00:00</time>
        <ele>2052.0</ele>
      </trkpt>
      <trkpt lat="45.26127" lon="6.03348">
        <time>2023-01-28T07:54:41+00:00</time>
        <ele>2049.0</ele>
      </trkpt>
      <trkpt lat="45.26128" lon="6.03344">
        <time>2023-01-28T07:54:43+00:00</time>
        <ele>2047.0</ele>
      </trkpt>
      <trkpt lat="45.26126" lon="6.03343">
        <time>2023-01-28T07:54:44+00:00</time>
        <ele>2046.0</ele>
      </trkpt>
      <trkpt lat="45.2612" lon="6.03338">
        <time>2023-01-28T07:54:47+00:00</time>
        <ele>2044.0</ele>
      </trkpt>
      <trkpt lat="45.26113" lon="6.03331">
        <time>2023-01-28T07:54:50+00:00</time>
        <ele>2040.0</ele>
      </trkpt>
      <trkpt lat="45.26112" lon="6.03328">
        <time>2023-01-28T07:54:51+00:00</time>
        <ele>2038.0</ele>
      </trkpt>
      <trkpt lat="45.26108" lon="6.03325">
        <time>2023-01-28T07:54:52+00:00</time>
        <ele>2036.0</ele>
      </trkpt>
      <trkpt lat="45.26106" lon="6.03324">
        <time>2023-01-28T07:54:53+00:00</time>
        <ele>2035.0</ele>
      </trkpt>
      <trkpt lat="45.26103" lon="6.03323">
        <time>2023-01-28T07:54:55+00:00</time>
        <ele>2035.0</ele>
      </trkpt>
      <trkpt lat="45.26102" lon="6.03323">
        <time>2023-01-28T07:54:56+00:00</time>
        <ele>2035.0</ele>
      </trkpt>
      <trkpt lat="45.26101" lon="6.03323">
        <time>2023-01-28T07:54:58+00:00</time>
        <ele>2035.0</ele>
      </trkpt>
      <trkpt lat="45.26101" lon="6.03322">
        <time>2023-01-28T07:54:59+00:00</time>
        <ele>2034.0</ele>
      </trkpt>
      <trkpt lat="45.26099" lon="6.03316">
        <time>2023-01-28T07:55:01+00:00</time>
        <ele>2030.0</ele>
      </trkpt>
      <trkpt lat="45.26098" lon="6.03313">
        <time>2023-01-28T07:55:02+00:00</time>
        <ele>2028.0</ele>
      </trkpt>
      <trkpt lat="45.26096" lon="6.03312">
        <time>2023-01-28T07:55:03+00:00</time>
        <ele>2027.0</ele>
      </trkpt>
      <trkpt lat="45.26091" lon="6.03308">
        <time>2023-01-28T07:55:05+00:00</time>
        <ele>2024.0</ele>
      </trkpt>
      <trkpt lat="45.26085" lon="6.03302">
        <time>2023-01-28T07:55:08+00:00</time>
        <ele>2020.0</ele>
      </trkpt>
      <trkpt lat="45.26085" lon="6.03302">
        <time>2023-01-28T07:55:09+00:00</time>
        <ele>2020.0</ele>
      </trkpt>
      <trkpt lat="45.26085" lon="6.03302">
        <time>2023-01-28T07:55:10+00:00</time>
        <ele>2020.0</ele>
      </trkpt>
      <trkpt lat="45.26085" lon="6.03303">
        <time>2023-01-28T07:55:12+00:00</time>
        <ele>2021.0</ele>
      </trkpt>
      <trkpt lat="45.26085" lon="6.03303">
        <time>2023-01-28T07:55:14+00:00</time>
        <ele>2021.0</ele>
      </trkpt>
      <trkpt lat="45.26084" lon="6.03303">
        <time>2023-01-28T07:55:16+00:00</time>
        <ele>2021.0</ele>
      </trkpt>
      <trkpt lat="45.26083" lon="6.03299">
        <time>2023-01-28T07:55:18+00:00</time>
        <ele>2018.0</ele>
      </trkpt>
      <trkpt lat="45.26083" lon="6.03293">
        <time>2023-01-28T07:55:20+00:00</time>
        <ele>2014.0</ele>
      </trkpt>
      <trkpt lat="45.26078" lon="6.0329">
        <time>2023-01-28T07:55:22+00:00</time>
        <ele>2012.0</ele>
      </trkpt>
      <trkpt lat="45.26071" lon="6.03285">
        <time>2023-01-28T07:55:25+00:00</time>
        <ele>2009.0</ele>
      </trkpt>
      <trkpt lat="45.26069" lon="6.03284">
        <time>2023-01-28T07:55:26+00:00</time>
        <ele>2009.0</ele>
      </trkpt>
      <trkpt lat="45.26066" lon="6.03282">
        <time>2023-01-28T07:55:28+00:00</time>
        <ele>2007.0</ele>
      </trkpt>
      <trkpt lat="45.26064" lon="6.03278">
        <time>2023-01-28T07:55:30+00:00</time>
        <ele>2005.0</ele>
      </trkpt>
      <trkpt lat="45.2606" lon="6.03274">
        <time>2023-01-28T07:55:32+00:00</time>
        <ele>2002.0</ele>
      </trkpt>
      <trkpt lat="45.26058" lon="6.03273">
        <time>2023-01-28T07:55:33+00:00</time>
        <ele>2001.0</ele>
      </trkpt>
      <trkpt lat="45.26055" lon="6.03273">
        <time>2023-01-28T07:55:34+00:00</time>
        <ele>2001.0</ele>
      </trkpt>
      <trkpt lat="45.26053" lon="6.03273">
        <time>2023-01-28T07:55:37+00:00</time>
        <ele>2001.0</ele>
      </trkpt>
      <trkpt lat="45.26053" lon="6.03273">
        <time>2023-01-28T07:55:38+00:00</time>
        <ele>2001.0</ele>
      </trkpt>
      <trkpt lat="45.26053" lon="6.03273">
        <time>2023-01-28T07:55:40+00:00</time>
        <ele>2001.0</ele>
      </trkpt>
      <trkpt lat="45.26052" lon="6.03272">
        <time>2023-01-28T07:55:44+00:00</time>
        <ele>2000.0</ele>
      </trkpt>
      <trkpt lat="45.2605" lon="6.03271">
        <time>2023-01-28T07:55:45+00:00</time>
        <ele>1999.0</ele>
      </trkpt>
      <trkpt lat="45.26046" lon="6.03269">
        <time>2023-01-28T07:55:47+00:00</time>
        <ele>1998.0</ele>
      </trkpt>
      <trkpt lat="45.26044" lon="6.03269">
        <time>2023-01-28T07:55:48+00:00</time>
        <ele>1998.0</ele>
      </trkpt>
      <trkpt lat="45.26041" lon="6.03269">
        <time>2023-01-28T07:55:51+00:00</time>
        <ele>1997.0</ele>
      </trkpt>
      <trkpt lat="45.2604" lon="6.03267">
        <time>2023-01-28T07:55:52+00:00</time>
        <ele>1996.0</ele>
      </trkpt>
      <trkpt lat="45.26039" lon="6.03261">
        <time>2023-01-28T07:55:54+00:00</time>
        <ele>1992.0</ele>
      </trkpt>
      <trkpt lat="45.26036" lon="6.0326">
        <time>2023-01-28T07:55:55+00:00</time>
        <ele>1992.0</ele>
      </trkpt>
      <trkpt lat="45.26029" lon="6.03258">
        <time>2023-01-28T07:55:58+00:00</time>
        <ele>1990.0</ele>
      </trkpt>
      <trkpt lat="45.26029" lon="6.03258">
        <time>2023-01-28T07:55:59+00:00</time>
        <ele>1990.0</ele>
      </trkpt>
      <trkpt lat="45.26029" lon="6.03256">
        <time>2023-01-28T07:56:04+00:00</time>
        <ele>1989.0</ele>
      </trkpt>
      <trkpt lat="45.2603" lon="6.03253">
        <time>2023-01-28T07:56:05+00:00</time>
        <ele>1987.0</ele>
      </trkpt>
      <trkpt lat="45.26034" lon="6.03249">
        <time>2023-01-28T07:56:07+00:00</time>
        <ele>1986.0</ele>
      </trkpt>
      <trkpt lat="45.26034" lon="6.03246">
        <time>2023-01-28T07:56:08+00:00</time>
        <ele>1984.0</ele>
      </trkpt>
      <trkpt lat="45.26034" lon="6.03244">
        <time>2023-01-28T07:56:09+00:00</time>
        <ele>1983.0</ele>
      </trkpt>
      <trkpt lat="45.26032" lon="6.03242">
        <time>2023-01-28T07:56:10+00:00</time>
        <ele>1982.0</ele>
      </trkpt>
      <trkpt lat="45.26028" lon="6.03239">
        <time>2023-01-28T07:56:12+00:00</time>
        <ele>1980.0</ele>
      </trkpt>
      <trkpt lat="45.26023" lon="6.03236">
        <time>2023-01-28T07:56:15+00:00</time>
        <ele>1980.0</ele>
      </trkpt>
      <trkpt lat="45.26021" lon="6.03233">
        <time>2023-01-28T07:56:17+00:00</time>
        <ele>1979.0</ele>
      </trkpt>
      <trkpt lat="45.26021" lon="6.03232">
        <time>2023-01-28T07:56:18+00:00</time>
        <ele>1978.0</ele>
      </trkpt>
      <trkpt lat="45.2602" lon="6.03231">
        <time>2023-01-28T07:56:21+00:00</time>
        <ele>1978.0</ele>
      </trkpt>
      <trkpt lat="45.2602" lon="6.03231">
        <time>2023-01-28T07:56:24+00:00</time>
        <ele>1978.0</ele>
      </trkpt>
      <trkpt lat="45.26019" lon="6.0323">
        <time>2023-01-28T07:56:26+00:00</time>
        <ele>1978.0</ele>
      </trkpt>
      <trkpt lat="45.26018" lon="6.03229">
        <time>2023-01-28T07:56:27+00:00</time>
        <ele>1977.0</ele>
      </trkpt>
      <trkpt lat="45.26014" lon="6.03225">
        <time>2023-01-28T07:56:30+00:00</time>
        <ele>1976.0</ele>
      </trkpt>
      <trkpt lat="45.2601" lon="6.03221">
        <time>2023-01-28T07:56:33+00:00</time>
        <ele>1975.0</ele>
      </trkpt>
      <trkpt lat="45.26009" lon="6.03221">
        <time>2023-01-28T07:56:35+00:00</time>
        <ele>1975.0</ele>
      </trkpt>
      <trkpt lat="45.26009" lon="6.0322">
        <time>2023-01-28T07:56:36+00:00</time>
        <ele>1975.0</ele>
      </trkpt>
      <trkpt lat="45.26009" lon="6.03218">
        <time>2023-01-28T07:56:37+00:00</time>
        <ele>1974.0</ele>
      </trkpt>
      <trkpt lat="45.26006" lon="6.03215">
        <time>2023-01-28T07:56:39+00:00</time>
        <ele>1973.0</ele>
      </trkpt>
      <trkpt lat="45.26005" lon="6.03214">
        <time>2023-01-28T07:56:40+00:00</time>
        <ele>1973.0</ele>
      </trkpt>
      <trkpt lat="45.26002" lon="6.03213">
        <time>2023-01-28T07:56:42+00:00</time>
        <ele>1973.0</ele>
      </trkpt>
      <trkpt lat="45.25998" lon="6.0321">
        <time>2023-01-28T07:56:45+00:00</time>
        <ele>1972.0</ele>
      </trkpt>
      <trkpt lat="45.25994" lon="6.03203">
        <time>2023-01-28T07:56:48+00:00</time>
        <ele>1971.0</ele>
      </trkpt>
      <trkpt lat="45.25999" lon="6.03191">
        <time>2023-01-28T07:56:51+00:00</time>
        <ele>1966.0</ele>
      </trkpt>
      <trkpt lat="45.26005" lon="6.03184">
        <time>2023-01-28T07:56:53+00:00</time>
        <ele>1963.0</ele>
      </trkpt>
      <trkpt lat="45.26007" lon="6.03183">
        <time>2023-01-28T07:56:54+00:00</time>
        <ele>1962.0</ele>
      </trkpt>
      <trkpt lat="45.26008" lon="6.03183">
        <time>2023-01-28T07:56:55+00:00</time>
        <ele>1962.0</ele>
      </trkpt>
      <trkpt lat="45.26008" lon="6.03183">
        <time>2023-01-28T07:56:57+00:00</time>
        <ele>1962.0</ele>
      </trkpt>
      <trkpt lat="45.26008" lon="6.03185">
        <time>2023-01-28T07:57:00+00:00</time>
        <ele>1963.0</ele>
      </trkpt>
      <trkpt lat="45.26008" lon="6.03185">
        <time>2023-01-28T07:57:01+00:00</time>
        <ele>1963.0</ele>
      </trkpt>
      <trkpt lat="45.26008" lon="6.03184">
        <time>2023-01-28T07:57:03+00:00</time>
        <ele>1962.0</ele>
      </trkpt>
      <trkpt lat="45.26007" lon="6.03181">
        <time>2023-01-28T07:57:06+00:00</time>
        <ele>1962.0</ele>
      </trkpt>
      <trkpt lat="45.26008" lon="6.03178">
        <time>2023-01-28T07:57:08+00:00</time>
        <ele>1961.0</ele>
      </trkpt>
      <trkpt lat="45.2601" lon="6.03175">
        <time>2023-01-28T07:57:09+00:00</time>
        <ele>1960.0</ele>
      </trkpt>
      <trkpt lat="45.2601" lon="6.03172">
        <time>2023-01-28T07:57:12+00:00</time>
        <ele>1959.0</ele>
      </trkpt>
      <trkpt lat="45.26011" lon="6.03173">
        <time>2023-01-28T07:57:14+00:00</time>
        <ele>1960.0</ele>
      </trkpt>
      <trkpt lat="45.26011" lon="6.03173">
        <time>2023-01-28T07:57:15+00:00</time>
        <ele>1960.0</ele>
      </trkpt>
      <trkpt lat="45.26011" lon="6.03173">
        <time>2023-01-28T07:57:18+00:00</time>
        <ele>1960.0</ele>
      </trkpt>
      <trkpt lat="45.26011" lon="6.03173">
        <time>2023-01-28T07:57:20+00:00</time>
        <ele>1960.0</ele>
      </trkpt>
      <trkpt lat="45.26011" lon="6.03173">
        <time>2023-01-28T07:57:21+00:00</time>
        <ele>1960.0</ele>
      </trkpt>
      <trkpt lat="45.26011" lon="6.03174">
        <time>2023-01-28T07:57:24+00:00</time>
        <ele>1960.0</ele>
      </trkpt>
      <trkpt lat="45.26011" lon="6.03174">
        <time>2023-01-28T07:57:27+00:00</time>
        <ele>1960.0</ele>
      </trkpt>
      <trkpt lat="45.26011" lon="6.03174">
        <time>2023-01-28T07:57:31+00:00</time>
        <ele>1960.0</ele>
      </trkpt>
      <trkpt lat="45.26011" lon="6.03173">
        <time>2023-01-28T07:57:34+00:00</time>
        <ele>1960.0</ele>
      </trkpt>
      <trkpt lat="45.26012" lon="6.03168">
        <time>2023-01-28T07:57:35+00:00</time>
        <ele>1959.0</ele>
      </trkpt>
      <trkpt lat="45.26013" lon="6.03163">
        <time>2023-01-28T07:57:36+00:00</time>
        <ele>1957.0</ele>
      </trkpt>
      <trkpt lat="45.26016" lon="6.03157">
        <time>2023-01-28T07:57:37+00:00</time>
        <ele>1956.0</ele>
      </trkpt>
      <trkpt lat="45.26018" lon="6.03152">
        <time>2023-01-28T07:57:38+00:00</time>
        <ele>1955.0</ele>
      </trkpt>
      <trkpt lat="45.2602" lon="6.03148">
        <time>2023-01-28T07:57:39+00:00</time>
        <ele>1954.0</ele>
      </trkpt>
      <trkpt lat="45.26023" lon="6.03141">
        <time>2023-01-28T07:57:40+00:00</time>
        <ele>1951.0</ele>
      </trkpt>
      <trkpt lat="45.26026" lon="6.03135">
        <time>2023-01-28T07:57:41+00:00</time>
        <ele>1949.0</ele>
      </trkpt>
      <trkpt lat="45.26028" lon="6.03128">
        <time>2023-01-28T07:57:42+00:00</time>
        <ele>1947.0</ele>
      </trkpt>
      <trkpt lat="45.2603" lon="6.0312">
        <time>2023-01-28T07:57:43+00:00</time>
        <ele>1944.0</ele>
      </trkpt>
      <trkpt lat="45.26032" lon="6.03114">
        <time>2023-01-28T07:57:44+00:00</time>
        <ele>1942.0</ele>
      </trkpt>
      <trkpt lat="45.26036" lon="6.03095">
        <time>2023-01-28T07:57:46+00:00</time>
        <ele>1936.0</ele>
      </trkpt>
      <trkpt lat="45.26038" lon="6.03087">
        <time>2023-01-28T07:57:47+00:00</time>
        <ele>1934.0</ele>
      </trkpt>
      <trkpt lat="45.26042" lon="6.0307">
        <time>2023-01-28T07:57:49+00:00</time>
        <ele>1928.0</ele>
      </trkpt>
      <trkpt lat="45.26044" lon="6.0306">
        <time>2023-01-28T07:57:50+00:00</time>
        <ele>1925.0</ele>
      </trkpt>
      <trkpt lat="45.26045" lon="6.0305">
        <time>2023-01-28T07:57:51+00:00</time>
        <ele>1922.0</ele>
      </trkpt>
      <trkpt lat="45.26047" lon="6.03043">
        <time>2023-01-28T07:57:52+00:00</time>
        <ele>1921.0</ele>
      </trkpt>
      <trkpt lat="45.26048" lon="6.03033">
        <time>2023-01-28T07:57:53+00:00</time>
        <ele>1920.0</ele>
      </trkpt>
      <trkpt lat="45.26052" lon="6.03015">
        <time>2023-01-28T07:57:55+00:00</time>
        <ele>1917.0</ele>
      </trkpt>
      <trkpt lat="45.26052" lon="6.03007">
        <time>2023-01-28T07:57:56+00:00</time>
        <ele>1916.0</ele>
      </trkpt>
      <trkpt lat="45.26054" lon="6.02999">
        <time>2023-01-28T07:57:57+00:00</time>
        <ele>1915.0</ele>
      </trkpt>
      <trkpt lat="45.26058" lon="6.02984">
        <time>2023-01-28T07:57:59+00:00</time>
        <ele>1913.0</ele>
      </trkpt>
      <trkpt lat="45.26061" lon="6.02977">
        <time>2023-01-28T07:58:00+00:00</time>
        <ele>1913.0</ele>
      </trkpt>
      <trkpt lat="45.26063" lon="6.02969">
        <time>2023-01-28T07:58:01+00:00</time>
        <ele>1912.0</ele>
      </trkpt>
      <trkpt lat="45.26068" lon="6.0295">
        <time>2023-01-28T07:58:03+00:00</time>
        <ele>1910.0</ele>
      </trkpt>
      <trkpt lat="45.26071" lon="6.02928">
        <time>2023-01-28T07:58:04+00:00</time>
        <ele>1908.0</ele>
      </trkpt>
      <trkpt lat="45.26072" lon="6.02924">
        <time>2023-01-28T07:58:05+00:00</time>
        <ele>1907.0</ele>
      </trkpt>
      <trkpt lat="45.26073" lon="6.02919">
        <time>2023-01-28T07:58:06+00:00</time>
        <ele>1906.0</ele>
      </trkpt>
      <trkpt lat="45.26074" lon="6.02909">
        <time>2023-01-28T07:58:07+00:00</time>
        <ele>1905.0</ele>
      </trkpt>
      <trkpt lat="45.26075" lon="6.02896">
        <time>2023-01-28T07:58:08+00:00</time>
        <ele>1904.0</ele>
      </trkpt>
      <trkpt lat="45.26077" lon="6.02886">
        <time>2023-01-28T07:58:09+00:00</time>
        <ele>1902.0</ele>
      </trkpt>
      <trkpt lat="45.2608" lon="6.02866">
        <time>2023-01-28T07:58:11+00:00</time>
        <ele>1898.0</ele>
      </trkpt>
      <trkpt lat="45.26082" lon="6.02856">
        <time>2023-01-28T07:58:12+00:00</time>
        <ele>1894.0</ele>
      </trkpt>
      <trkpt lat="45.26084" lon="6.02847">
        <time>2023-01-28T07:58:13+00:00</time>
        <ele>1891.0</ele>
      </trkpt>
      <trkpt lat="45.26087" lon="6.02837">
        <time>2023-01-28T07:58:14+00:00</time>
        <ele>1888.0</ele>
      </trkpt>
      <trkpt lat="45.2609" lon="6.02826">
        <time>2023-01-28T07:58:15+00:00</time>
        <ele>1884.0</ele>
      </trkpt>
      <trkpt lat="45.26091" lon="6.02815">
        <time>2023-01-28T07:58:16+00:00</time>
        <ele>1881.0</ele>
      </trkpt>
      <trkpt lat="45.26091" lon="6.02802">
        <time>2023-01-28T07:58:17+00:00</time>
        <ele>1878.0</ele>
      </trkpt>
      <trkpt lat="45.2609" lon="6.02791">
        <time>2023-01-28T07:58:18+00:00</time>
        <ele>1875.0</ele>
      </trkpt>
      <trkpt lat="45.2609" lon="6.0278">
        <time>2023-01-28T07:58:19+00:00</time>
        <ele>1872.0</ele>
      </trkpt>
      <trkpt lat="45.26089" lon="6.02769">
        <time>2023-01-28T07:58:20+00:00</time>
        <ele>1870.0</ele>
      </trkpt>
      <trkpt lat="45.26088" lon="6.02758">
        <time>2023-01-28T07:58:21+00:00</time>
        <ele>1867.0</ele>
      </trkpt>
      <trkpt lat="45.26087" lon="6.02746">
        <time>2023-01-28T07:58:22+00:00</time>
        <ele>1865.0</ele>
      </trkpt>
      <trkpt lat="45.26087" lon="6.02735">
        <time>2023-01-28T07:58:23+00:00</time>
        <ele>1863.0</ele>
      </trkpt>
      <trkpt lat="45.26088" lon="6.02727">
        <time>2023-01-28T07:58:24+00:00</time>
        <ele>1860.0</ele>
      </trkpt>
      <trkpt lat="45.26088" lon="6.02716">
        <time>2023-01-28T07:58:25+00:00</time>
        <ele>1858.0</ele>
      </trkpt>
      <trkpt lat="45.2609" lon="6.02703">
        <time>2023-01-28T07:58:26+00:00</time>
        <ele>1855.0</ele>
      </trkpt>
      <trkpt lat="45.26093" lon="6.02693">
        <time>2023-01-28T07:58:27+00:00</time>
        <ele>1853.0</ele>
      </trkpt>
      <trkpt lat="45.26096" lon="6.02686">
        <time>2023-01-28T07:58:28+00:00</time>
        <ele>1852.0</ele>
      </trkpt>
      <trkpt lat="45.26098" lon="6.02684">
        <time>2023-01-28T07:58:29+00:00</time>
        <ele>1851.0</ele>
      </trkpt>
      <trkpt lat="45.261" lon="6.02683">
        <time>2023-01-28T07:58:30+00:00</time>
        <ele>1850.0</ele>
      </trkpt>
      <trkpt lat="45.26101" lon="6.02684">
        <time>2023-01-28T07:58:31+00:00</time>
        <ele>1850.0</ele>
      </trkpt>
      <trkpt lat="45.26101" lon="6.02685">
        <time>2023-01-28T07:58:32+00:00</time>
        <ele>1850.0</ele>
      </trkpt>
      <trkpt lat="45.26102" lon="6.02685">
        <time>2023-01-28T07:58:33+00:00</time>
        <ele>1849.0</ele>
      </trkpt>
      <trkpt lat="45.26102" lon="6.02685">
        <time>2023-01-28T07:58:34+00:00</time>
        <ele>1849.0</ele>
      </trkpt>
      <trkpt lat="45.26102" lon="6.02685">
        <time>2023-01-28T07:58:35+00:00</time>
        <ele>1849.0</ele>
      </trkpt>
      <trkpt lat="45.26103" lon="6.02686">
        <time>2023-01-28T07:58:36+00:00</time>
        <ele>1849.0</ele>
      </trkpt>
      <trkpt lat="45.26103" lon="6.02686">
        <time>2023-01-28T07:58:37+00:00</time>
        <ele>1849.0</ele>
      </trkpt>
      <trkpt lat="45.26103" lon="6.02686">
        <time>2023-01-28T07:58:38+00:00</time>
        <ele>1849.0</ele>
      </trkpt>
      <trkpt lat="45.26104" lon="6.02687">
        <time>2023-01-28T07:58:39+00:00</time>
        <ele>1848.0</ele>
      </trkpt>
      <trkpt lat="45.26104" lon="6.02687">
        <time>2023-01-28T07:58:41+00:00</time>
        <ele>1848.0</ele>
      </trkpt>
      <trkpt lat="45.26104" lon="6.02687">
        <time>2023-01-28T07:58:43+00:00</time>
        <ele>1848.0</ele>
      </trkpt>
      <trkpt lat="45.26105" lon="6.02688">
        <time>2023-01-28T07:58:45+00:00</time>
        <ele>1848.0</ele>
      </trkpt>
      <trkpt lat="45.26105" lon="6.02688">
        <time>2023-01-28T07:58:47+00:00</time>
        <ele>1848.0</ele>
      </trkpt>
      <trkpt lat="45.26105" lon="6.02688">
        <time>2023-01-28T07:58:49+00:00</time>
        <ele>1848.0</ele>
      </trkpt>
      <trkpt lat="45.26105" lon="6.02689">
        <time>2023-01-28T07:58:51+00:00</time>
        <ele>1848.0</ele>
      </trkpt>
      <trkpt lat="45.26106" lon="6.02689">
        <time>2023-01-28T07:58:53+00:00</time>
        <ele>1848.0</ele>
      </trkpt>
      <trkpt lat="45.26106" lon="6.02689">
        <time>2023-01-28T07:58:55+00:00</time>
        <ele>1848.0</ele>
      </trkpt>
      <trkpt lat="45.26106" lon="6.0269">
        <time>2023-01-28T07:58:57+00:00</time>
        <ele>1848.0</ele>
      </trkpt>
      <trkpt lat="45.26107" lon="6.0269">
        <time>2023-01-28T07:58:59+00:00</time>
        <ele>1847.0</ele>
      </trkpt>
      <trkpt lat="45.26107" lon="6.0269">
        <time>2023-01-28T07:59:01+00:00</time>
        <ele>1847.0</ele>
      </trkpt>
      <trkpt lat="45.26107" lon="6.02691">
        <time>2023-01-28T07:59:03+00:00</time>
        <ele>1847.0</ele>
      </trkpt>
      <trkpt lat="45.26108" lon="6.02691">
        <time>2023-01-28T07:59:05+00:00</time>
        <ele>1847.0</ele>
      </trkpt>
      <trkpt lat="45.26108" lon="6.02691">
        <time>2023-01-28T07:59:06+00:00</time>
        <ele>1847.0</ele>
      </trkpt>
      <trkpt lat="45.26108" lon="6.02692">
        <time>2023-01-28T07:59:07+00:00</time>
        <ele>1847.0</ele>
      </trkpt>
      <trkpt lat="45.26113" lon="6.02696">
        <time>2023-01-28T07:59:08+00:00</time>
        <ele>1845.0</ele>
      </trkpt>
      <trkpt lat="45.26118" lon="6.02701">
        <time>2023-01-28T07:59:09+00:00</time>
        <ele>1844.0</ele>
      </trkpt>
      <trkpt lat="45.2613" lon="6.02714">
        <time>2023-01-28T07:59:11+00:00</time>
        <ele>1840.0</ele>
      </trkpt>
      <trkpt lat="45.26145" lon="6.0273">
        <time>2023-01-28T07:59:13+00:00</time>
        <ele>1835.0</ele>
      </trkpt>
      <trkpt lat="45.26161" lon="6.02744">
        <time>2023-01-28T07:59:15+00:00</time>
        <ele>1829.0</ele>
      </trkpt>
      <trkpt lat="45.2618" lon="6.02756">
        <time>2023-01-28T07:59:17+00:00</time>
        <ele>1821.0</ele>
      </trkpt>
      <trkpt lat="45.26197" lon="6.02768">
        <time>2023-01-28T07:59:19+00:00</time>
        <ele>1817.0</ele>
      </trkpt>
      <trkpt lat="45.26204" lon="6.02773">
        <time>2023-01-28T07:59:20+00:00</time>
        <ele>1814.0</ele>
      </trkpt>
      <trkpt lat="45.26213" lon="6.02779">
        <time>2023-01-28T07:59:21+00:00</time>
        <ele>1811.0</ele>
      </trkpt>
      <trkpt lat="45.26221" lon="6.02785">
        <time>2023-01-28T07:59:22+00:00</time>
        <ele>1808.0</ele>
      </trkpt>
      <trkpt lat="45.2623" lon="6.02791">
        <time>2023-01-28T07:59:23+00:00</time>
        <ele>1805.0</ele>
      </trkpt>
      <trkpt lat="45.26238" lon="6.02797">
        <time>2023-01-28T07:59:24+00:00</time>
        <ele>1802.0</ele>
      </trkpt>
      <trkpt lat="45.26247" lon="6.02802">
        <time>2023-01-28T07:59:25+00:00</time>
        <ele>1798.0</ele>
      </trkpt>
      <trkpt lat="45.26255" lon="6.02808">
        <time>2023-01-28T07:59:26+00:00</time>
        <ele>1794.0</ele>
      </trkpt>
      <trkpt lat="45.26264" lon="6.02812">
        <time>2023-01-28T07:59:27+00:00</time>
        <ele>1790.0</ele>
      </trkpt>
      <trkpt lat="45.26271" lon="6.02818">
        <time>2023-01-28T07:59:28+00:00</time>
        <ele>1786.0</ele>
      </trkpt>
      <trkpt lat="45.26279" lon="6.02823">
        <time>2023-01-28T07:59:29+00:00</time>
        <ele>1783.0</ele>
      </trkpt>
      <trkpt lat="45.26286" lon="6.02827">
        <time>2023-01-28T07:59:30+00:00</time>
        <ele>1780.0</ele>
      </trkpt>
      <trkpt lat="45.26295" lon="6.0283">
        <time>2023-01-28T07:59:31+00:00</time>
        <ele>1775.0</ele>
      </trkpt>
      <trkpt lat="45.26302" lon="6.02832">
        <time>2023-01-28T07:59:32+00:00</time>
        <ele>1772.0</ele>
      </trkpt>
      <trkpt lat="45.26307" lon="6.02833">
        <time>2023-01-28T07:59:33+00:00</time>
        <ele>1770.0</ele>
      </trkpt>
      <trkpt lat="45.26316" lon="6.02833">
        <time>2023-01-28T07:59:34+00:00</time>
        <ele>1767.0</ele>
      </trkpt>
      <trkpt lat="45.26325" lon="6.02832">
        <time>2023-01-28T07:59:35+00:00</time>
        <ele>1765.0</ele>
      </trkpt>
      <trkpt lat="45.26331" lon="6.02829">
        <time>2023-01-28T07:59:36+00:00</time>
        <ele>1764.0</ele>
      </trkpt>
      <trkpt lat="45.26338" lon="6.02824">
        <time>2023-01-28T07:59:37+00:00</time>
        <ele>1762.0</ele>
      </trkpt>
      <trkpt lat="45.26344" lon="6.0282">
        <time>2023-01-28T07:59:38+00:00</time>
        <ele>1761.0</ele>
      </trkpt>
      <trkpt lat="45.26349" lon="6.02814">
        <time>2023-01-28T07:59:39+00:00</time>
        <ele>1759.0</ele>
      </trkpt>
      <trkpt lat="45.26354" lon="6.02806">
        <time>2023-01-28T07:59:40+00:00</time>
        <ele>1757.0</ele>
      </trkpt>
      <trkpt lat="45.26358" lon="6.02799">
        <time>2023-01-28T07:59:41+00:00</time>
        <ele>1757.0</ele>
      </trkpt>
      <trkpt lat="45.26364" lon="6.0279">
        <time>2023-01-28T07:59:42+00:00</time>
        <ele>1755.0</ele>
      </trkpt>
      <trkpt lat="45.2637" lon="6.02781">
        <time>2023-01-28T07:59:43+00:00</time>
        <ele>1752.0</ele>
      </trkpt>
      <trkpt lat="45.26374" lon="6.02772">
        <time>2023-01-28T07:59:44+00:00</time>
        <ele>1752.0</ele>
      </trkpt>
      <trkpt lat="45.26378" lon="6.02763">
        <time>2023-01-28T07:59:45+00:00</time>
        <ele>1751.0</ele>
      </trkpt>
      <trkpt lat="45.2638" lon="6.02756">
        <time>2023-01-28T07:59:46+00:00</time>
        <ele>1750.0</ele>
      </trkpt>
      <trkpt lat="45.26383" lon="6.02748">
        <time>2023-01-28T07:59:47+00:00</time>
        <ele>1750.0</ele>
      </trkpt>
      <trkpt lat="45.26384" lon="6.02742">
        <time>2023-01-28T07:59:48+00:00</time>
        <ele>1750.0</ele>
      </trkpt>
      <trkpt lat="45.26385" lon="6.02738">
        <time>2023-01-28T07:59:49+00:00</time>
        <ele>1749.0</ele>
      </trkpt>
      <trkpt lat="45.26386" lon="6.02735">
        <time>2023-01-28T07:59:50+00:00</time>
        <ele>1749.0</ele>
      </trkpt>
      <trkpt lat="45.26387" lon="6.02732">
        <time>2023-01-28T07:59:51+00:00</time>
        <ele>1749.0</ele>
      </trkpt>
      <trkpt lat="45.26388" lon="6.02729">
        <time>2023-01-28T07:59:52+00:00</time>
        <ele>1749.0</ele>
      </trkpt>
      <trkpt lat="45.26389" lon="6.02724">
        <time>2023-01-28T07:59:53+00:00</time>
        <ele>1748.0</ele>
      </trkpt>
      <trkpt lat="45.26391" lon="6.02719">
        <time>2023-01-28T07:59:54+00:00</time>
        <ele>1748.0</ele>
      </trkpt>
      <trkpt lat="45.26392" lon="6.02714">
        <time>2023-01-28T07:59:55+00:00</time>
        <ele>1747.0</ele>
      </trkpt>
      <trkpt lat="45.26392" lon="6.02706">
        <time>2023-01-28T07:59:56+00:00</time>
        <ele>1746.0</ele>
      </trkpt>
      <trkpt lat="45.26392" lon="6.02704">
        <time>2023-01-28T07:59:58+00:00</time>
        <ele>1746.0</ele>
      </trkpt>
      <trkpt lat="45.26392" lon="6.02703">
        <time>2023-01-28T07:59:59+00:00</time>
        <ele>1746.0</ele>
      </trkpt>
      <trkpt lat="45.26392" lon="6.02701">
        <time>2023-01-28T08:00:00+00:00</time>
        <ele>1746.0</ele>
      </trkpt>
      <trkpt lat="45.26392" lon="6.027">
        <time>2023-01-28T08:00:01+00:00</time>
        <ele>1745.0</ele>
      </trkpt>
      <trkpt lat="45.26392" lon="6.027">
        <time>2023-01-28T08:00:02+00:00</time>
        <ele>1745.0</ele>
      </trkpt>
      <trkpt lat="45.26392" lon="6.027">
        <time>2023-01-28T08:00:03+00:00</time>
        <ele>1745.0</ele>
      </trkpt>
      <trkpt lat="45.26392" lon="6.027">
        <time>2023-01-28T08:00:04+00:00</time>
        <ele>1745.0</ele>
      </trkpt>
      <trkpt lat="45.26392" lon="6.027">
        <time>2023-01-28T08:00:05+00:00</time>
        <ele>1745.0</ele>
      </trkpt>
      <trkpt lat="45.26391" lon="6.027">
        <time>2023-01-28T08:00:06+00:00</time>
        <ele>1745.0</ele>
      </trkpt>
      <trkpt lat="45.26391" lon="6.027">
        <time>2023-01-28T08:00:07+00:00</time>
        <ele>1745.0</ele>
      </trkpt>
      <trkpt lat="45.26391" lon="6.027">
        <time>2023-01-28T08:00:08+00:00</time>
        <ele>1745.0</ele>
      </trkpt>
      <trkpt lat="45.26391" lon="6.027">
        <time>2023-01-28T08:00:09+00:00</time>
        <ele>1745.0</ele>
      </trkpt>
      <trkpt lat="45.26391" lon="6.02701">
        <time>2023-01-28T08:00:10+00:00</time>
        <ele>1746.0</ele>
      </trkpt>
      <trkpt lat="45.26391" lon="6.02701">
        <time>2023-01-28T08:00:11+00:00</time>
        <ele>1746.0</ele>
      </trkpt>
      <trkpt lat="45.26391" lon="6.027">
        <time>2023-01-28T08:00:12+00:00</time>
        <ele>1745.0</ele>
      </trkpt>
      <trkpt lat="45.26391" lon="6.027">
        <time>2023-01-28T08:00:13+00:00</time>
        <ele>1745.0</ele>
      </trkpt>
      <trkpt lat="45.2639" lon="6.027">
        <time>2023-01-28T08:00:14+00:00</time>
        <ele>1745.0</ele>
      </trkpt>
      <trkpt lat="45.26389" lon="6.02699">
        <time>2023-01-28T08:00:15+00:00</time>
        <ele>1745.0</ele>
      </trkpt>
      <trkpt lat="45.26389" lon="6.02698">
        <time>2023-01-28T08:00:16+00:00</time>
        <ele>1745.0</ele>
      </trkpt>
      <trkpt lat="45.26388" lon="6.02696">
        <time>2023-01-28T08:00:17+00:00</time>
        <ele>1745.0</ele>
      </trkpt>
      <trkpt lat="45.26387" lon="6.02693">
        <time>2023-01-28T08:00:18+00:00</time>
        <ele>1745.0</ele>
      </trkpt>
      <trkpt lat="45.26385" lon="6.02689">
        <time>2023-01-28T08:00:19+00:00</time>
        <ele>1746.0</ele>
      </trkpt>
      <trkpt lat="45.26384" lon="6.02684">
        <time>2023-01-28T08:00:20+00:00</time>
        <ele>1745.0</ele>
      </trkpt>
      <trkpt lat="45.26383" lon="6.02679">
        <time>2023-01-28T08:00:21+00:00</time>
        <ele>1745.0</ele>
      </trkpt>
      <trkpt lat="45.26381" lon="6.02673">
        <time>2023-01-28T08:00:22+00:00</time>
        <ele>1745.0</ele>
      </trkpt>
      <trkpt lat="45.26377" lon="6.02662">
        <time>2023-01-28T08:00:24+00:00</time>
        <ele>1745.0</ele>
      </trkpt>
      <trkpt lat="45.26373" lon="6.02652">
        <time>2023-01-28T08:00:26+00:00</time>
        <ele>1744.0</ele>
      </trkpt>
      <trkpt lat="45.26373" lon="6.02649">
        <time>2023-01-28T08:00:27+00:00</time>
        <ele>1744.0</ele>
      </trkpt>
      <trkpt lat="45.26373" lon="6.02646">
        <time>2023-01-28T08:00:28+00:00</time>
        <ele>1744.0</ele>
      </trkpt>
      <trkpt lat="45.26375" lon="6.02642">
        <time>2023-01-28T08:00:30+00:00</time>
        <ele>1743.0</ele>
      </trkpt>
      <trkpt lat="45.26375" lon="6.02639">
        <time>2023-01-28T08:00:31+00:00</time>
        <ele>1742.0</ele>
      </trkpt>
      <trkpt lat="45.26376" lon="6.02633">
        <time>2023-01-28T08:00:32+00:00</time>
        <ele>1741.0</ele>
      </trkpt>
      <trkpt lat="45.26376" lon="6.02627">
        <time>2023-01-28T08:00:33+00:00</time>
        <ele>1741.0</ele>
      </trkpt>
      <trkpt lat="45.26376" lon="6.02619">
        <time>2023-01-28T08:00:34+00:00</time>
        <ele>1739.0</ele>
      </trkpt>
      <trkpt lat="45.26377" lon="6.02612">
        <time>2023-01-28T08:00:35+00:00</time>
        <ele>1738.0</ele>
      </trkpt>
      <trkpt lat="45.26379" lon="6.02604">
        <time>2023-01-28T08:00:36+00:00</time>
        <ele>1737.0</ele>
      </trkpt>
      <trkpt lat="45.26381" lon="6.02592">
        <time>2023-01-28T08:00:38+00:00</time>
        <ele>1735.0</ele>
      </trkpt>
      <trkpt lat="45.26383" lon="6.02586">
        <time>2023-01-28T08:00:39+00:00</time>
        <ele>1733.0</ele>
      </trkpt>
      <trkpt lat="45.26387" lon="6.02579">
        <time>2023-01-28T08:00:40+00:00</time>
        <ele>1732.0</ele>
      </trkpt>
      <trkpt lat="45.2639" lon="6.02572">
        <time>2023-01-28T08:00:41+00:00</time>
        <ele>1730.0</ele>
      </trkpt>
      <trkpt lat="45.2639" lon="6.02564">
        <time>2023-01-28T08:00:42+00:00</time>
        <ele>1729.0</ele>
      </trkpt>
      <trkpt lat="45.26391" lon="6.02555">
        <time>2023-01-28T08:00:43+00:00</time>
        <ele>1728.0</ele>
      </trkpt>
      <trkpt lat="45.26393" lon="6.02546">
        <time>2023-01-28T08:00:44+00:00</time>
        <ele>1726.0</ele>
      </trkpt>
      <trkpt lat="45.26394" lon="6.02537">
        <time>2023-01-28T08:00:45+00:00</time>
        <ele>1725.0</ele>
      </trkpt>
      <trkpt lat="45.26396" lon="6.02528">
        <time>2023-01-28T08:00:46+00:00</time>
        <ele>1724.0</ele>
      </trkpt>
      <trkpt lat="45.26398" lon="6.02519">
        <time>2023-01-28T08:00:47+00:00</time>
        <ele>1723.0</ele>
      </trkpt>
      <trkpt lat="45.26401" lon="6.02512">
        <time>2023-01-28T08:00:48+00:00</time>
        <ele>1722.0</ele>
      </trkpt>
      <trkpt lat="45.26404" lon="6.02504">
        <time>2023-01-28T08:00:49+00:00</time>
        <ele>1721.0</ele>
      </trkpt>
      <trkpt lat="45.26406" lon="6.02496">
        <time>2023-01-28T08:00:50+00:00</time>
        <ele>1720.0</ele>
      </trkpt>
      <trkpt lat="45.26409" lon="6.02483">
        <time>2023-01-28T08:00:52+00:00</time>
        <ele>1718.0</ele>
      </trkpt>
      <trkpt lat="45.26412" lon="6.02476">
        <time>2023-01-28T08:00:53+00:00</time>
        <ele>1717.0</ele>
      </trkpt>
      <trkpt lat="45.26416" lon="6.0247">
        <time>2023-01-28T08:00:54+00:00</time>
        <ele>1716.0</ele>
      </trkpt>
      <trkpt lat="45.26419" lon="6.02464">
        <time>2023-01-28T08:00:55+00:00</time>
        <ele>1715.0</ele>
      </trkpt>
      <trkpt lat="45.26422" lon="6.02458">
        <time>2023-01-28T08:00:56+00:00</time>
        <ele>1714.0</ele>
      </trkpt>
      <trkpt lat="45.26424" lon="6.02453">
        <time>2023-01-28T08:00:57+00:00</time>
        <ele>1714.0</ele>
      </trkpt>
      <trkpt lat="45.26428" lon="6.02447">
        <time>2023-01-28T08:00:58+00:00</time>
        <ele>1713.0</ele>
      </trkpt>
      <trkpt lat="45.26432" lon="6.02439">
        <time>2023-01-28T08:01:00+00:00</time>
        <ele>1712.0</ele>
      </trkpt>
      <trkpt lat="45.26435" lon="6.02431">
        <time>2023-01-28T08:01:02+00:00</time>
        <ele>1711.0</ele>
      </trkpt>
      <trkpt lat="45.26436" lon="6.02424">
        <time>2023-01-28T08:01:04+00:00</time>
        <ele>1711.0</ele>
      </trkpt>
      <trkpt lat="45.26436" lon="6.0242">
        <time>2023-01-28T08:01:06+00:00</time>
        <ele>1711.0</ele>
      </trkpt>
      <trkpt lat="45.26435" lon="6.02418">
        <time>2023-01-28T08:01:08+00:00</time>
        <ele>1711.0</ele>
      </trkpt>
      <trkpt lat="45.26435" lon="6.02417">
        <time>2023-01-28T08:01:10+00:00</time>
        <ele>1711.0</ele>
      </trkpt>
      <trkpt lat="45.26434" lon="6.02415">
        <time>2023-01-28T08:01:12+00:00</time>
        <ele>1711.0</ele>
      </trkpt>
      <trkpt lat="45.26434" lon="6.02414">
        <time>2023-01-28T08:01:13+00:00</time>
        <ele>1711.0</ele>
      </trkpt>
      <trkpt lat="45.26434" lon="6.02413">
        <time>2023-01-28T08:01:14+00:00</time>
        <ele>1711.0</ele>
      </trkpt>
      <trkpt lat="45.26433" lon="6.02412">
        <time>2023-01-28T08:01:16+00:00</time>
        <ele>1711.0</ele>
      </trkpt>
      <trkpt lat="45.26432" lon="6.02411">
        <time>2023-01-28T08:01:18+00:00</time>
        <ele>1711.0</ele>
      </trkpt>
      <trkpt lat="45.26432" lon="6.0241">
        <time>2023-01-28T08:01:19+00:00</time>
        <ele>1711.0</ele>
      </trkpt>
      <trkpt lat="45.26432" lon="6.02409">
        <time>2023-01-28T08:01:20+00:00</time>
        <ele>1711.0</ele>
      </trkpt>
      <trkpt lat="45.26431" lon="6.02407">
        <time>2023-01-28T08:01:22+00:00</time>
        <ele>1711.0</ele>
      </trkpt>
      <trkpt lat="45.26431" lon="6.02407">
        <time>2023-01-28T08:01:23+00:00</time>
        <ele>1711.0</ele>
      </trkpt>
      <trkpt lat="45.26431" lon="6.02406">
        <time>2023-01-28T08:01:24+00:00</time>
        <ele>1711.0</ele>
      </trkpt>
      <trkpt lat="45.26431" lon="6.02406">
        <time>2023-01-28T08:01:25+00:00</time>
        <ele>1711.0</ele>
      </trkpt>
      <trkpt lat="45.26431" lon="6.02405">
        <time>2023-01-28T08:01:26+00:00</time>
        <ele>1711.0</ele>
      </trkpt>
      <trkpt lat="45.26431" lon="6.02405">
        <time>2023-01-28T08:01:27+00:00</time>
        <ele>1711.0</ele>
      </trkpt>
      <trkpt lat="45.26431" lon="6.02404">
        <time>2023-01-28T08:01:28+00:00</time>
        <ele>1711.0</ele>
      </trkpt>
      <trkpt lat="45.26432" lon="6.02401">
        <time>2023-01-28T08:01:33+00:00</time>
        <ele>1711.0</ele>
      </trkpt>
      <trkpt lat="45.26433" lon="6.02399">
        <time>2023-01-28T08:01:39+00:00</time>
        <ele>1711.0</ele>
      </trkpt>
      <trkpt lat="45.26432" lon="6.024">
        <time>2023-01-28T08:01:42+00:00</time>
        <ele>1711.0</ele>
      </trkpt>
      <trkpt lat="45.26434" lon="6.02396">
        <time>2023-01-28T08:01:48+00:00</time>
        <ele>1711.0</ele>
      </trkpt>
      <trkpt lat="45.26435" lon="6.02391">
        <time>2023-01-28T08:01:54+00:00</time>
        <ele>1711.0</ele>
      </trkpt>
      <trkpt lat="45.26436" lon="6.02386">
        <time>2023-01-28T08:01:58+00:00</time>
        <ele>1711.0</ele>
      </trkpt>
      <trkpt lat="45.26446" lon="6.02368">
        <time>2023-01-28T08:02:03+00:00</time>
        <ele>1710.0</ele>
      </trkpt>
      <trkpt lat="45.2645" lon="6.02363">
        <time>2023-01-28T08:02:04+00:00</time>
        <ele>1709.0</ele>
      </trkpt>
      <trkpt lat="45.26454" lon="6.02353">
        <time>2023-01-28T08:02:06+00:00</time>
        <ele>1708.0</ele>
      </trkpt>
      <trkpt lat="45.26455" lon="6.02345">
        <time>2023-01-28T08:02:08+00:00</time>
        <ele>1707.0</ele>
      </trkpt>
      <trkpt lat="45.26456" lon="6.02333">
        <time>2023-01-28T08:02:09+00:00</time>
        <ele>1706.0</ele>
      </trkpt>
      <trkpt lat="45.26458" lon="6.02319">
        <time>2023-01-28T08:02:12+00:00</time>
        <ele>1705.0</ele>
      </trkpt>
      <trkpt lat="45.26465" lon="6.02306">
        <time>2023-01-28T08:02:14+00:00</time>
        <ele>1703.0</ele>
      </trkpt>
      <trkpt lat="45.26469" lon="6.02301">
        <time>2023-01-28T08:02:15+00:00</time>
        <ele>1702.0</ele>
      </trkpt>
      <trkpt lat="45.26475" lon="6.02296">
        <time>2023-01-28T08:02:16+00:00</time>
        <ele>1700.0</ele>
      </trkpt>
      <trkpt lat="45.26483" lon="6.02291">
        <time>2023-01-28T08:02:17+00:00</time>
        <ele>1699.0</ele>
      </trkpt>
      <trkpt lat="45.26489" lon="6.02287">
        <time>2023-01-28T08:02:18+00:00</time>
        <ele>1698.0</ele>
      </trkpt>
      <trkpt lat="45.26495" lon="6.02285">
        <time>2023-01-28T08:02:19+00:00</time>
        <ele>1698.0</ele>
      </trkpt>
      <trkpt lat="45.26504" lon="6.0228">
        <time>2023-01-28T08:02:22+00:00</time>
        <ele>1698.0</ele>
      </trkpt>
      <trkpt lat="45.26506" lon="6.02279">
        <time>2023-01-28T08:02:25+00:00</time>
        <ele>1698.0</ele>
      </trkpt>
      <trkpt lat="45.26506" lon="6.02281">
        <time>2023-01-28T08:02:35+00:00</time>
        <ele>1698.0</ele>
      </trkpt>
      <trkpt lat="45.26507" lon="6.02279">
        <time>2023-01-28T08:02:37+00:00</time>
        <ele>1698.0</ele>
      </trkpt>
      <trkpt lat="45.26511" lon="6.02266">
        <time>2023-01-28T08:02:40+00:00</time>
        <ele>1696.0</ele>
      </trkpt>
      <trkpt lat="45.26511" lon="6.0226">
        <time>2023-01-28T08:02:41+00:00</time>
        <ele>1695.0</ele>
      </trkpt>
      <trkpt lat="45.26513" lon="6.02245">
        <time>2023-01-28T08:02:43+00:00</time>
        <ele>1692.0</ele>
      </trkpt>
      <trkpt lat="45.26515" lon="6.02238">
        <time>2023-01-28T08:02:44+00:00</time>
        <ele>1691.0</ele>
      </trkpt>
      <trkpt lat="45.26518" lon="6.02233">
        <time>2023-01-28T08:02:45+00:00</time>
        <ele>1690.0</ele>
      </trkpt>
      <trkpt lat="45.26523" lon="6.02229">
        <time>2023-01-28T08:02:46+00:00</time>
        <ele>1689.0</ele>
      </trkpt>
      <trkpt lat="45.26526" lon="6.02224">
        <time>2023-01-28T08:02:47+00:00</time>
        <ele>1688.0</ele>
      </trkpt>
      <trkpt lat="45.26529" lon="6.02218">
        <time>2023-01-28T08:02:48+00:00</time>
        <ele>1687.0</ele>
      </trkpt>
      <trkpt lat="45.2653" lon="6.02213">
        <time>2023-01-28T08:02:49+00:00</time>
        <ele>1685.0</ele>
      </trkpt>
      <trkpt lat="45.2653" lon="6.02209">
        <time>2023-01-28T08:02:50+00:00</time>
        <ele>1685.0</ele>
      </trkpt>
      <trkpt lat="45.2653" lon="6.022">
        <time>2023-01-28T08:02:52+00:00</time>
        <ele>1682.0</ele>
      </trkpt>
      <trkpt lat="45.26528" lon="6.0219">
        <time>2023-01-28T08:02:54+00:00</time>
        <ele>1680.0</ele>
      </trkpt>
      <trkpt lat="45.26527" lon="6.02185">
        <time>2023-01-28T08:02:55+00:00</time>
        <ele>1679.0</ele>
      </trkpt>
      <trkpt lat="45.26524" lon="6.02181">
        <time>2023-01-28T08:02:56+00:00</time>
        <ele>1677.0</ele>
      </trkpt>
      <trkpt lat="45.26523" lon="6.02178">
        <time>2023-01-28T08:02:57+00:00</time>
        <ele>1676.0</ele>
      </trkpt>
      <trkpt lat="45.26522" lon="6.02177">
        <time>2023-01-28T08:02:58+00:00</time>
        <ele>1676.0</ele>
      </trkpt>
      <trkpt lat="45.26521" lon="6.02176">
        <time>2023-01-28T08:02:59+00:00</time>
        <ele>1676.0</ele>
      </trkpt>
      <trkpt lat="45.2652" lon="6.02175">
        <time>2023-01-28T08:03:00+00:00</time>
        <ele>1675.0</ele>
      </trkpt>
      <trkpt lat="45.26517" lon="6.02174">
        <time>2023-01-28T08:03:05+00:00</time>
        <ele>1675.0</ele>
      </trkpt>
      <trkpt lat="45.26516" lon="6.02174">
        <time>2023-01-28T08:03:06+00:00</time>
        <ele>1675.0</ele>
      </trkpt>
      <trkpt lat="45.26517" lon="6.02174">
        <time>2023-01-28T08:03:10+00:00</time>
        <ele>1675.0</ele>
      </trkpt>
      <trkpt lat="45.26514" lon="6.02168">
        <time>2023-01-28T08:03:13+00:00</time>
        <ele>1673.0</ele>
      </trkpt>
      <trkpt lat="45.26511" lon="6.0216">
        <time>2023-01-28T08:03:15+00:00</time>
        <ele>1671.0</ele>
      </trkpt>
      <trkpt lat="45.26511" lon="6.02158">
        <time>2023-01-28T08:03:16+00:00</time>
        <ele>1670.0</ele>
      </trkpt>
      <trkpt lat="45.26513" lon="6.02155">
        <time>2023-01-28T08:03:17+00:00</time>
        <ele>1669.0</ele>
      </trkpt>
      <trkpt lat="45.26514" lon="6.02153">
        <time>2023-01-28T08:03:18+00:00</time>
        <ele>1668.0</ele>
      </trkpt>
      <trkpt lat="45.26513" lon="6.02151">
        <time>2023-01-28T08:03:19+00:00</time>
        <ele>1668.0</ele>
      </trkpt>
      <trkpt lat="45.26513" lon="6.02148">
        <time>2023-01-28T08:03:20+00:00</time>
        <ele>1667.0</ele>
      </trkpt>
      <trkpt lat="45.26515" lon="6.02144">
        <time>2023-01-28T08:03:21+00:00</time>
        <ele>1665.0</ele>
      </trkpt>
      <trkpt lat="45.26518" lon="6.02143">
        <time>2023-01-28T08:03:22+00:00</time>
        <ele>1665.0</ele>
      </trkpt>
      <trkpt lat="45.26519" lon="6.02142">
        <time>2023-01-28T08:03:23+00:00</time>
        <ele>1665.0</ele>
      </trkpt>
      <trkpt lat="45.26519" lon="6.02142">
        <time>2023-01-28T08:03:24+00:00</time>
        <ele>1665.0</ele>
      </trkpt>
      <trkpt lat="45.2652" lon="6.02142">
        <time>2023-01-28T08:03:25+00:00</time>
        <ele>1665.0</ele>
      </trkpt>
      <trkpt lat="45.2652" lon="6.02142">
        <time>2023-01-28T08:03:26+00:00</time>
        <ele>1665.0</ele>
      </trkpt>
      <trkpt lat="45.26521" lon="6.02139">
        <time>2023-01-28T08:03:28+00:00</time>
        <ele>1664.0</ele>
      </trkpt>
      <trkpt lat="45.26521" lon="6.02137">
        <time>2023-01-28T08:03:29+00:00</time>
        <ele>1663.0</ele>
      </trkpt>
      <trkpt lat="45.2652" lon="6.02135">
        <time>2023-01-28T08:03:31+00:00</time>
        <ele>1662.0</ele>
      </trkpt>
      <trkpt lat="45.26519" lon="6.02133">
        <time>2023-01-28T08:03:33+00:00</time>
        <ele>1662.0</ele>
      </trkpt>
      <trkpt lat="45.26518" lon="6.0213">
        <time>2023-01-28T08:03:34+00:00</time>
        <ele>1661.0</ele>
      </trkpt>
      <trkpt lat="45.26516" lon="6.02127">
        <time>2023-01-28T08:03:35+00:00</time>
        <ele>1660.0</ele>
      </trkpt>
      <trkpt lat="45.26515" lon="6.02125">
        <time>2023-01-28T08:03:36+00:00</time>
        <ele>1660.0</ele>
      </trkpt>
      <trkpt lat="45.26513" lon="6.02124">
        <time>2023-01-28T08:03:37+00:00</time>
        <ele>1659.0</ele>
      </trkpt>
      <trkpt lat="45.26509" lon="6.02122">
        <time>2023-01-28T08:03:39+00:00</time>
        <ele>1658.0</ele>
      </trkpt>
      <trkpt lat="45.26507" lon="6.02121">
        <time>2023-01-28T08:03:41+00:00</time>
        <ele>1658.0</ele>
      </trkpt>
      <trkpt lat="45.26507" lon="6.0212">
        <time>2023-01-28T08:03:42+00:00</time>
        <ele>1658.0</ele>
      </trkpt>
      <trkpt lat="45.26505" lon="6.02114">
        <time>2023-01-28T08:03:44+00:00</time>
        <ele>1656.0</ele>
      </trkpt>
      <trkpt lat="45.26507" lon="6.02108">
        <time>2023-01-28T08:03:45+00:00</time>
        <ele>1655.0</ele>
      </trkpt>
      <trkpt lat="45.26509" lon="6.02103">
        <time>2023-01-28T08:03:46+00:00</time>
        <ele>1653.0</ele>
      </trkpt>
      <trkpt lat="45.26514" lon="6.02095">
        <time>2023-01-28T08:03:48+00:00</time>
        <ele>1652.0</ele>
      </trkpt>
      <trkpt lat="45.26516" lon="6.02091">
        <time>2023-01-28T08:03:49+00:00</time>
        <ele>1651.0</ele>
      </trkpt>
      <trkpt lat="45.26518" lon="6.02084">
        <time>2023-01-28T08:03:51+00:00</time>
        <ele>1649.0</ele>
      </trkpt>
      <trkpt lat="45.26517" lon="6.02075">
        <time>2023-01-28T08:03:53+00:00</time>
        <ele>1647.0</ele>
      </trkpt>
      <trkpt lat="45.26516" lon="6.02073">
        <time>2023-01-28T08:03:54+00:00</time>
        <ele>1646.0</ele>
      </trkpt>
      <trkpt lat="45.26514" lon="6.02071">
        <time>2023-01-28T08:03:55+00:00</time>
        <ele>1645.0</ele>
      </trkpt>
      <trkpt lat="45.26514" lon="6.02071">
        <time>2023-01-28T08:03:56+00:00</time>
        <ele>1645.0</ele>
      </trkpt>
      <trkpt lat="45.26513" lon="6.02071">
        <time>2023-01-28T08:03:57+00:00</time>
        <ele>1645.0</ele>
      </trkpt>
      <trkpt lat="45.26513" lon="6.02071">
        <time>2023-01-28T08:03:59+00:00</time>
        <ele>1645.0</ele>
      </trkpt>
      <trkpt lat="45.26509" lon="6.02069">
        <time>2023-01-28T08:04:06+00:00</time>
        <ele>1644.0</ele>
      </trkpt>
      <trkpt lat="45.26506" lon="6.02066">
        <time>2023-01-28T08:04:07+00:00</time>
        <ele>1643.0</ele>
      </trkpt>
      <trkpt lat="45.26504" lon="6.02061">
        <time>2023-01-28T08:04:08+00:00</time>
        <ele>1642.0</ele>
      </trkpt>
      <trkpt lat="45.26503" lon="6.02055">
        <time>2023-01-28T08:04:09+00:00</time>
        <ele>1641.0</ele>
      </trkpt>
      <trkpt lat="45.26504" lon="6.02048">
        <time>2023-01-28T08:04:10+00:00</time>
        <ele>1639.0</ele>
      </trkpt>
      <trkpt lat="45.26504" lon="6.02041">
        <time>2023-01-28T08:04:11+00:00</time>
        <ele>1638.0</ele>
      </trkpt>
      <trkpt lat="45.26503" lon="6.02034">
        <time>2023-01-28T08:04:12+00:00</time>
        <ele>1636.0</ele>
      </trkpt>
      <trkpt lat="45.26501" lon="6.02027">
        <time>2023-01-28T08:04:13+00:00</time>
        <ele>1634.0</ele>
      </trkpt>
      <trkpt lat="45.26499" lon="6.0202">
        <time>2023-01-28T08:04:14+00:00</time>
        <ele>1633.0</ele>
      </trkpt>
      <trkpt lat="45.26498" lon="6.02013">
        <time>2023-01-28T08:04:15+00:00</time>
        <ele>1631.0</ele>
      </trkpt>
      <trkpt lat="45.26497" lon="6.02007">
        <time>2023-01-28T08:04:16+00:00</time>
        <ele>1629.0</ele>
      </trkpt>
      <trkpt lat="45.26495" lon="6.02001">
        <time>2023-01-28T08:04:17+00:00</time>
        <ele>1628.0</ele>
      </trkpt>
      <trkpt lat="45.26493" lon="6.01995">
        <time>2023-01-28T08:04:18+00:00</time>
        <ele>1626.0</ele>
      </trkpt>
      <trkpt lat="45.26491" lon="6.0199">
        <time>2023-01-28T08:04:19+00:00</time>
        <ele>1625.0</ele>
      </trkpt>
      <trkpt lat="45.26489" lon="6.01985">
        <time>2023-01-28T08:04:20+00:00</time>
        <ele>1623.0</ele>
      </trkpt>
      <trkpt lat="45.26487" lon="6.01981">
        <time>2023-01-28T08:04:21+00:00</time>
        <ele>1622.0</ele>
      </trkpt>
      <trkpt lat="45.26485" lon="6.01975">
        <time>2023-01-28T08:04:22+00:00</time>
        <ele>1620.0</ele>
      </trkpt>
      <trkpt lat="45.26486" lon="6.0197">
        <time>2023-01-28T08:04:23+00:00</time>
        <ele>1619.0</ele>
      </trkpt>
      <trkpt lat="45.26485" lon="6.01964">
        <time>2023-01-28T08:04:24+00:00</time>
        <ele>1617.0</ele>
      </trkpt>
      <trkpt lat="45.26486" lon="6.01949">
        <time>2023-01-28T08:04:25+00:00</time>
        <ele>1614.0</ele>
      </trkpt>
      <trkpt lat="45.26486" lon="6.01942">
        <time>2023-01-28T08:04:27+00:00</time>
        <ele>1612.0</ele>
      </trkpt>
      <trkpt lat="45.26487" lon="6.01934">
        <time>2023-01-28T08:04:28+00:00</time>
        <ele>1610.0</ele>
      </trkpt>
      <trkpt lat="45.26486" lon="6.01925">
        <time>2023-01-28T08:04:29+00:00</time>
        <ele>1607.0</ele>
      </trkpt>
      <trkpt lat="45.26487" lon="6.01916">
        <time>2023-01-28T08:04:30+00:00</time>
        <ele>1605.0</ele>
      </trkpt>
      <trkpt lat="45.26487" lon="6.01905">
        <time>2023-01-28T08:04:31+00:00</time>
        <ele>1603.0</ele>
      </trkpt>
      <trkpt lat="45.26489" lon="6.01892">
        <time>2023-01-28T08:04:32+00:00</time>
        <ele>1600.0</ele>
      </trkpt>
      <trkpt lat="45.2649" lon="6.01883">
        <time>2023-01-28T08:04:33+00:00</time>
        <ele>1598.0</ele>
      </trkpt>
      <trkpt lat="45.26491" lon="6.01872">
        <time>2023-01-28T08:04:34+00:00</time>
        <ele>1596.0</ele>
      </trkpt>
      <trkpt lat="45.26491" lon="6.01861">
        <time>2023-01-28T08:04:35+00:00</time>
        <ele>1594.0</ele>
      </trkpt>
      <trkpt lat="45.2649" lon="6.01846">
        <time>2023-01-28T08:04:36+00:00</time>
        <ele>1592.0</ele>
      </trkpt>
      <trkpt lat="45.26489" lon="6.01836">
        <time>2023-01-28T08:04:37+00:00</time>
        <ele>1590.0</ele>
      </trkpt>
      <trkpt lat="45.26491" lon="6.01824">
        <time>2023-01-28T08:04:38+00:00</time>
        <ele>1589.0</ele>
      </trkpt>
      <trkpt lat="45.26493" lon="6.01811">
        <time>2023-01-28T08:04:39+00:00</time>
        <ele>1587.0</ele>
      </trkpt>
      <trkpt lat="45.26496" lon="6.01798">
        <time>2023-01-28T08:04:40+00:00</time>
        <ele>1585.0</ele>
      </trkpt>
      <trkpt lat="45.26499" lon="6.01783">
        <time>2023-01-28T08:04:41+00:00</time>
        <ele>1583.0</ele>
      </trkpt>
      <trkpt lat="45.26501" lon="6.01771">
        <time>2023-01-28T08:04:42+00:00</time>
        <ele>1582.0</ele>
      </trkpt>
      <trkpt lat="45.26504" lon="6.01756">
        <time>2023-01-28T08:04:43+00:00</time>
        <ele>1579.0</ele>
      </trkpt>
      <trkpt lat="45.26505" lon="6.0174">
        <time>2023-01-28T08:04:44+00:00</time>
        <ele>1578.0</ele>
      </trkpt>
      <trkpt lat="45.26506" lon="6.01726">
        <time>2023-01-28T08:04:45+00:00</time>
        <ele>1576.0</ele>
      </trkpt>
      <trkpt lat="45.26507" lon="6.01711">
        <time>2023-01-28T08:04:46+00:00</time>
        <ele>1574.0</ele>
      </trkpt>
      <trkpt lat="45.26507" lon="6.01698">
        <time>2023-01-28T08:04:47+00:00</time>
        <ele>1573.0</ele>
      </trkpt>
      <trkpt lat="45.26507" lon="6.01685">
        <time>2023-01-28T08:04:48+00:00</time>
        <ele>1572.0</ele>
      </trkpt>
      <trkpt lat="45.26507" lon="6.0166">
        <time>2023-01-28T08:04:50+00:00</time>
        <ele>1571.0</ele>
      </trkpt>
      <trkpt lat="45.26506" lon="6.0164">
        <time>2023-01-28T08:04:52+00:00</time>
        <ele>1570.0</ele>
      </trkpt>
      <trkpt lat="45.26505" lon="6.0163">
        <time>2023-01-28T08:04:53+00:00</time>
        <ele>1569.0</ele>
      </trkpt>
      <trkpt lat="45.26502" lon="6.01613">
        <time>2023-01-28T08:04:55+00:00</time>
        <ele>1568.0</ele>
      </trkpt>
      <trkpt lat="45.26498" lon="6.01596">
        <time>2023-01-28T08:04:57+00:00</time>
        <ele>1567.0</ele>
      </trkpt>
      <trkpt lat="45.26497" lon="6.01589">
        <time>2023-01-28T08:04:58+00:00</time>
        <ele>1567.0</ele>
      </trkpt>
      <trkpt lat="45.26497" lon="6.01576">
        <time>2023-01-28T08:05:00+00:00</time>
        <ele>1567.0</ele>
      </trkpt>
      <trkpt lat="45.26498" lon="6.01572">
        <time>2023-01-28T08:05:01+00:00</time>
        <ele>1567.0</ele>
      </trkpt>
      <trkpt lat="45.26498" lon="6.0157">
        <time>2023-01-28T08:05:04+00:00</time>
        <ele>1567.0</ele>
      </trkpt>
      <trkpt lat="45.26498" lon="6.01571">
        <time>2023-01-28T08:05:12+00:00</time>
        <ele>1567.0</ele>
      </trkpt>
      <trkpt lat="45.26498" lon="6.01571">
        <time>2023-01-28T08:05:22+00:00</time>
        <ele>1567.0</ele>
      </trkpt>
      <trkpt lat="45.26498" lon="6.01571">
        <time>2023-01-28T08:05:24+00:00</time>
        <ele>1567.0</ele>
      </trkpt>
      <trkpt lat="45.26498" lon="6.01571">
        <time>2023-01-28T08:05:29+00:00</time>
        <ele>1567.0</ele>
      </trkpt>
      <trkpt lat="45.26499" lon="6.01572">
        <time>2023-01-28T08:05:36+00:00</time>
        <ele>1567.0</ele>
      </trkpt>
      <trkpt lat="45.26504" lon="6.01568">
        <time>2023-01-28T08:05:39+00:00</time>
        <ele>1568.0</ele>
      </trkpt>
      <trkpt lat="45.26516" lon="6.01561">
        <time>2023-01-28T08:05:45+00:00</time>
        <ele>1568.0</ele>
      </trkpt>
      <trkpt lat="45.26529" lon="6.01562">
        <time>2023-01-28T08:05:50+00:00</time>
        <ele>1568.0</ele>
      </trkpt>
      <trkpt lat="45.26541" lon="6.0157">
        <time>2023-01-28T08:05:54+00:00</time>
        <ele>1569.0</ele>
      </trkpt>
      <trkpt lat="45.26549" lon="6.01578">
        <time>2023-01-28T08:05:57+00:00</time>
        <ele>1569.0</ele>
      </trkpt>
      <trkpt lat="45.26553" lon="6.01582">
        <time>2023-01-28T08:05:58+00:00</time>
        <ele>1569.0</ele>
      </trkpt>
      <trkpt lat="45.26567" lon="6.01588">
        <time>2023-01-28T08:06:02+00:00</time>
        <ele>1570.0</ele>
      </trkpt>
      <trkpt lat="45.26569" lon="6.01586">
        <time>2023-01-28T08:06:03+00:00</time>
        <ele>1570.0</ele>
      </trkpt>
      <trkpt lat="45.26578" lon="6.01575">
        <time>2023-01-28T08:06:07+00:00</time>
        <ele>1568.0</ele>
      </trkpt>
      <trkpt lat="45.2658" lon="6.01573">
        <time>2023-01-28T08:06:08+00:00</time>
        <ele>1568.0</ele>
      </trkpt>
      <trkpt lat="45.26586" lon="6.01568">
        <time>2023-01-28T08:06:11+00:00</time>
        <ele>1568.0</ele>
      </trkpt>
      <trkpt lat="45.26589" lon="6.01567">
        <time>2023-01-28T08:06:12+00:00</time>
        <ele>1568.0</ele>
      </trkpt>
      <trkpt lat="45.26606" lon="6.01561">
        <time>2023-01-28T08:06:19+00:00</time>
        <ele>1568.0</ele>
      </trkpt>
      <trkpt lat="45.26615" lon="6.01557">
        <time>2023-01-28T08:06:25+00:00</time>
        <ele>1569.0</ele>
      </trkpt>
      <trkpt lat="45.26616" lon="6.01556">
        <time>2023-01-28T08:06:30+00:00</time>
        <ele>1569.0</ele>
      </trkpt>
      <trkpt lat="45.26616" lon="6.01555">
        <time>2023-01-28T08:06:32+00:00</time>
        <ele>1568.0</ele>
      </trkpt>
      <trkpt lat="45.26616" lon="6.01553">
        <time>2023-01-28T08:06:35+00:00</time>
        <ele>1568.0</ele>
      </trkpt>
      <trkpt lat="45.26616" lon="6.01552">
        <time>2023-01-28T08:06:38+00:00</time>
        <ele>1568.0</ele>
      </trkpt>
      <trkpt lat="45.26616" lon="6.01552">
        <time>2023-01-28T08:06:39+00:00</time>
        <ele>1568.0</ele>
      </trkpt>
      <trkpt lat="45.26616" lon="6.01552">
        <time>2023-01-28T08:06:44+00:00</time>
        <ele>1568.0</ele>
      </trkpt>
      <trkpt lat="45.26616" lon="6.01552">
        <time>2023-01-28T08:06:48+00:00</time>
        <ele>1568.0</ele>
      </trkpt>
      <trkpt lat="45.26616" lon="6.01553">
        <time>2023-01-28T08:07:18+00:00</time>
        <ele>1568.0</ele>
      </trkpt>
      <trkpt lat="45.26621" lon="6.0155">
        <time>2023-01-28T08:07:21+00:00</time>
        <ele>1568.0</ele>
      </trkpt>
      <trkpt lat="45.26629" lon="6.01544">
        <time>2023-01-28T08:07:27+00:00</time>
        <ele>1569.0</ele>
      </trkpt>
      <trkpt lat="45.26629" lon="6.01543">
        <time>2023-01-28T08:07:28+00:00</time>
        <ele>1569.0</ele>
      </trkpt>
      <trkpt lat="45.26635" lon="6.01538">
        <time>2023-01-28T08:07:33+00:00</time>
        <ele>1569.0</ele>
      </trkpt>
      <trkpt lat="45.26638" lon="6.01534">
        <time>2023-01-28T08:07:37+00:00</time>
        <ele>1569.0</ele>
      </trkpt>
      <trkpt lat="45.26648" lon="6.01527">
        <time>2023-01-28T08:07:44+00:00</time>
        <ele>1569.0</ele>
      </trkpt>
      <trkpt lat="45.26651" lon="6.01523">
        <time>2023-01-28T08:07:48+00:00</time>
        <ele>1569.0</ele>
      </trkpt>
      <trkpt lat="45.26657" lon="6.01518">
        <time>2023-01-28T08:07:52+00:00</time>
        <ele>1569.0</ele>
      </trkpt>
      <trkpt lat="45.26661" lon="6.01514">
        <time>2023-01-28T08:07:55+00:00</time>
        <ele>1569.0</ele>
      </trkpt>
      <trkpt lat="45.26667" lon="6.01508">
        <time>2023-01-28T08:08:01+00:00</time>
        <ele>1569.0</ele>
      </trkpt>
      <trkpt lat="45.26675" lon="6.01498">
        <time>2023-01-28T08:08:09+00:00</time>
        <ele>1569.0</ele>
      </trkpt>
      <trkpt lat="45.26676" lon="6.01496">
        <time>2023-01-28T08:08:10+00:00</time>
        <ele>1569.0</ele>
      </trkpt>
      <trkpt lat="45.26679" lon="6.01493">
        <time>2023-01-28T08:08:14+00:00</time>
        <ele>1569.0</ele>
      </trkpt>
      <trkpt lat="45.2668" lon="6.01492">
        <time>2023-01-28T08:08:15+00:00</time>
        <ele>1569.0</ele>
      </trkpt>
      <trkpt lat="45.26687" lon="6.01485">
        <time>2023-01-28T08:08:23+00:00</time>
        <ele>1569.0</ele>
      </trkpt>
      <trkpt lat="45.26693" lon="6.01479">
        <time>2023-01-28T08:08:30+00:00</time>
        <ele>1570.0</ele>
      </trkpt>
      <trkpt lat="45.26697" lon="6.01475">
        <time>2023-01-28T08:08:34+00:00</time>
        <ele>1570.0</ele>
      </trkpt>
      <trkpt lat="45.26702" lon="6.01474">
        <time>2023-01-28T08:08:38+00:00</time>
        <ele>1571.0</ele>
      </trkpt>
      <trkpt lat="45.26707" lon="6.0147">
        <time>2023-01-28T08:08:42+00:00</time>
        <ele>1571.0</ele>
      </trkpt>
      <trkpt lat="45.2671" lon="6.01468">
        <time>2023-01-28T08:08:45+00:00</time>
        <ele>1571.0</ele>
      </trkpt>
      <trkpt lat="45.26711" lon="6.01468">
        <time>2023-01-28T08:08:46+00:00</time>
        <ele>1572.0</ele>
      </trkpt>
      <trkpt lat="45.26715" lon="6.01465">
        <time>2023-01-28T08:08:51+00:00</time>
        <ele>1572.0</ele>
      </trkpt>
      <trkpt lat="45.26719" lon="6.01463">
        <time>2023-01-28T08:08:55+00:00</time>
        <ele>1572.0</ele>
      </trkpt>
      <trkpt lat="45.26719" lon="6.01463">
        <time>2023-01-28T08:08:56+00:00</time>
        <ele>1572.0</ele>
      </trkpt>
      <trkpt lat="45.26723" lon="6.01463">
        <time>2023-01-28T08:09:02+00:00</time>
        <ele>1573.0</ele>
      </trkpt>
      <trkpt lat="45.26726" lon="6.01462">
        <time>2023-01-28T08:09:05+00:00</time>
        <ele>1573.0</ele>
      </trkpt>
      <trkpt lat="45.26728" lon="6.01462">
        <time>2023-01-28T08:09:08+00:00</time>
        <ele>1573.0</ele>
      </trkpt>
      <trkpt lat="45.26731" lon="6.01461">
        <time>2023-01-28T08:09:11+00:00</time>
        <ele>1574.0</ele>
      </trkpt>
      <trkpt lat="45.26735" lon="6.0146">
        <time>2023-01-28T08:09:15+00:00</time>
        <ele>1574.0</ele>
      </trkpt>
      <trkpt lat="45.26739" lon="6.01459">
        <time>2023-01-28T08:09:19+00:00</time>
        <ele>1574.0</ele>
      </trkpt>
      <trkpt lat="45.26743" lon="6.01457">
        <time>2023-01-28T08:09:23+00:00</time>
        <ele>1575.0</ele>
      </trkpt>
      <trkpt lat="45.26744" lon="6.01457">
        <time>2023-01-28T08:09:24+00:00</time>
        <ele>1575.0</ele>
      </trkpt>
      <trkpt lat="45.26754" lon="6.01455">
        <time>2023-01-28T08:09:33+00:00</time>
        <ele>1576.0</ele>
      </trkpt>
      <trkpt lat="45.26758" lon="6.01455">
        <time>2023-01-28T08:09:37+00:00</time>
        <ele>1576.0</ele>
      </trkpt>
      <trkpt lat="45.26759" lon="6.01455">
        <time>2023-01-28T08:09:38+00:00</time>
        <ele>1576.0</ele>
      </trkpt>
      <trkpt lat="45.26763" lon="6.01456">
        <time>2023-01-28T08:09:41+00:00</time>
        <ele>1577.0</ele>
      </trkpt>
      <trkpt lat="45.26771" lon="6.01454">
        <time>2023-01-28T08:09:50+00:00</time>
        <ele>1577.0</ele>
      </trkpt>
      <trkpt lat="45.26772" lon="6.01454">
        <time>2023-01-28T08:09:51+00:00</time>
        <ele>1577.0</ele>
      </trkpt>
      <trkpt lat="45.2678" lon="6.01455">
        <time>2023-01-28T08:09:58+00:00</time>
        <ele>1578.0</ele>
      </trkpt>
      <trkpt lat="45.26781" lon="6.01455">
        <time>2023-01-28T08:09:59+00:00</time>
        <ele>1579.0</ele>
      </trkpt>
      <trkpt lat="45.26783" lon="6.01454">
        <time>2023-01-28T08:10:00+00:00</time>
        <ele>1578.0</ele>
      </trkpt>
      <trkpt lat="45.26787" lon="6.01454">
        <time>2023-01-28T08:10:05+00:00</time>
        <ele>1579.0</ele>
      </trkpt>
      <trkpt lat="45.26788" lon="6.01455">
        <time>2023-01-28T08:10:06+00:00</time>
        <ele>1579.0</ele>
      </trkpt>
      <trkpt lat="45.26793" lon="6.01456">
        <time>2023-01-28T08:10:11+00:00</time>
        <ele>1579.0</ele>
      </trkpt>
      <trkpt lat="45.26795" lon="6.01457">
        <time>2023-01-28T08:10:13+00:00</time>
        <ele>1580.0</ele>
      </trkpt>
      <trkpt lat="45.26802" lon="6.01459">
        <time>2023-01-28T08:10:19+00:00</time>
        <ele>1580.0</ele>
      </trkpt>
      <trkpt lat="45.26806" lon="6.01459">
        <time>2023-01-28T08:10:23+00:00</time>
        <ele>1580.0</ele>
      </trkpt>
      <trkpt lat="45.2681" lon="6.01456">
        <time>2023-01-28T08:10:27+00:00</time>
        <ele>1579.0</ele>
      </trkpt>
      <trkpt lat="45.26813" lon="6.01454">
        <time>2023-01-28T08:10:31+00:00</time>
        <ele>1579.0</ele>
      </trkpt>
      <trkpt lat="45.26814" lon="6.01453">
        <time>2023-01-28T08:10:32+00:00</time>
        <ele>1579.0</ele>
      </trkpt>
      <trkpt lat="45.26821" lon="6.01452">
        <time>2023-01-28T08:10:39+00:00</time>
        <ele>1578.0</ele>
      </trkpt>
      <trkpt lat="45.26822" lon="6.01451">
        <time>2023-01-28T08:10:40+00:00</time>
        <ele>1578.0</ele>
      </trkpt>
      <trkpt lat="45.26824" lon="6.01451">
        <time>2023-01-28T08:10:42+00:00</time>
        <ele>1578.0</ele>
      </trkpt>
      <trkpt lat="45.2683" lon="6.01452">
        <time>2023-01-28T08:10:48+00:00</time>
        <ele>1578.0</ele>
      </trkpt>
      <trkpt lat="45.2684" lon="6.01449">
        <time>2023-01-28T08:10:58+00:00</time>
        <ele>1576.0</ele>
      </trkpt>
      <trkpt lat="45.26841" lon="6.0145">
        <time>2023-01-28T08:11:00+00:00</time>
        <ele>1576.0</ele>
      </trkpt>
      <trkpt lat="45.26842" lon="6.01448">
        <time>2023-01-28T08:11:04+00:00</time>
        <ele>1576.0</ele>
      </trkpt>
      <trkpt lat="45.26842" lon="6.01448">
        <time>2023-01-28T08:11:08+00:00</time>
        <ele>1576.0</ele>
      </trkpt>
      <trkpt lat="45.26842" lon="6.01448">
        <time>2023-01-28T08:11:15+00:00</time>
        <ele>1576.0</ele>
      </trkpt>
      <trkpt lat="45.26842" lon="6.01448">
        <time>2023-01-28T08:11:40+00:00</time>
        <ele>1576.0</ele>
      </trkpt>
      <trkpt lat="45.26842" lon="6.01448">
        <time>2023-01-28T08:11:41+00:00</time>
        <ele>1576.0</ele>
      </trkpt>
      <trkpt lat="45.26842" lon="6.01448">
        <time>2023-01-28T08:11:46+00:00</time>
        <ele>1576.0</ele>
      </trkpt>
      <trkpt lat="45.26842" lon="6.01448">
        <time>2023-01-28T08:11:47+00:00</time>
        <ele>1576.0</ele>
      </trkpt>
      <trkpt lat="45.26842" lon="6.01448">
        <time>2023-01-28T08:11:51+00:00</time>
        <ele>1576.0</ele>
      </trkpt>
      <trkpt lat="45.26842" lon="6.01448">
        <time>2023-01-28T08:12:20+00:00</time>
        <ele>1576.0</ele>
      </trkpt>
      <trkpt lat="45.26842" lon="6.01447">
        <time>2023-01-28T08:12:26+00:00</time>
        <ele>1576.0</ele>
      </trkpt>
      <trkpt lat="45.26843" lon="6.01447">
        <time>2023-01-28T08:12:38+00:00</time>
        <ele>1575.0</ele>
      </trkpt>
      <trkpt lat="45.26843" lon="6.01447">
        <time>2023-01-28T08:12:41+00:00</time>
        <ele>1575.0</ele>
      </trkpt>
      <trkpt lat="45.26844" lon="6.01448">
        <time>2023-01-28T08:12:53+00:00</time>
        <ele>1576.0</ele>
      </trkpt>
      <trkpt lat="45.26844" lon="6.01448">
        <time>2023-01-28T08:13:11+00:00</time>
        <ele>1576.0</ele>
      </trkpt>
      <trkpt lat="45.26844" lon="6.01448">
        <time>2023-01-28T08:13:19+00:00</time>
        <ele>1576.0</ele>
      </trkpt>
      <trkpt lat="45.26844" lon="6.0145">
        <time>2023-01-28T08:13:26+00:00</time>
        <ele>1576.0</ele>
      </trkpt>
      <trkpt lat="45.26844" lon="6.01451">
        <time>2023-01-28T08:13:32+00:00</time>
        <ele>1576.0</ele>
      </trkpt>
      <trkpt lat="45.26843" lon="6.01452">
        <time>2023-01-28T08:13:40+00:00</time>
        <ele>1577.0</ele>
      </trkpt>
      <trkpt lat="45.26843" lon="6.01452">
        <time>2023-01-28T08:13:52+00:00</time>
        <ele>1577.0</ele>
      </trkpt>
      <trkpt lat="45.26844" lon="6.01452">
        <time>2023-01-28T08:14:03+00:00</time>
        <ele>1577.0</ele>
      </trkpt>
      <trkpt lat="45.26844" lon="6.01451">
        <time>2023-01-28T08:14:23+00:00</time>
        <ele>1576.0</ele>
      </trkpt>
      <trkpt lat="45.26844" lon="6.01451">
        <time>2023-01-28T08:14:38+00:00</time>
        <ele>1576.0</ele>
      </trkpt>
      <trkpt lat="45.26844" lon="6.01451">
        <time>2023-01-28T08:14:40+00:00</time>
        <ele>1576.0</ele>
      </trkpt>
      <trkpt lat="45.26844" lon="6.01451">
        <time>2023-01-28T08:15:15+00:00</time>
        <ele>1576.0</ele>
      </trkpt>
      <trkpt lat="45.26844" lon="6.01451">
        <time>2023-01-28T08:15:24+00:00</time>
        <ele>1576.0</ele>
      </trkpt>
      <trkpt lat="45.26844" lon="6.01451">
        <time>2023-01-28T08:15:34+00:00</time>
        <ele>1576.0</ele>
      </trkpt>
      <trkpt lat="45.26844" lon="6.01451">
        <time>2023-01-28T08:15:53+00:00</time>
        <ele>1576.0</ele>
      </trkpt>
      <trkpt lat="45.26844" lon="6.01451">
        <time>2023-01-28T08:16:04+00:00</time>
        <ele>1576.0</ele>
      </trkpt>
      <trkpt lat="45.26844" lon="6.01451">
        <time>2023-01-28T08:16:05+00:00</time>
        <ele>1576.0</ele>
      </trkpt>
      <trkpt lat="45.26843" lon="6.01449">
        <time>2023-01-28T08:16:22+00:00</time>
        <ele>1576.0</ele>
      </trkpt>
      <trkpt lat="45.26843" lon="6.01446">
        <time>2023-01-28T08:16:43+00:00</time>
        <ele>1575.0</ele>
      </trkpt>
      <trkpt lat="45.26841" lon="6.01446">
        <time>2023-01-28T08:16:48+00:00</time>
        <ele>1575.0</ele>
      </trkpt>
      <trkpt lat="45.26841" lon="6.01448">
        <time>2023-01-28T08:16:54+00:00</time>
        <ele>1576.0</ele>
      </trkpt>
      <trkpt lat="45.26841" lon="6.01448">
        <time>2023-01-28T08:16:57+00:00</time>
        <ele>1576.0</ele>
      </trkpt>
      <trkpt lat="45.26841" lon="6.01448">
        <time>2023-01-28T08:17:25+00:00</time>
        <ele>1576.0</ele>
      </trkpt>
      <trkpt lat="45.26843" lon="6.01447">
        <time>2023-01-28T08:17:28+00:00</time>
        <ele>1575.0</ele>
      </trkpt>
      <trkpt lat="45.26843" lon="6.01447">
        <time>2023-01-28T08:17:32+00:00</time>
        <ele>1575.0</ele>
      </trkpt>
      <trkpt lat="45.26843" lon="6.01447">
        <time>2023-01-28T08:17:35+00:00</time>
        <ele>1575.0</ele>
      </trkpt>
      <trkpt lat="45.26844" lon="6.01447">
        <time>2023-01-28T08:17:48+00:00</time>
        <ele>1575.0</ele>
      </trkpt>
      <trkpt lat="45.26845" lon="6.01447">
        <time>2023-01-28T08:17:53+00:00</time>
        <ele>1575.0</ele>
      </trkpt>
      <trkpt lat="45.26845" lon="6.01447">
        <time>2023-01-28T08:17:54+00:00</time>
        <ele>1575.0</ele>
      </trkpt>
      <trkpt lat="45.26845" lon="6.01447">
        <time>2023-01-28T08:18:02+00:00</time>
        <ele>1575.0</ele>
      </trkpt>
      <trkpt lat="45.26845" lon="6.01447">
        <time>2023-01-28T08:18:03+00:00</time>
        <ele>1575.0</ele>
      </trkpt>
      <trkpt lat="45.26845" lon="6.01447">
        <time>2023-01-28T08:18:05+00:00</time>
        <ele>1575.0</ele>
      </trkpt>
      <trkpt lat="45.26845" lon="6.01447">
        <time>2023-01-28T08:18:09+00:00</time>
        <ele>1575.0</ele>
      </trkpt>
      <trkpt lat="45.26845" lon="6.01446">
        <time>2023-01-28T08:18:11+00:00</time>
        <ele>1575.0</ele>
      </trkpt>
      <trkpt lat="45.26846" lon="6.01444">
        <time>2023-01-28T08:18:39+00:00</time>
        <ele>1574.0</ele>
      </trkpt>
      <trkpt lat="45.26846" lon="6.01445">
        <time>2023-01-28T08:18:44+00:00</time>
        <ele>1575.0</ele>
      </trkpt>
      <trkpt lat="45.26845" lon="6.01445">
        <time>2023-01-28T08:18:50+00:00</time>
        <ele>1575.0</ele>
      </trkpt>
      <trkpt lat="45.26845" lon="6.01445">
        <time>2023-01-28T08:18:54+00:00</time>
        <ele>1575.0</ele>
      </trkpt>
      <trkpt lat="45.26843" lon="6.01449">
        <time>2023-01-28T08:18:58+00:00</time>
        <ele>1576.0</ele>
      </trkpt>
      <trkpt lat="45.2684" lon="6.01449">
        <time>2023-01-28T08:19:00+00:00</time>
        <ele>1576.0</ele>
      </trkpt>
      <trkpt lat="45.26829" lon="6.01449">
        <time>2023-01-28T08:19:03+00:00</time>
        <ele>1577.0</ele>
      </trkpt>
    </trkseg>
  </trk>
</gpx>
